Wetterdaten: aktuell Sonntag, 10.05.2026 18:54
Datum Zeit Temperatur Temp. Gh Luftfeuchte Feuchte Gh Luftdruck Regen Wind Richtung Richtung ET Taupunkt Windchill Windb en Empfang
10.05.2026 18:54 23,3 °C 25,6 °C 48 % 28 % 1006,4 hPa 0,0 l/m² 8,0 km/h (2 Bft) N 360 ° 0,000 mm 11,7 °C 23,3 °C 12,9 km/h (3 Bft) 95,65 %
10.05.2026 18:53 23,4 °C 25,6 °C 48 % 28 % 1006,4 hPa 0,0 l/m² 8,0 km/h (2 Bft) N 360 ° 0,000 mm 11,8 °C 23,4 °C 14,5 km/h (3 Bft) 95,65 %
10.05.2026 18:52 23,4 °C 25,6 °C 49 % 28 % 1006,4 hPa 0,0 l/m² 8,0 km/h (2 Bft) N 360 ° 0,000 mm 12,1 °C 23,4 °C 14,5 km/h (3 Bft) 91,30 %
10.05.2026 18:51 23,5 °C 25,6 °C 49 % 28 % 1006,5 hPa 0,0 l/m² 12,9 km/h (3 Bft) N 360 ° 0,000 mm 12,2 °C 23,5 °C 19,3 km/h (3 Bft) 95,65 %
10.05.2026 18:50 23,6 °C 26,1 °C 49 % 27 % 1006,5 hPa 0,0 l/m² 9,7 km/h (2 Bft) N 360 ° 0,000 mm 12,2 °C 23,6 °C 16,1 km/h (3 Bft) 100,00 %
10.05.2026 18:49 23,6 °C 26,1 °C 48 % 27 % 1006,5 hPa 0,0 l/m² 4,8 km/h (1 Bft) N 360 ° 0,000 mm 11,9 °C 23,6 °C 12,9 km/h (3 Bft) 95,65 %
10.05.2026 18:48 23,6 °C 26,1 °C 48 % 27 % 1006,5 hPa 0,0 l/m² 6,4 km/h (2 Bft) N 360 ° 0,000 mm 11,9 °C 23,6 °C 8,0 km/h (2 Bft) 100,00 %
10.05.2026 18:47 23,7 °C 26,1 °C 48 % 27 % 1006,5 hPa 0,0 l/m² 6,4 km/h (2 Bft) N 360 ° 0,000 mm 12,0 °C 23,7 °C 12,9 km/h (3 Bft) 100,00 %
10.05.2026 18:46 23,7 °C 26,1 °C 48 % 27 % 1006,5 hPa 0,0 l/m² 8,0 km/h (2 Bft) N 360 ° 0,000 mm 12,0 °C 23,7 °C 12,9 km/h (3 Bft) 100,00 %
10.05.2026 18:45 23,7 °C 26,1 °C 48 % 27 % 1006,4 hPa 0,0 l/m² 8,0 km/h (2 Bft) N 360 ° 0,000 mm 12,0 °C 23,7 °C 12,9 km/h (3 Bft) 95,65 %
10.05.2026 18:44 23,7 °C 26,1 °C 47 % 26 % 1006,5 hPa 0,0 l/m² 4,8 km/h (1 Bft) N 360 ° 0,000 mm 11,7 °C 23,7 °C 8,0 km/h (2 Bft) 91,30 %
10.05.2026 18:43 23,8 °C 26,1 °C 47 % 26 % 1006,5 hPa 0,0 l/m² 8,0 km/h (2 Bft) N 360 ° 0,000 mm 11,8 °C 23,8 °C 9,7 km/h (2 Bft) 100,00 %
10.05.2026 18:42 23,8 °C 26,1 °C 47 % 26 % 1006,4 hPa 0,0 l/m² 9,7 km/h (2 Bft) N 360 ° 0,000 mm 11,8 °C 23,8 °C 17,7 km/h (3 Bft) 100,00 %
10.05.2026 18:41 23,8 °C 26,1 °C 46 % 26 % 1006,5 hPa 0,0 l/m² 8,0 km/h (2 Bft) N 360 ° 0,000 mm 11,5 °C 23,8 °C 12,9 km/h (3 Bft) 100,00 %
10.05.2026 18:40 23,8 °C 26,1 °C 47 % 26 % 1006,6 hPa 0,0 l/m² 12,9 km/h (3 Bft) N 360 ° 0,000 mm 11,8 °C 23,8 °C 20,9 km/h (4 Bft) 95,65 %
10.05.2026 18:39 23,8 °C 26,1 °C 46 % 26 % 1006,6 hPa 0,0 l/m² 8,0 km/h (2 Bft) N 360 ° 0,000 mm 11,5 °C 23,8 °C 12,9 km/h (3 Bft) 100,00 %
10.05.2026 18:38 23,8 °C 26,1 °C 46 % 25 % 1006,6 hPa 0,0 l/m² 4,8 km/h (1 Bft) N 360 ° 0,000 mm 11,5 °C 23,8 °C 9,7 km/h (2 Bft) 95,65 %
10.05.2026 18:37 23,8 °C 26,1 °C 46 % 25 % 1006,6 hPa 0,0 l/m² 4,8 km/h (1 Bft) N 360 ° 0,000 mm 11,5 °C 23,8 °C 8,0 km/h (2 Bft) 100,00 %
10.05.2026 18:36 23,8 °C 26,1 °C 45 % 25 % 1006,7 hPa 0,0 l/m² 6,4 km/h (2 Bft) N 360 ° 0,000 mm 11,1 °C 23,8 °C 9,7 km/h (2 Bft) 100,00 %
10.05.2026 18:35 23,8 °C 26,1 °C 45 % 24 % 1006,7 hPa 0,0 l/m² 8,0 km/h (2 Bft) N 360 ° 0,000 mm 11,1 °C 23,8 °C 12,9 km/h (3 Bft) 100,00 %
10.05.2026 18:34 23,8 °C 26,7 °C 45 % 24 % 1006,6 hPa 0,0 l/m² 9,7 km/h (2 Bft) N 360 ° 0,000 mm 11,1 °C 23,8 °C 17,7 km/h (3 Bft) 100,00 %
10.05.2026 18:33 23,9 °C 26,7 °C 45 % 24 % 1006,6 hPa 0,0 l/m² 11,3 km/h (2 Bft) N 360 ° 0,000 mm 11,2 °C 23,9 °C 19,3 km/h (3 Bft) 100,00 %
10.05.2026 18:32 23,8 °C 26,7 °C 46 % 25 % 1006,6 hPa 0,0 l/m² 11,3 km/h (2 Bft) N 360 ° 0,000 mm 11,5 °C 23,8 °C 16,1 km/h (3 Bft) 95,65 %
10.05.2026 18:31 23,9 °C 26,7 °C 46 % 25 % 1006,6 hPa 0,0 l/m² 11,3 km/h (2 Bft) N 360 ° 0,000 mm 11,6 °C 23,9 °C 16,1 km/h (3 Bft) 95,65 %
10.05.2026 18:30 23,8 °C 26,7 °C 46 % 25 % 1006,6 hPa 0,0 l/m² 14,5 km/h (3 Bft) N 360 ° 0,000 mm 11,5 °C 23,8 °C 22,5 km/h (4 Bft) 95,65 %
10.05.2026 18:29 23,9 °C 26,7 °C 46 % 25 % 1006,7 hPa 0,0 l/m² 12,9 km/h (3 Bft) N 360 ° 0,000 mm 11,6 °C 23,9 °C 20,9 km/h (4 Bft) 100,00 %
10.05.2026 18:28 23,9 °C 26,7 °C 46 % 24 % 1006,7 hPa 0,0 l/m² 9,7 km/h (2 Bft) N 360 ° 0,000 mm 11,6 °C 23,9 °C 14,5 km/h (3 Bft) 95,65 %
10.05.2026 18:27 23,9 °C 26,7 °C 46 % 24 % 1006,7 hPa 0,0 l/m² 8,0 km/h (2 Bft) N 360 ° 0,000 mm 11,6 °C 23,9 °C 16,1 km/h (3 Bft) 100,00 %
10.05.2026 18:26 23,9 °C 26,7 °C 46 % 24 % 1006,7 hPa 0,0 l/m² 9,7 km/h (2 Bft) N 360 ° 0,000 mm 11,6 °C 23,9 °C 20,9 km/h (4 Bft) 100,00 %
10.05.2026 18:25 23,8 °C 26,7 °C 46 % 24 % 1006,7 hPa 0,0 l/m² 11,3 km/h (2 Bft) N 360 ° 0,000 mm 11,5 °C 23,8 °C 22,5 km/h (4 Bft) 100,00 %
10.05.2026 18:24 23,8 °C 27,2 °C 46 % 24 % 1006,7 hPa 0,0 l/m² 6,4 km/h (2 Bft) N 360 ° 0,000 mm 11,5 °C 23,8 °C 12,9 km/h (3 Bft) 95,65 %
10.05.2026 18:23 23,8 °C 27,2 °C 45 % 23 % 1006,7 hPa 0,0 l/m² 6,4 km/h (2 Bft) N 360 ° 0,000 mm 11,1 °C 23,8 °C 9,7 km/h (2 Bft) 100,00 %
10.05.2026 18:22 23,8 °C 27,2 °C 45 % 23 % 1006,8 hPa 0,0 l/m² 12,9 km/h (3 Bft) N 360 ° 0,000 mm 11,1 °C 23,8 °C 20,9 km/h (4 Bft) 100,00 %
10.05.2026 18:21 23,8 °C 27,2 °C 45 % 24 % 1006,9 hPa 0,0 l/m² 16,1 km/h (3 Bft) N 360 ° 0,000 mm 11,1 °C 23,8 °C 22,5 km/h (4 Bft) 95,65 %
10.05.2026 18:20 23,8 °C 27,2 °C 45 % 24 % 1006,8 hPa 0,0 l/m² 8,0 km/h (2 Bft) N 360 ° 0,000 mm 11,1 °C 23,8 °C 12,9 km/h (3 Bft) 95,65 %
10.05.2026 18:19 23,8 °C 27,2 °C 45 % 23 % 1006,8 hPa 0,0 l/m² 6,4 km/h (2 Bft) N 360 ° 0,000 mm 11,1 °C 23,8 °C 9,7 km/h (2 Bft) 100,00 %
10.05.2026 18:18 23,8 °C 27,2 °C 45 % 23 % 1006,9 hPa 0,0 l/m² 8,0 km/h (2 Bft) N 360 ° 0,000 mm 11,1 °C 23,8 °C 12,9 km/h (3 Bft) 100,00 %
10.05.2026 18:17 23,8 °C 27,2 °C 45 % 23 % 1006,9 hPa 0,0 l/m² 8,0 km/h (2 Bft) N 360 ° 0,000 mm 11,1 °C 23,8 °C 12,9 km/h (3 Bft) 95,65 %
10.05.2026 18:16 23,9 °C 27,8 °C 45 % 23 % 1006,9 hPa 0,0 l/m² 8,0 km/h (2 Bft) N 360 ° 0,000 mm 11,2 °C 23,9 °C 17,7 km/h (3 Bft) 100,00 %
10.05.2026 18:15 23,9 °C 27,8 °C 45 % 23 % 1006,8 hPa 0,0 l/m² 9,7 km/h (2 Bft) N 360 ° 0,000 mm 11,2 °C 23,9 °C 14,5 km/h (3 Bft) 95,65 %
10.05.2026 18:14 24,0 °C 27,8 °C 45 % 22 % 1006,9 hPa 0,0 l/m² 9,7 km/h (2 Bft) N 360 ° 0,000 mm 11,3 °C 24,0 °C 17,7 km/h (3 Bft) 100,00 %
10.05.2026 18:13 24,1 °C 27,8 °C 45 % 22 % 1006,8 hPa 0,0 l/m² 12,9 km/h (3 Bft) N 360 ° 0,000 mm 11,4 °C 24,1 °C 19,3 km/h (3 Bft) 100,00 %
10.05.2026 18:12 24,2 °C 27,8 °C 45 % 22 % 1006,9 hPa 0,0 l/m² 8,0 km/h (2 Bft) N 360 ° 0,000 mm 11,5 °C 24,2 °C 22,5 km/h (4 Bft) 100,00 %
10.05.2026 18:11 24,3 °C 27,8 °C 44 % 22 % 1006,9 hPa 0,0 l/m² 6,4 km/h (2 Bft) N 360 ° 0,000 mm 11,3 °C 24,3 °C 9,7 km/h (2 Bft) 100,00 %
10.05.2026 18:10 24,4 °C 27,8 °C 44 % 22 % 1007,0 hPa 0,0 l/m² 14,5 km/h (3 Bft) N 360 ° 0,000 mm 11,3 °C 24,4 °C 20,9 km/h (4 Bft) 91,30 %
10.05.2026 18:09 24,4 °C 27,8 °C 44 % 21 % 1006,9 hPa 0,0 l/m² 8,0 km/h (2 Bft) N 360 ° 0,000 mm 11,3 °C 24,4 °C 17,7 km/h (3 Bft) 95,65 %
10.05.2026 18:08 24,5 °C 28,3 °C 43 % 21 % 1006,9 hPa 0,0 l/m² 11,3 km/h (2 Bft) N 360 ° 0,000 mm 11,1 °C 24,5 °C 14,5 km/h (3 Bft) 95,65 %
10.05.2026 18:07 24,6 °C 28,3 °C 43 % 21 % 1006,9 hPa 0,0 l/m² 9,7 km/h (2 Bft) N 360 ° 0,000 mm 11,2 °C 24,6 °C 14,5 km/h (3 Bft) 95,65 %
10.05.2026 18:06 24,6 °C 28,3 °C 43 % 21 % 1006,9 hPa 0,0 l/m² 11,3 km/h (2 Bft) N 360 ° 0,000 mm 11,2 °C 24,6 °C 17,7 km/h (3 Bft) 91,30 %
10.05.2026 18:05 24,7 °C 28,3 °C 43 % 21 % 1006,9 hPa 0,0 l/m² 9,7 km/h (2 Bft) N 360 ° 0,000 mm 11,3 °C 24,7 °C 16,1 km/h (3 Bft) 100,00 %
10.05.2026 18:04 24,7 °C 28,3 °C 43 % 21 % 1006,9 hPa 0,0 l/m² 6,4 km/h (2 Bft) N 360 ° 0,000 mm 11,3 °C 24,7 °C 12,9 km/h (3 Bft) 95,65 %
10.05.2026 18:03 24,8 °C 28,3 °C 43 % 21 % 1006,9 hPa 0,0 l/m² 11,3 km/h (2 Bft) N 360 ° 0,000 mm 11,4 °C 24,8 °C 20,9 km/h (4 Bft) 95,65 %
10.05.2026 18:02 24,8 °C 28,3 °C 43 % 21 % 1007,0 hPa 0,0 l/m² 12,9 km/h (3 Bft) N 360 ° 0,000 mm 11,4 °C 24,8 °C 19,3 km/h (3 Bft) 91,30 %
10.05.2026 18:01 24,8 °C 28,3 °C 44 % 20 % 1006,9 hPa 0,0 l/m² 14,5 km/h (3 Bft) N 360 ° 0,000 mm 11,7 °C 24,8 °C 24,1 km/h (4 Bft) 100,00 %
10.05.2026 18:00 24,9 °C 28,3 °C 44 % 20 % 1006,9 hPa 0,0 l/m² 9,7 km/h (2 Bft) N 360 ° 0,000 mm 11,8 °C 24,9 °C 19,3 km/h (3 Bft) 95,65 %
10.05.2026 17:59 24,9 °C 28,9 °C 43 % 20 % 1007,0 hPa 0,0 l/m² 4,8 km/h (1 Bft) N 360 ° 0,000 mm 11,4 °C 24,9 °C 8,0 km/h (2 Bft) 95,65 %
10.05.2026 17:58 24,9 °C 28,9 °C 43 % 20 % 1007,0 hPa 0,0 l/m² 11,3 km/h (2 Bft) N 360 ° 0,000 mm 11,4 °C 24,9 °C 16,1 km/h (3 Bft) 100,00 %
10.05.2026 17:57 25,0 °C 28,9 °C 42 % 19 % 1007,0 hPa 0,0 l/m² 12,9 km/h (3 Bft) N 360 ° 0,000 mm 11,2 °C 25,0 °C 19,3 km/h (3 Bft) 95,65 %
10.05.2026 17:56 25,0 °C 28,9 °C 42 % 20 % 1007,0 hPa 0,0 l/m² 14,5 km/h (3 Bft) N 360 ° 0,000 mm 11,2 °C 25,0 °C 17,7 km/h (3 Bft) 95,65 %
10.05.2026 17:55 25,1 °C 28,9 °C 43 % 20 % 1007,0 hPa 0,0 l/m² 14,5 km/h (3 Bft) N 360 ° 0,000 mm 11,6 °C 25,1 °C 22,5 km/h (4 Bft) 91,30 %
10.05.2026 17:54 25,0 °C 28,9 °C 43 % 20 % 1007,0 hPa 0,0 l/m² 11,3 km/h (2 Bft) N 360 ° 0,000 mm 11,5 °C 25,0 °C 17,7 km/h (3 Bft) 100,00 %
10.05.2026 17:53 25,1 °C 28,9 °C 42 % 20 % 1007,0 hPa 0,0 l/m² 12,9 km/h (3 Bft) N 360 ° 0,000 mm 11,3 °C 25,1 °C 19,3 km/h (3 Bft) 91,30 %
10.05.2026 17:52 25,1 °C 28,9 °C 43 % 20 % 1007,0 hPa 0,0 l/m² 11,3 km/h (2 Bft) N 360 ° 0,000 mm 11,6 °C 25,1 °C 19,3 km/h (3 Bft) 95,65 %
10.05.2026 17:51 25,1 °C 29,4 °C 43 % 20 % 1007,0 hPa 0,0 l/m² 14,5 km/h (3 Bft) N 360 ° 0,000 mm 11,6 °C 25,1 °C 20,9 km/h (4 Bft) 91,30 %
10.05.2026 17:50 25,2 °C 29,4 °C 42 % 20 % 1007,1 hPa 0,0 l/m² 9,7 km/h (2 Bft) N 360 ° 0,000 mm 11,4 °C 25,2 °C 20,9 km/h (4 Bft) 91,30 %
10.05.2026 17:49 25,2 °C 29,4 °C 43 % 20 % 1007,1 hPa 0,0 l/m² 9,7 km/h (2 Bft) N 360 ° 0,000 mm 11,7 °C 25,2 °C 14,5 km/h (3 Bft) 100,00 %
10.05.2026 17:48 25,2 °C 29,4 °C 43 % 19 % 1007,1 hPa 0,0 l/m² 8,0 km/h (2 Bft) N 360 ° 0,000 mm 11,7 °C 25,2 °C 12,9 km/h (3 Bft) 91,30 %
10.05.2026 17:47 25,2 °C 29,4 °C 43 % 19 % 1007,1 hPa 0,0 l/m² 6,4 km/h (2 Bft) N 360 ° 0,000 mm 11,7 °C 25,2 °C 12,9 km/h (3 Bft) 100,00 %
10.05.2026 17:46 25,2 °C 29,4 °C 41 % 19 % 1007,1 hPa 0,0 l/m² 8,0 km/h (2 Bft) N 360 ° 0,000 mm 11,0 °C 25,2 °C 12,9 km/h (3 Bft) 95,65 %
10.05.2026 17:45 25,2 °C 29,4 °C 42 % 18 % 1007,1 hPa 0,0 l/m² 6,4 km/h (2 Bft) N 360 ° 0,000 mm 11,4 °C 25,2 °C 9,7 km/h (2 Bft) 100,00 %
10.05.2026 17:44 25,1 °C 29,4 °C 42 % 18 % 1007,2 hPa 0,0 l/m² 6,4 km/h (2 Bft) N 360 ° 0,000 mm 11,3 °C 25,1 °C 12,9 km/h (3 Bft) 91,30 %
10.05.2026 17:43 25,2 °C 29,4 °C 42 % 18 % 1007,1 hPa 0,0 l/m² 11,3 km/h (2 Bft) N 360 ° 0,000 mm 11,4 °C 25,2 °C 17,7 km/h (3 Bft) 95,65 %
10.05.2026 17:42 25,1 °C 29,4 °C 43 % 18 % 1007,2 hPa 0,0 l/m² 9,7 km/h (2 Bft) N 360 ° 0,000 mm 11,6 °C 25,1 °C 14,5 km/h (3 Bft) 95,65 %
10.05.2026 17:41 25,1 °C 29,4 °C 41 % 18 % 1007,2 hPa 0,0 l/m² 12,9 km/h (3 Bft) N 360 ° 0,000 mm 10,9 °C 25,1 °C 19,3 km/h (3 Bft) 91,30 %
10.05.2026 17:40 25,2 °C 30,0 °C 41 % 18 % 1007,2 hPa 0,0 l/m² 11,3 km/h (2 Bft) N 360 ° 0,000 mm 11,0 °C 25,2 °C 16,1 km/h (3 Bft) 95,65 %
10.05.2026 17:39 25,2 °C 30,0 °C 41 % 18 % 1007,2 hPa 0,0 l/m² 16,1 km/h (3 Bft) N 360 ° 0,000 mm 11,0 °C 25,2 °C 22,5 km/h (4 Bft) 95,65 %
10.05.2026 17:38 25,2 °C 30,0 °C 41 % 19 % 1007,3 hPa 0,0 l/m² 12,9 km/h (3 Bft) N 360 ° 0,000 mm 11,0 °C 25,2 °C 22,5 km/h (4 Bft) 100,00 %
10.05.2026 17:37 25,3 °C 30,0 °C 42 % 19 % 1007,2 hPa 0,0 l/m² 11,3 km/h (2 Bft) N 360 ° 0,000 mm 11,5 °C 25,3 °C 19,3 km/h (3 Bft) 95,65 %
10.05.2026 17:36 25,3 °C 30,0 °C 42 % 18 % 1007,3 hPa 0,0 l/m² 9,7 km/h (2 Bft) N 360 ° 0,000 mm 11,5 °C 25,3 °C 14,5 km/h (3 Bft) 100,00 %
10.05.2026 17:35 25,3 °C 30,0 °C 43 % 18 % 1007,2 hPa 0,0 l/m² 14,5 km/h (3 Bft) N 360 ° 0,000 mm 11,8 °C 25,3 °C 19,3 km/h (3 Bft) 95,65 %
10.05.2026 17:34 25,3 °C 30,0 °C 43 % 18 % 1007,2 hPa 0,0 l/m² 12,9 km/h (3 Bft) N 360 ° 0,000 mm 11,8 °C 25,3 °C 19,3 km/h (3 Bft) 95,65 %
10.05.2026 17:33 25,3 °C 30,0 °C 42 % 19 % 1007,3 hPa 0,0 l/m² 9,7 km/h (2 Bft) N 360 ° 0,000 mm 11,5 °C 25,3 °C 14,5 km/h (3 Bft) 95,65 %
10.05.2026 17:32 25,2 °C 30,0 °C 42 % 19 % 1007,3 hPa 0,0 l/m² 8,0 km/h (2 Bft) N 360 ° 0,000 mm 11,4 °C 25,2 °C 14,5 km/h (3 Bft) 91,30 %
10.05.2026 17:31 25,3 °C 30,0 °C 42 % 18 % 1007,3 hPa 0,0 l/m² 9,7 km/h (2 Bft) N 360 ° 0,000 mm 11,5 °C 25,3 °C 14,5 km/h (3 Bft) 100,00 %
10.05.2026 17:30 25,3 °C 30,0 °C 41 % 18 % 1007,3 hPa 0,0 l/m² 8,0 km/h (2 Bft) N 360 ° 0,000 mm 11,1 °C 25,3 °C 14,5 km/h (3 Bft) 100,00 %
10.05.2026 17:29 25,4 °C 30,0 °C 41 % 18 % 1007,3 hPa 0,0 l/m² 9,7 km/h (2 Bft) N 360 ° 0,000 mm 11,2 °C 25,4 °C 14,5 km/h (3 Bft) 100,00 %
10.05.2026 17:28 25,6 °C 30,0 °C 41 % 18 % 1007,4 hPa 0,0 l/m² 9,7 km/h (2 Bft) N 360 ° 0,000 mm 11,4 °C 25,6 °C 17,7 km/h (3 Bft) 100,00 %
10.05.2026 17:27 25,7 °C 30,0 °C 41 % 18 % 1007,3 hPa 0,0 l/m² 9,7 km/h (2 Bft) N 360 ° 0,000 mm 11,4 °C 25,7 °C 16,1 km/h (3 Bft) 95,65 %
10.05.2026 17:26 25,8 °C 30,0 °C 41 % 18 % 1007,5 hPa 0,0 l/m² 11,3 km/h (2 Bft) N 360 ° 0,000 mm 11,5 °C 25,8 °C 16,1 km/h (3 Bft) 100,00 %
10.05.2026 17:25 25,8 °C 30,0 °C 42 % 17 % 1007,3 hPa 0,0 l/m² 9,7 km/h (2 Bft) N 360 ° 0,000 mm 11,9 °C 25,8 °C 14,5 km/h (3 Bft) 100,00 %
10.05.2026 17:24 25,7 °C 30,0 °C 40 % 17 % 1007,3 hPa 0,0 l/m² 9,7 km/h (2 Bft) N 360 ° 0,000 mm 11,1 °C 25,7 °C 14,5 km/h (3 Bft) 100,00 %
10.05.2026 17:23 25,7 °C 30,0 °C 41 % 17 % 1007,5 hPa 0,0 l/m² 11,3 km/h (2 Bft) N 360 ° 0,000 mm 11,4 °C 25,7 °C 16,1 km/h (3 Bft) 100,00 %
10.05.2026 17:22 25,6 °C 30,0 °C 40 % 18 % 1007,5 hPa 0,0 l/m² 11,3 km/h (2 Bft) N 360 ° 0,000 mm 11,0 °C 25,6 °C 17,7 km/h (3 Bft) 100,00 %
10.05.2026 17:21 25,6 °C 30,0 °C 41 % 17 % 1007,4 hPa 0,0 l/m² 12,9 km/h (3 Bft) N 360 ° 0,000 mm 11,4 °C 25,6 °C 20,9 km/h (4 Bft) 95,65 %
10.05.2026 17:20 25,6 °C 30,0 °C 40 % 17 % 1007,4 hPa 0,0 l/m² 8,0 km/h (2 Bft) N 360 ° 0,000 mm 11,0 °C 25,6 °C 16,1 km/h (3 Bft) 91,30 %
10.05.2026 17:19 25,6 °C 30,0 °C 41 % 17 % 1007,4 hPa 0,0 l/m² 11,3 km/h (2 Bft) N 360 ° 0,000 mm 11,4 °C 25,6 °C 19,3 km/h (3 Bft) 100,00 %
10.05.2026 17:18 25,6 °C 30,0 °C 41 % 17 % 1007,4 hPa 0,0 l/m² 12,9 km/h (3 Bft) N 360 ° 0,000 mm 11,4 °C 25,6 °C 17,7 km/h (3 Bft) 100,00 %
10.05.2026 17:17 25,7 °C 30,0 °C 41 % 18 % 1007,4 hPa 0,0 l/m² 14,5 km/h (3 Bft) N 360 ° 0,000 mm 11,4 °C 25,7 °C 17,7 km/h (3 Bft) 100,00 %
10.05.2026 17:16 25,7 °C 30,6 °C 41 % 18 % 1007,6 hPa 0,0 l/m² 12,9 km/h (3 Bft) N 360 ° 0,000 mm 11,4 °C 25,7 °C 20,9 km/h (4 Bft) 100,00 %
10.05.2026 17:15 25,8 °C 30,6 °C 41 % 18 % 1007,5 hPa 0,0 l/m² 12,9 km/h (3 Bft) N 360 ° 0,000 mm 11,5 °C 25,8 °C 17,7 km/h (3 Bft) 95,65 %
10.05.2026 17:14 25,8 °C 30,6 °C 41 % 18 % 1007,5 hPa 0,0 l/m² 8,0 km/h (2 Bft) N 360 ° 0,000 mm 11,5 °C 25,8 °C 12,9 km/h (3 Bft) 100,00 %
10.05.2026 17:13 25,8 °C 30,6 °C 42 % 18 % 1007,6 hPa 0,0 l/m² 8,0 km/h (2 Bft) N 360 ° 0,000 mm 11,9 °C 25,8 °C 14,5 km/h (3 Bft) 95,65 %
10.05.2026 17:12 25,7 °C 30,6 °C 42 % 18 % 1007,6 hPa 0,0 l/m² 9,7 km/h (2 Bft) N 360 ° 0,000 mm 11,8 °C 25,7 °C 12,9 km/h (3 Bft) 100,00 %
10.05.2026 17:11 25,7 °C 30,6 °C 42 % 17 % 1007,6 hPa 0,0 l/m² 9,7 km/h (2 Bft) N 360 ° 0,000 mm 11,8 °C 25,7 °C 16,1 km/h (3 Bft) 100,00 %
10.05.2026 17:10 25,7 °C 30,6 °C 42 % 18 % 1007,6 hPa 0,0 l/m² 9,7 km/h (2 Bft) N 360 ° 0,000 mm 11,8 °C 25,7 °C 16,1 km/h (3 Bft) 100,00 %
10.05.2026 17:09 25,6 °C 30,6 °C 41 % 18 % 1007,6 hPa 0,0 l/m² 11,3 km/h (2 Bft) N 360 ° 0,000 mm 11,4 °C 25,6 °C 16,1 km/h (3 Bft) 100,00 %
10.05.2026 17:08 25,6 °C 30,6 °C 41 % 18 % 1007,7 hPa 0,0 l/m² 11,3 km/h (2 Bft) N 360 ° 0,000 mm 11,4 °C 25,6 °C 17,7 km/h (3 Bft) 100,00 %
10.05.2026 17:07 25,6 °C 30,6 °C 42 % 18 % 1007,7 hPa 0,0 l/m² 8,0 km/h (2 Bft) N 360 ° 0,000 mm 11,7 °C 25,6 °C 12,9 km/h (3 Bft) 100,00 %
10.05.2026 17:06 25,5 °C 30,6 °C 43 % 18 % 1007,7 hPa 0,0 l/m² 6,4 km/h (2 Bft) N 360 ° 0,000 mm 12,0 °C 25,5 °C 12,9 km/h (3 Bft) 95,65 %
10.05.2026 17:05 25,5 °C 30,6 °C 41 % 18 % 1007,7 hPa 0,0 l/m² 9,7 km/h (2 Bft) N 360 ° 0,000 mm 11,3 °C 25,5 °C 14,5 km/h (3 Bft) 100,00 %
10.05.2026 17:04 25,5 °C 30,6 °C 41 % 17 % 1007,7 hPa 0,0 l/m² 8,0 km/h (2 Bft) N 360 ° 0,000 mm 11,3 °C 25,5 °C 14,5 km/h (3 Bft) 95,65 %
10.05.2026 17:03 25,6 °C 30,6 °C 40 % 17 % 1007,8 hPa 0,0 l/m² 9,7 km/h (2 Bft) N 360 ° 0,000 mm 11,0 °C 25,6 °C 16,1 km/h (3 Bft) 100,00 %
10.05.2026 17:02 25,7 °C 30,6 °C 39 % 17 % 1007,9 hPa 0,0 l/m² 9,7 km/h (2 Bft) N 360 ° 0,000 mm 10,7 °C 25,7 °C 16,1 km/h (3 Bft) 100,00 %
10.05.2026 17:01 25,8 °C 30,6 °C 40 % 18 % 1007,9 hPa 0,0 l/m² 9,7 km/h (2 Bft) N 360 ° 0,000 mm 11,2 °C 25,8 °C 16,1 km/h (3 Bft) 95,65 %
10.05.2026 17:00 25,8 °C 30,6 °C 40 % 18 % 1007,8 hPa 0,0 l/m² 9,7 km/h (2 Bft) N 360 ° 0,000 mm 11,2 °C 25,8 °C 19,3 km/h (3 Bft) 100,00 %
10.05.2026 16:59 25,8 °C 30,6 °C 40 % 18 % 1007,8 hPa 0,0 l/m² 8,0 km/h (2 Bft) N 360 ° 0,000 mm 11,2 °C 25,8 °C 12,9 km/h (3 Bft) 95,65 %
10.05.2026 16:58 25,9 °C 30,6 °C 42 % 17 % 1007,8 hPa 0,0 l/m² 9,7 km/h (2 Bft) N 360 ° 0,000 mm 12,0 °C 25,9 °C 17,7 km/h (3 Bft) 100,00 %
10.05.2026 16:57 25,8 °C 30,6 °C 41 % 17 % 1007,9 hPa 0,0 l/m² 9,7 km/h (2 Bft) N 360 ° 0,000 mm 11,5 °C 25,8 °C 14,5 km/h (3 Bft) 100,00 %
10.05.2026 16:56 25,8 °C 30,6 °C 40 % 17 % 1007,9 hPa 0,0 l/m² 9,7 km/h (2 Bft) N 360 ° 0,000 mm 11,2 °C 25,8 °C 14,5 km/h (3 Bft) 100,00 %
10.05.2026 16:55 25,9 °C 30,6 °C 41 % 17 % 1007,9 hPa 0,0 l/m² 9,7 km/h (2 Bft) N 360 ° 0,000 mm 11,6 °C 25,9 °C 17,7 km/h (3 Bft) 100,00 %
10.05.2026 16:54 25,8 °C 30,6 °C 41 % 17 % 1007,9 hPa 0,0 l/m² 9,7 km/h (2 Bft) N 360 ° 0,000 mm 11,5 °C 25,8 °C 17,7 km/h (3 Bft) 100,00 %
10.05.2026 16:53 25,8 °C 30,6 °C 40 % 17 % 1007,9 hPa 0,0 l/m² 9,7 km/h (2 Bft) N 360 ° 0,000 mm 11,2 °C 25,8 °C 14,5 km/h (3 Bft) 100,00 %
10.05.2026 16:52 25,9 °C 30,6 °C 40 % 17 % 1008,0 hPa 0,0 l/m² 11,3 km/h (2 Bft) N 360 ° 0,000 mm 11,3 °C 25,9 °C 16,1 km/h (3 Bft) 95,65 %
10.05.2026 16:51 25,9 °C 30,6 °C 40 % 17 % 1007,9 hPa 0,0 l/m² 16,1 km/h (3 Bft) N 360 ° 0,000 mm 11,3 °C 25,9 °C 20,9 km/h (4 Bft) 100,00 %
10.05.2026 16:50 25,9 °C 30,6 °C 39 % 17 % 1007,8 hPa 0,0 l/m² 12,9 km/h (3 Bft) N 360 ° 0,000 mm 10,9 °C 25,9 °C 19,3 km/h (3 Bft) 95,65 %
10.05.2026 16:49 25,9 °C 30,6 °C 41 % 17 % 1007,9 hPa 0,0 l/m² 9,7 km/h (2 Bft) N 360 ° 0,000 mm 11,6 °C 25,9 °C 19,3 km/h (3 Bft) 100,00 %
10.05.2026 16:48 25,9 °C 30,6 °C 41 % 17 % 1007,8 hPa 0,0 l/m² 6,4 km/h (2 Bft) N 360 ° 0,000 mm 11,6 °C 25,9 °C 9,7 km/h (2 Bft) 100,00 %
10.05.2026 16:47 25,9 °C 30,6 °C 40 % 17 % 1007,9 hPa 0,0 l/m² 8,0 km/h (2 Bft) N 360 ° 0,000 mm 11,3 °C 25,9 °C 14,5 km/h (3 Bft) 95,65 %
10.05.2026 16:46 25,9 °C 30,6 °C 40 % 17 % 1008,0 hPa 0,0 l/m² 8,0 km/h (2 Bft) N 360 ° 0,000 mm 11,3 °C 25,9 °C 14,5 km/h (3 Bft) 95,65 %
10.05.2026 16:45 25,9 °C 30,6 °C 41 % 17 % 1008,0 hPa 0,0 l/m² 11,3 km/h (2 Bft) N 360 ° 0,000 mm 11,6 °C 25,9 °C 16,1 km/h (3 Bft) 95,65 %
10.05.2026 16:44 25,8 °C 30,6 °C 40 % 17 % 1007,9 hPa 0,0 l/m² 12,9 km/h (3 Bft) N 360 ° 0,000 mm 11,2 °C 25,8 °C 17,7 km/h (3 Bft) 100,00 %
10.05.2026 16:43 25,8 °C 30,6 °C 40 % 17 % 1008,0 hPa 0,0 l/m² 12,9 km/h (3 Bft) N 360 ° 0,000 mm 11,2 °C 25,8 °C 20,9 km/h (4 Bft) 95,65 %
10.05.2026 16:42 25,8 °C 30,6 °C 39 % 17 % 1008,1 hPa 0,0 l/m² 12,9 km/h (3 Bft) N 360 ° 0,000 mm 10,8 °C 25,8 °C 16,1 km/h (3 Bft) 95,65 %
10.05.2026 16:41 25,9 °C 30,6 °C 39 % 17 % 1007,9 hPa 0,0 l/m² 9,7 km/h (2 Bft) N 360 ° 0,000 mm 10,9 °C 25,9 °C 16,1 km/h (3 Bft) 95,65 %
10.05.2026 16:40 25,9 °C 30,6 °C 40 % 17 % 1007,9 hPa 0,0 l/m² 11,3 km/h (2 Bft) N 360 ° 0,000 mm 11,3 °C 25,9 °C 16,1 km/h (3 Bft) 100,00 %
10.05.2026 16:39 25,8 °C 30,6 °C 41 % 17 % 1008,0 hPa 0,0 l/m² 11,3 km/h (2 Bft) N 360 ° 0,000 mm 11,5 °C 25,8 °C 17,7 km/h (3 Bft) 100,00 %
10.05.2026 16:38 25,8 °C 30,6 °C 39 % 18 % 1008,0 hPa 0,0 l/m² 8,0 km/h (2 Bft) N 360 ° 0,000 mm 10,8 °C 25,8 °C 12,9 km/h (3 Bft) 95,65 %
10.05.2026 16:37 25,9 °C 30,6 °C 39 % 17 % 1008,0 hPa 0,0 l/m² 8,0 km/h (2 Bft) N 360 ° 0,000 mm 10,9 °C 25,9 °C 16,1 km/h (3 Bft) 100,00 %
10.05.2026 16:36 25,9 °C 30,6 °C 40 % 17 % 1008,0 hPa 0,0 l/m² 11,3 km/h (2 Bft) N 360 ° 0,000 mm 11,3 °C 25,9 °C 16,1 km/h (3 Bft) 95,65 %
10.05.2026 16:35 25,9 °C 30,6 °C 41 % 17 % 1008,0 hPa 0,0 l/m² 14,5 km/h (3 Bft) N 360 ° 0,000 mm 11,6 °C 25,9 °C 19,3 km/h (3 Bft) 100,00 %
10.05.2026 16:34 25,8 °C 30,0 °C 42 % 17 % 1008,1 hPa 0,0 l/m² 8,0 km/h (2 Bft) N 360 ° 0,000 mm 11,9 °C 25,8 °C 16,1 km/h (3 Bft) 100,00 %
10.05.2026 16:33 25,8 °C 30,0 °C 40 % 17 % 1008,0 hPa 0,0 l/m² 8,0 km/h (2 Bft) N 360 ° 0,000 mm 11,2 °C 25,8 °C 9,7 km/h (2 Bft) 95,65 %
10.05.2026 16:32 25,7 °C 30,0 °C 40 % 17 % 1008,1 hPa 0,0 l/m² 11,3 km/h (2 Bft) N 360 ° 0,000 mm 11,1 °C 25,7 °C 16,1 km/h (3 Bft) 100,00 %
10.05.2026 16:31 25,7 °C 30,0 °C 40 % 17 % 1008,1 hPa 0,0 l/m² 11,3 km/h (2 Bft) N 360 ° 0,000 mm 11,1 °C 25,7 °C 17,7 km/h (3 Bft) 91,30 %
10.05.2026 16:30 25,6 °C 30,0 °C 41 % 17 % 1008,1 hPa 0,0 l/m² 12,9 km/h (3 Bft) N 360 ° 0,000 mm 11,4 °C 25,6 °C 19,3 km/h (3 Bft) 100,00 %
10.05.2026 16:29 25,5 °C 30,0 °C 41 % 17 % 1008,1 hPa 0,0 l/m² 11,3 km/h (2 Bft) N 360 ° 0,000 mm 11,3 °C 25,5 °C 19,3 km/h (3 Bft) 100,00 %
10.05.2026 16:28 25,3 °C 30,0 °C 42 % 17 % 1008,1 hPa 0,0 l/m² 4,8 km/h (1 Bft) N 360 ° 0,000 mm 11,5 °C 25,3 °C 6,4 km/h (2 Bft) 95,65 %
10.05.2026 16:27 25,3 °C 30,0 °C 42 % 18 % 1008,2 hPa 0,0 l/m² 4,8 km/h (1 Bft) N 360 ° 0,000 mm 11,5 °C 25,3 °C 6,4 km/h (2 Bft) 91,30 %
10.05.2026 16:26 25,2 °C 30,0 °C 40 % 17 % 1008,1 hPa 0,0 l/m² 6,4 km/h (2 Bft) N 360 ° 0,000 mm 10,6 °C 25,2 °C 8,0 km/h (2 Bft) 100,00 %
10.05.2026 16:25 25,4 °C 30,0 °C 40 % 17 % 1008,2 hPa 0,0 l/m² 8,0 km/h (2 Bft) N 360 ° 0,000 mm 10,8 °C 25,4 °C 12,9 km/h (3 Bft) 100,00 %
10.05.2026 16:24 25,5 °C 30,0 °C 40 % 17 % 1008,3 hPa 0,0 l/m² 9,7 km/h (2 Bft) N 360 ° 0,000 mm 10,9 °C 25,5 °C 14,5 km/h (3 Bft) 95,65 %
10.05.2026 16:23 25,5 °C 30,0 °C 41 % 17 % 1008,2 hPa 0,0 l/m² 11,3 km/h (2 Bft) N 360 ° 0,000 mm 11,3 °C 25,5 °C 17,7 km/h (3 Bft) 95,65 %
10.05.2026 16:22 25,4 °C 30,0 °C 39 % 17 % 1008,2 hPa 0,0 l/m² 11,3 km/h (2 Bft) N 360 ° 0,000 mm 10,4 °C 25,4 °C 17,7 km/h (3 Bft) 95,65 %
10.05.2026 16:21 25,6 °C 30,0 °C 40 % 18 % 1008,3 hPa 0,0 l/m² 11,3 km/h (2 Bft) N 360 ° 0,000 mm 11,0 °C 25,6 °C 17,7 km/h (3 Bft) 100,00 %
10.05.2026 16:20 25,6 °C 30,0 °C 39 % 17 % 1008,3 hPa 0,0 l/m² 6,4 km/h (2 Bft) N 360 ° 0,000 mm 10,6 °C 25,6 °C 14,5 km/h (3 Bft) 100,00 %
10.05.2026 16:19 25,5 °C 30,0 °C 40 % 18 % 1008,3 hPa 0,0 l/m² 16,1 km/h (3 Bft) N 360 ° 0,000 mm 10,9 °C 25,5 °C 19,3 km/h (3 Bft) 100,00 %
10.05.2026 16:18 25,6 °C 30,0 °C 42 % 18 % 1008,4 hPa 0,0 l/m² 9,7 km/h (2 Bft) N 360 ° 0,000 mm 11,7 °C 25,6 °C 14,5 km/h (3 Bft) 91,30 %
10.05.2026 16:17 25,6 °C 30,6 °C 42 % 18 % 1008,3 hPa 0,0 l/m² 9,7 km/h (2 Bft) N 360 ° 0,000 mm 11,7 °C 25,6 °C 17,7 km/h (3 Bft) 95,65 %
10.05.2026 16:16 25,5 °C 30,0 °C 43 % 17 % 1008,4 hPa 0,0 l/m² 9,7 km/h (2 Bft) N 360 ° 0,000 mm 12,0 °C 25,5 °C 14,5 km/h (3 Bft) 95,65 %
10.05.2026 16:15 25,3 °C 30,0 °C 42 % 17 % 1008,4 hPa 0,0 l/m² 12,9 km/h (3 Bft) N 360 ° 0,000 mm 11,5 °C 25,3 °C 17,7 km/h (3 Bft) 95,65 %
10.05.2026 16:14 25,2 °C 30,0 °C 42 % 18 % 1008,4 hPa 0,0 l/m² 11,3 km/h (2 Bft) N 360 ° 0,000 mm 11,4 °C 25,2 °C 16,1 km/h (3 Bft) 95,65 %
10.05.2026 16:13 25,2 °C 30,6 °C 41 % 18 % 1008,4 hPa 0,0 l/m² 8,0 km/h (2 Bft) N 360 ° 0,000 mm 11,0 °C 25,2 °C 9,7 km/h (2 Bft) 95,65 %
10.05.2026 16:12 25,3 °C 30,6 °C 42 % 18 % 1008,4 hPa 0,0 l/m² 9,7 km/h (2 Bft) N 360 ° 0,000 mm 11,5 °C 25,3 °C 16,1 km/h (3 Bft) 100,00 %
10.05.2026 16:11 25,3 °C 30,0 °C 41 % 18 % 1008,4 hPa 0,0 l/m² 8,0 km/h (2 Bft) N 360 ° 0,000 mm 11,1 °C 25,3 °C 12,9 km/h (3 Bft) 95,65 %
10.05.2026 16:10 25,3 °C 30,0 °C 43 % 17 % 1008,4 hPa 0,0 l/m² 11,3 km/h (2 Bft) N 360 ° 0,000 mm 11,8 °C 25,3 °C 20,9 km/h (4 Bft) 91,30 %
10.05.2026 16:09 25,2 °C 30,6 °C 42 % 17 % 1008,4 hPa 0,0 l/m² 12,9 km/h (3 Bft) N 360 ° 0,000 mm 11,4 °C 25,2 °C 17,7 km/h (3 Bft) 95,65 %
10.05.2026 16:08 25,1 °C 30,6 °C 42 % 18 % 1008,4 hPa 0,0 l/m² 8,0 km/h (2 Bft) N 360 ° 0,000 mm 11,3 °C 25,1 °C 14,5 km/h (3 Bft) 100,00 %
10.05.2026 16:07 25,1 °C 30,6 °C 41 % 18 % 1008,5 hPa 0,0 l/m² 8,0 km/h (2 Bft) N 360 ° 0,000 mm 10,9 °C 25,1 °C 14,5 km/h (3 Bft) 91,30 %
10.05.2026 16:06 25,3 °C 30,6 °C 41 % 18 % 1008,5 hPa 0,0 l/m² 11,3 km/h (2 Bft) N 360 ° 0,000 mm 11,1 °C 25,3 °C 16,1 km/h (3 Bft) 100,00 %
10.05.2026 16:05 25,4 °C 30,6 °C 40 % 17 % 1008,5 hPa 0,0 l/m² 9,7 km/h (2 Bft) N 360 ° 0,000 mm 10,8 °C 25,4 °C 16,1 km/h (3 Bft) 95,65 %
10.05.2026 16:04 25,5 °C 30,6 °C 41 % 17 % 1008,5 hPa 0,0 l/m² 12,9 km/h (3 Bft) N 360 ° 0,000 mm 11,3 °C 25,5 °C 19,3 km/h (3 Bft) 95,65 %
10.05.2026 16:03 25,5 °C 30,6 °C 41 % 17 % 1008,6 hPa 0,0 l/m² 12,9 km/h (3 Bft) N 360 ° 0,000 mm 11,3 °C 25,5 °C 20,9 km/h (4 Bft) 95,65 %
10.05.2026 16:02 25,3 °C 30,6 °C 42 % 18 % 1008,4 hPa 0,0 l/m² 12,9 km/h (3 Bft) N 360 ° 0,000 mm 11,5 °C 25,3 °C 17,7 km/h (3 Bft) 95,65 %
10.05.2026 16:01 25,3 °C 30,6 °C 42 % 18 % 1008,6 hPa 0,0 l/m² 8,0 km/h (2 Bft) N 360 ° 0,000 mm 11,5 °C 25,3 °C 12,9 km/h (3 Bft) 100,00 %
10.05.2026 16:00 25,2 °C 30,6 °C 43 % 18 % 1008,5 hPa 0,0 l/m² 3,2 km/h (1 Bft) N 360 ° 0,000 mm 11,7 °C 25,2 °C 4,8 km/h (1 Bft) 95,65 %
10.05.2026 15:59 25,1 °C 30,6 °C 41 % 18 % 1008,6 hPa 0,0 l/m² 6,4 km/h (2 Bft) N 360 ° 0,000 mm 10,9 °C 25,1 °C 9,7 km/h (2 Bft) 95,65 %
10.05.2026 15:58 25,2 °C 30,6 °C 41 % 17 % 1008,7 hPa 0,0 l/m² 9,7 km/h (2 Bft) N 360 ° 0,000 mm 11,0 °C 25,2 °C 17,7 km/h (3 Bft) 91,30 %
10.05.2026 15:57 25,2 °C 30,6 °C 41 % 17 % 1008,7 hPa 0,0 l/m² 11,3 km/h (2 Bft) N 360 ° 0,000 mm 11,0 °C 25,2 °C 17,7 km/h (3 Bft) 95,65 %
10.05.2026 15:56 25,3 °C 30,6 °C 41 % 18 % 1008,5 hPa 0,0 l/m² 16,1 km/h (3 Bft) N 360 ° 0,000 mm 11,1 °C 25,3 °C 20,9 km/h (4 Bft) 100,00 %
10.05.2026 15:55 25,2 °C 30,6 °C 41 % 18 % 1008,7 hPa 0,0 l/m² 6,4 km/h (2 Bft) N 360 ° 0,000 mm 11,0 °C 25,2 °C 9,7 km/h (2 Bft) 91,30 %
10.05.2026 15:54 25,2 °C 30,6 °C 40 % 17 % 1008,7 hPa 0,0 l/m² 9,7 km/h (2 Bft) N 360 ° 0,000 mm 10,6 °C 25,2 °C 14,5 km/h (3 Bft) 95,65 %
10.05.2026 15:53 25,3 °C 30,6 °C 39 % 17 % 1008,7 hPa 0,0 l/m² 8,0 km/h (2 Bft) N 360 ° 0,000 mm 10,3 °C 25,3 °C 12,9 km/h (3 Bft) 91,30 %
10.05.2026 15:52 25,4 °C 30,0 °C 41 % 17 % 1008,7 hPa 0,0 l/m² 12,9 km/h (3 Bft) N 360 ° 0,000 mm 11,2 °C 25,4 °C 19,3 km/h (3 Bft) 100,00 %
10.05.2026 15:51 25,4 °C 30,0 °C 40 % 17 % 1008,7 hPa 0,0 l/m² 9,7 km/h (2 Bft) N 360 ° 0,000 mm 10,8 °C 25,4 °C 14,5 km/h (3 Bft) 95,65 %
10.05.2026 15:50 25,4 °C 30,0 °C 40 % 17 % 1008,8 hPa 0,0 l/m² 11,3 km/h (2 Bft) N 360 ° 0,000 mm 10,8 °C 25,4 °C 17,7 km/h (3 Bft) 100,00 %
10.05.2026 15:49 25,4 °C 30,0 °C 41 % 17 % 1008,8 hPa 0,0 l/m² 9,7 km/h (2 Bft) N 360 ° 0,000 mm 11,2 °C 25,4 °C 20,9 km/h (4 Bft) 91,30 %
10.05.2026 15:48 25,3 °C 30,0 °C 43 % 17 % 1008,8 hPa 0,0 l/m² 11,3 km/h (2 Bft) N 360 ° 0,000 mm 11,8 °C 25,3 °C 17,7 km/h (3 Bft) 91,30 %
10.05.2026 15:47 25,1 °C 30,0 °C 42 % 17 % 1008,8 hPa 0,0 l/m² 6,4 km/h (2 Bft) N 360 ° 0,000 mm 11,3 °C 25,1 °C 12,9 km/h (3 Bft) 100,00 %
10.05.2026 15:46 24,9 °C 30,0 °C 40 % 18 % 1008,8 hPa 0,0 l/m² 8,0 km/h (2 Bft) N 360 ° 0,000 mm 10,4 °C 24,9 °C 9,7 km/h (2 Bft) 100,00 %
10.05.2026 15:45 24,9 °C 30,0 °C 41 % 17 % 1008,8 hPa 0,0 l/m² 6,4 km/h (2 Bft) N 360 ° 0,000 mm 10,7 °C 24,9 °C 8,0 km/h (2 Bft) 100,00 %
10.05.2026 15:44 24,9 °C 30,0 °C 41 % 17 % 1008,9 hPa 0,0 l/m² 9,7 km/h (2 Bft) N 360 ° 0,000 mm 10,7 °C 24,9 °C 14,5 km/h (3 Bft) 100,00 %
10.05.2026 15:43 25,0 °C 30,0 °C 43 % 17 % 1008,8 hPa 0,0 l/m² 14,5 km/h (3 Bft) N 360 ° 0,000 mm 11,5 °C 25,0 °C 19,3 km/h (3 Bft) 100,00 %
10.05.2026 15:42 24,9 °C 30,0 °C 41 % 17 % 1008,9 hPa 0,0 l/m² 12,9 km/h (3 Bft) N 360 ° 0,000 mm 10,7 °C 24,9 °C 20,9 km/h (4 Bft) 100,00 %
10.05.2026 15:41 24,8 °C 30,0 °C 43 % 17 % 1008,9 hPa 0,0 l/m² 14,5 km/h (3 Bft) N 360 ° 0,000 mm 11,4 °C 24,8 °C 20,9 km/h (4 Bft) 95,65 %
10.05.2026 15:40 24,8 °C 30,0 °C 43 % 18 % 1008,9 hPa 0,0 l/m² 8,0 km/h (2 Bft) N 360 ° 0,000 mm 11,4 °C 24,8 °C 12,9 km/h (3 Bft) 100,00 %
10.05.2026 15:39 24,8 °C 30,0 °C 40 % 18 % 1009,0 hPa 0,0 l/m² 11,3 km/h (2 Bft) N 360 ° 0,000 mm 10,3 °C 24,8 °C 20,9 km/h (4 Bft) 95,65 %
10.05.2026 15:38 24,9 °C 30,0 °C 41 % 17 % 1009,0 hPa 0,0 l/m² 9,7 km/h (2 Bft) N 360 ° 0,000 mm 10,7 °C 24,9 °C 17,7 km/h (3 Bft) 100,00 %
10.05.2026 15:37 24,9 °C 30,0 °C 41 % 17 % 1009,0 hPa 0,0 l/m² 8,0 km/h (2 Bft) N 360 ° 0,000 mm 10,7 °C 24,9 °C 9,7 km/h (2 Bft) 91,30 %
10.05.2026 15:36 24,9 °C 30,0 °C 41 % 18 % 1009,1 hPa 0,0 l/m² 8,0 km/h (2 Bft) N 360 ° 0,000 mm 10,7 °C 24,9 °C 14,5 km/h (3 Bft) 100,00 %
10.05.2026 15:35 24,9 °C 30,0 °C 41 % 17 % 1009,0 hPa 0,0 l/m² 11,3 km/h (2 Bft) N 360 ° 0,000 mm 10,7 °C 24,9 °C 17,7 km/h (3 Bft) 100,00 %
10.05.2026 15:34 25,1 °C 30,0 °C 41 % 18 % 1009,0 hPa 0,0 l/m² 11,3 km/h (2 Bft) N 360 ° 0,000 mm 10,9 °C 25,1 °C 17,7 km/h (3 Bft) 95,65 %
10.05.2026 15:33 25,1 °C 30,0 °C 41 % 18 % 1009,1 hPa 0,0 l/m² 16,1 km/h (3 Bft) N 360 ° 0,000 mm 10,9 °C 25,1 °C 22,5 km/h (4 Bft) 100,00 %
10.05.2026 15:32 25,3 °C 30,0 °C 40 % 18 % 1009,1 hPa 0,0 l/m² 14,5 km/h (3 Bft) N 360 ° 0,000 mm 10,7 °C 25,3 °C 20,9 km/h (4 Bft) 95,65 %
10.05.2026 15:31 25,3 °C 30,0 °C 41 % 18 % 1009,1 hPa 0,0 l/m² 14,5 km/h (3 Bft) N 360 ° 0,000 mm 11,1 °C 25,3 °C 19,3 km/h (3 Bft) 100,00 %
10.05.2026 15:30 25,2 °C 30,0 °C 41 % 18 % 1009,0 hPa 0,0 l/m² 12,9 km/h (3 Bft) N 360 ° 0,000 mm 11,0 °C 25,2 °C 17,7 km/h (3 Bft) 100,00 %
10.05.2026 15:29 25,2 °C 30,0 °C 41 % 18 % 1009,1 hPa 0,0 l/m² 9,7 km/h (2 Bft) N 360 ° 0,000 mm 11,0 °C 25,2 °C 17,7 km/h (3 Bft) 100,00 %
10.05.2026 15:28 25,2 °C 30,0 °C 41 % 18 % 1009,2 hPa 0,0 l/m² 14,5 km/h (3 Bft) N 360 ° 0,000 mm 11,0 °C 25,2 °C 20,9 km/h (4 Bft) 95,65 %
10.05.2026 15:27 25,2 °C 30,0 °C 42 % 18 % 1009,2 hPa 0,0 l/m² 8,0 km/h (2 Bft) N 360 ° 0,000 mm 11,4 °C 25,2 °C 17,7 km/h (3 Bft) 95,65 %
10.05.2026 15:26 25,3 °C 29,4 °C 41 % 19 % 1009,3 hPa 0,0 l/m² 11,3 km/h (2 Bft) N 360 ° 0,000 mm 11,1 °C 25,3 °C 17,7 km/h (3 Bft) 100,00 %
10.05.2026 15:25 25,3 °C 29,4 °C 41 % 18 % 1009,1 hPa 0,0 l/m² 9,7 km/h (2 Bft) N 360 ° 0,000 mm 11,1 °C 25,3 °C 12,9 km/h (3 Bft) 100,00 %
10.05.2026 15:24 25,3 °C 29,4 °C 42 % 18 % 1009,1 hPa 0,0 l/m² 6,4 km/h (2 Bft) N 360 ° 0,000 mm 11,5 °C 25,3 °C 17,7 km/h (3 Bft) 95,65 %
10.05.2026 15:23 25,1 °C 29,4 °C 41 % 18 % 1009,2 hPa 0,0 l/m² 9,7 km/h (2 Bft) N 360 ° 0,000 mm 10,9 °C 25,1 °C 16,1 km/h (3 Bft) 100,00 %
10.05.2026 15:22 25,1 °C 29,4 °C 43 % 18 % 1009,2 hPa 0,0 l/m² 12,9 km/h (3 Bft) N 360 ° 0,000 mm 11,6 °C 25,1 °C 17,7 km/h (3 Bft) 100,00 %
10.05.2026 15:21 24,9 °C 29,4 °C 42 % 18 % 1009,3 hPa 0,0 l/m² 9,7 km/h (2 Bft) N 360 ° 0,000 mm 11,1 °C 24,9 °C 16,1 km/h (3 Bft) 95,65 %
10.05.2026 15:20 25,0 °C 29,4 °C 42 % 18 % 1009,3 hPa 0,0 l/m² 12,9 km/h (3 Bft) N 360 ° 0,000 mm 11,2 °C 25,0 °C 17,7 km/h (3 Bft) 95,65 %
10.05.2026 15:19 24,9 °C 29,4 °C 43 % 18 % 1009,3 hPa 0,0 l/m² 8,0 km/h (2 Bft) N 360 ° 0,000 mm 11,4 °C 24,9 °C 16,1 km/h (3 Bft) 100,00 %
10.05.2026 15:18 24,9 °C 29,4 °C 43 % 18 % 1009,3 hPa 0,0 l/m² 11,3 km/h (2 Bft) N 360 ° 0,000 mm 11,4 °C 24,9 °C 16,1 km/h (3 Bft) 95,65 %
10.05.2026 15:17 24,8 °C 29,4 °C 41 % 18 % 1009,3 hPa 0,0 l/m² 9,7 km/h (2 Bft) N 360 ° 0,000 mm 10,6 °C 24,8 °C 16,1 km/h (3 Bft) 100,00 %
10.05.2026 15:16 24,8 °C 29,4 °C 44 % 19 % 1009,3 hPa 0,0 l/m² 12,9 km/h (3 Bft) N 360 ° 0,000 mm 11,7 °C 24,8 °C 20,9 km/h (4 Bft) 95,65 %
10.05.2026 15:15 24,8 °C 29,4 °C 42 % 18 % 1009,3 hPa 0,0 l/m² 12,9 km/h (3 Bft) N 360 ° 0,000 mm 11,0 °C 24,8 °C 17,7 km/h (3 Bft) 100,00 %
10.05.2026 15:14 24,7 °C 29,4 °C 42 % 19 % 1009,3 hPa 0,0 l/m² 11,3 km/h (2 Bft) N 360 ° 0,000 mm 10,9 °C 24,7 °C 17,7 km/h (3 Bft) 100,00 %
10.05.2026 15:13 24,5 °C 29,4 °C 44 % 19 % 1009,4 hPa 0,0 l/m² 9,7 km/h (2 Bft) N 360 ° 0,000 mm 11,4 °C 24,5 °C 17,7 km/h (3 Bft) 95,65 %
10.05.2026 15:12 24,3 °C 29,4 °C 44 % 18 % 1009,5 hPa 0,0 l/m² 6,4 km/h (2 Bft) N 360 ° 0,000 mm 11,3 °C 24,3 °C 14,5 km/h (3 Bft) 100,00 %
10.05.2026 15:11 24,2 °C 29,4 °C 44 % 18 % 1009,5 hPa 0,0 l/m² 8,0 km/h (2 Bft) N 360 ° 0,000 mm 11,2 °C 24,2 °C 14,5 km/h (3 Bft) 100,00 %
10.05.2026 15:10 24,1 °C 29,4 °C 43 % 18 % 1009,4 hPa 0,0 l/m² 8,0 km/h (2 Bft) N 360 ° 0,000 mm 10,7 °C 24,1 °C 12,9 km/h (3 Bft) 100,00 %
10.05.2026 15:09 24,2 °C 29,4 °C 44 % 18 % 1009,4 hPa 0,0 l/m² 8,0 km/h (2 Bft) N 360 ° 0,000 mm 11,2 °C 24,2 °C 16,1 km/h (3 Bft) 95,65 %
10.05.2026 15:08 24,1 °C 29,4 °C 44 % 19 % 1009,5 hPa 0,0 l/m² 11,3 km/h (2 Bft) N 360 ° 0,000 mm 11,1 °C 24,1 °C 16,1 km/h (3 Bft) 100,00 %
10.05.2026 15:07 24,1 °C 29,4 °C 45 % 19 % 1009,5 hPa 0,0 l/m² 9,7 km/h (2 Bft) N 360 ° 0,000 mm 11,4 °C 24,1 °C 16,1 km/h (3 Bft) 95,65 %
10.05.2026 15:06 23,9 °C 29,4 °C 45 % 19 % 1009,5 hPa 0,0 l/m² 11,3 km/h (2 Bft) N 360 ° 0,000 mm 11,2 °C 23,9 °C 16,1 km/h (3 Bft) 91,30 %
10.05.2026 15:05 23,9 °C 29,4 °C 46 % 19 % 1009,7 hPa 0,0 l/m² 14,5 km/h (3 Bft) N 360 ° 0,000 mm 11,6 °C 23,9 °C 19,3 km/h (3 Bft) 95,65 %
10.05.2026 15:04 23,7 °C 29,4 °C 45 % 19 % 1009,6 hPa 0,0 l/m² 12,9 km/h (3 Bft) N 360 ° 0,000 mm 11,1 °C 23,7 °C 19,3 km/h (3 Bft) 100,00 %
10.05.2026 15:03 23,6 °C 29,4 °C 45 % 18 % 1009,6 hPa 0,0 l/m² 12,9 km/h (3 Bft) N 360 ° 0,000 mm 11,0 °C 23,6 °C 17,7 km/h (3 Bft) 95,65 %
10.05.2026 15:02 23,5 °C 29,4 °C 44 % 18 % 1009,6 hPa 0,0 l/m² 6,4 km/h (2 Bft) N 360 ° 0,000 mm 10,5 °C 23,5 °C 12,9 km/h (3 Bft) 100,00 %
10.05.2026 15:01 23,5 °C 29,4 °C 45 % 18 % 1009,6 hPa 0,0 l/m² 9,7 km/h (2 Bft) N 360 ° 0,000 mm 10,9 °C 23,5 °C 16,1 km/h (3 Bft) 91,30 %
10.05.2026 15:00 23,4 °C 29,4 °C 46 % 18 % 1009,7 hPa 0,0 l/m² 9,7 km/h (2 Bft) N 360 ° 0,000 mm 11,1 °C 23,4 °C 17,7 km/h (3 Bft) 100,00 %
10.05.2026 14:59 23,3 °C 30,0 °C 45 % 18 % 1009,7 hPa 0,0 l/m² 11,3 km/h (2 Bft) N 360 ° 0,000 mm 10,7 °C 23,3 °C 19,3 km/h (3 Bft) 91,30 %
10.05.2026 14:58 23,3 °C 30,0 °C 45 % 18 % 1009,8 hPa 0,0 l/m² 16,1 km/h (3 Bft) N 360 ° 0,000 mm 10,7 °C 23,3 °C 24,1 km/h (4 Bft) 100,00 %
10.05.2026 14:57 23,4 °C 30,0 °C 45 % 17 % 1009,7 hPa 0,0 l/m² 14,5 km/h (3 Bft) N 360 ° 0,000 mm 10,8 °C 23,4 °C 19,3 km/h (3 Bft) 91,30 %
10.05.2026 14:56 23,4 °C 30,0 °C 45 % 17 % 1009,7 hPa 0,0 l/m² 6,4 km/h (2 Bft) N 360 ° 0,000 mm 10,8 °C 23,4 °C 12,9 km/h (3 Bft) 95,65 %
10.05.2026 14:55 23,4 °C 30,0 °C 45 % 18 % 1009,7 hPa 0,0 l/m² 8,0 km/h (2 Bft) N 360 ° 0,000 mm 10,8 °C 23,4 °C 12,9 km/h (3 Bft) 100,00 %
10.05.2026 14:54 23,4 °C 30,0 °C 44 % 18 % 1009,7 hPa 0,0 l/m² 6,4 km/h (2 Bft) N 360 ° 0,000 mm 10,4 °C 23,4 °C 9,7 km/h (2 Bft) 91,30 %
10.05.2026 14:53 23,6 °C 30,0 °C 44 % 18 % 1009,7 hPa 0,0 l/m² 11,3 km/h (2 Bft) N 360 ° 0,000 mm 10,6 °C 23,6 °C 17,7 km/h (3 Bft) 100,00 %
10.05.2026 14:52 23,7 °C 30,0 °C 44 % 18 % 1009,7 hPa 0,0 l/m² 11,3 km/h (2 Bft) N 360 ° 0,000 mm 10,7 °C 23,7 °C 16,1 km/h (3 Bft) 91,30 %
10.05.2026 14:51 23,7 °C 30,0 °C 44 % 18 % 1009,7 hPa 0,0 l/m² 4,8 km/h (1 Bft) N 360 ° 0,000 mm 10,7 °C 23,7 °C 9,7 km/h (2 Bft) 95,65 %
10.05.2026 14:50 23,8 °C 30,0 °C 44 % 18 % 1009,8 hPa 0,0 l/m² 4,8 km/h (1 Bft) N 360 ° 0,000 mm 10,8 °C 23,8 °C 6,4 km/h (2 Bft) 91,30 %
10.05.2026 14:49 23,9 °C 30,0 °C 43 % 18 % 1009,9 hPa 0,0 l/m² 8,0 km/h (2 Bft) N 360 ° 0,000 mm 10,5 °C 23,9 °C 12,9 km/h (3 Bft) 100,00 %
10.05.2026 14:48 24,0 °C 30,0 °C 43 % 18 % 1009,8 hPa 0,0 l/m² 9,7 km/h (2 Bft) N 360 ° 0,000 mm 10,6 °C 24,0 °C 16,1 km/h (3 Bft) 95,65 %
10.05.2026 14:47 24,2 °C 30,0 °C 43 % 18 % 1009,9 hPa 0,0 l/m² 11,3 km/h (2 Bft) N 360 ° 0,000 mm 10,8 °C 24,2 °C 19,3 km/h (3 Bft) 95,65 %
10.05.2026 14:46 24,3 °C 30,0 °C 42 % 17 % 1009,8 hPa 0,0 l/m² 6,4 km/h (2 Bft) N 360 ° 0,000 mm 10,6 °C 24,3 °C 16,1 km/h (3 Bft) 95,65 %
10.05.2026 14:45 24,5 °C 30,0 °C 42 % 17 % 1009,8 hPa 0,0 l/m² 9,7 km/h (2 Bft) N 360 ° 0,000 mm 10,7 °C 24,5 °C 17,7 km/h (3 Bft) 95,65 %
10.05.2026 14:44 24,5 °C 30,0 °C 44 % 17 % 1010,0 hPa 0,0 l/m² 9,7 km/h (2 Bft) N 360 ° 0,000 mm 11,4 °C 24,5 °C 16,1 km/h (3 Bft) 95,65 %
10.05.2026 14:43 24,4 °C 30,0 °C 44 % 18 % 1009,9 hPa 0,0 l/m² 11,3 km/h (2 Bft) N 360 ° 0,000 mm 11,3 °C 24,4 °C 16,1 km/h (3 Bft) 100,00 %
10.05.2026 14:42 24,3 °C 30,0 °C 44 % 18 % 1010,0 hPa 0,0 l/m² 9,7 km/h (2 Bft) N 360 ° 0,000 mm 11,3 °C 24,3 °C 14,5 km/h (3 Bft) 91,30 %
10.05.2026 14:41 24,3 °C 30,0 °C 42 % 18 % 1009,9 hPa 0,0 l/m² 9,7 km/h (2 Bft) N 360 ° 0,000 mm 10,6 °C 24,3 °C 16,1 km/h (3 Bft) 95,65 %
10.05.2026 14:40 24,4 °C 29,4 °C 42 % 18 % 1010,0 hPa 0,0 l/m² 12,9 km/h (3 Bft) N 360 ° 0,000 mm 10,6 °C 24,4 °C 19,3 km/h (3 Bft) 95,65 %
10.05.2026 14:39 24,6 °C 29,4 °C 43 % 18 % 1010,0 hPa 0,0 l/m² 11,3 km/h (2 Bft) N 360 ° 0,000 mm 11,2 °C 24,6 °C 19,3 km/h (3 Bft) 91,30 %
10.05.2026 14:38 24,7 °C 29,4 °C 41 % 18 % 1009,9 hPa 0,0 l/m² 11,3 km/h (2 Bft) N 360 ° 0,000 mm 10,6 °C 24,7 °C 19,3 km/h (3 Bft) 95,65 %
10.05.2026 14:37 24,7 °C 29,4 °C 42 % 18 % 1010,0 hPa 0,0 l/m² 12,9 km/h (3 Bft) N 360 ° 0,000 mm 10,9 °C 24,7 °C 16,1 km/h (3 Bft) 91,30 %
10.05.2026 14:36 24,8 °C 29,4 °C 43 % 19 % 1010,0 hPa 0,0 l/m² 9,7 km/h (2 Bft) N 360 ° 0,000 mm 11,4 °C 24,8 °C 19,3 km/h (3 Bft) 100,00 %
10.05.2026 14:35 24,6 °C 29,4 °C 46 % 19 % 1010,0 hPa 0,0 l/m² 8,0 km/h (2 Bft) N 360 ° 0,000 mm 12,2 °C 24,6 °C 14,5 km/h (3 Bft) 95,65 %
10.05.2026 14:34 24,2 °C 29,4 °C 45 % 19 % 1010,1 hPa 0,0 l/m² 8,0 km/h (2 Bft) N 360 ° 0,000 mm 11,5 °C 24,2 °C 12,9 km/h (3 Bft) 100,00 %
10.05.2026 14:33 24,1 °C 29,4 °C 45 % 19 % 1010,1 hPa 0,0 l/m² 9,7 km/h (2 Bft) N 360 ° 0,000 mm 11,4 °C 24,1 °C 14,5 km/h (3 Bft) 95,65 %
10.05.2026 14:32 23,9 °C 29,4 °C 44 % 19 % 1010,2 hPa 0,0 l/m² 11,3 km/h (2 Bft) N 360 ° 0,000 mm 10,9 °C 23,9 °C 17,7 km/h (3 Bft) 100,00 %
10.05.2026 14:31 24,0 °C 29,4 °C 44 % 19 % 1010,1 hPa 0,0 l/m² 11,3 km/h (2 Bft) N 360 ° 0,000 mm 11,0 °C 24,0 °C 17,7 km/h (3 Bft) 91,30 %
10.05.2026 14:30 23,9 °C 29,4 °C 47 % 19 % 1010,2 hPa 0,0 l/m² 9,7 km/h (2 Bft) N 360 ° 0,000 mm 11,9 °C 23,9 °C 16,1 km/h (3 Bft) 95,65 %
10.05.2026 14:29 23,8 °C 29,4 °C 45 % 19 % 1010,3 hPa 0,0 l/m² 8,0 km/h (2 Bft) N 360 ° 0,000 mm 11,1 °C 23,8 °C 14,5 km/h (3 Bft) 91,30 %
10.05.2026 14:28 23,7 °C 29,4 °C 45 % 19 % 1010,2 hPa 0,0 l/m² 6,4 km/h (2 Bft) N 360 ° 0,000 mm 11,1 °C 23,7 °C 12,9 km/h (3 Bft) 100,00 %
10.05.2026 14:27 23,5 °C 29,4 °C 45 % 19 % 1010,2 hPa 0,0 l/m² 8,0 km/h (2 Bft) N 360 ° 0,000 mm 10,9 °C 23,5 °C 12,9 km/h (3 Bft) 91,30 %
10.05.2026 14:26 23,3 °C 29,4 °C 46 % 19 % 1010,3 hPa 0,0 l/m² 9,7 km/h (2 Bft) N 360 ° 0,000 mm 11,0 °C 23,3 °C 16,1 km/h (3 Bft) 91,30 %
10.05.2026 14:25 23,2 °C 29,4 °C 46 % 18 % 1010,3 hPa 0,0 l/m² 11,3 km/h (2 Bft) N 360 ° 0,000 mm 10,9 °C 23,2 °C 16,1 km/h (3 Bft) 95,65 %
10.05.2026 14:24 23,1 °C 29,4 °C 44 % 18 % 1010,3 hPa 0,0 l/m² 9,7 km/h (2 Bft) N 360 ° 0,000 mm 10,2 °C 23,1 °C 16,1 km/h (3 Bft) 91,30 %
10.05.2026 14:23 23,2 °C 29,4 °C 44 % 18 % 1010,4 hPa 0,0 l/m² 8,0 km/h (2 Bft) N 360 ° 0,000 mm 10,3 °C 23,2 °C 14,5 km/h (3 Bft) 95,65 %
10.05.2026 14:22 23,3 °C 29,4 °C 45 % 18 % 1010,4 hPa 0,0 l/m² 11,3 km/h (2 Bft) N 360 ° 0,000 mm 10,7 °C 23,3 °C 16,1 km/h (3 Bft) 95,65 %
10.05.2026 14:21 23,4 °C 29,4 °C 44 % 19 % 1010,3 hPa 0,0 l/m² 11,3 km/h (2 Bft) N 360 ° 0,000 mm 10,4 °C 23,4 °C 19,3 km/h (3 Bft) 91,30 %
10.05.2026 14:20 23,6 °C 30,0 °C 45 % 19 % 1010,3 hPa 0,0 l/m² 8,0 km/h (2 Bft) N 360 ° 0,000 mm 11,0 °C 23,6 °C 14,5 km/h (3 Bft) 91,30 %
10.05.2026 14:19 23,7 °C 30,0 °C 45 % 19 % 1010,4 hPa 0,0 l/m² 9,7 km/h (2 Bft) N 360 ° 0,000 mm 11,1 °C 23,7 °C 16,1 km/h (3 Bft) 95,65 %
10.05.2026 14:18 23,6 °C 30,0 °C 45 % 19 % 1010,4 hPa 0,0 l/m² 4,8 km/h (1 Bft) N 360 ° 0,000 mm 11,0 °C 23,6 °C 8,0 km/h (2 Bft) 91,30 %
10.05.2026 14:17 23,7 °C 30,0 °C 45 % 19 % 1010,3 hPa 0,0 l/m² 8,0 km/h (2 Bft) N 360 ° 0,000 mm 11,1 °C 23,7 °C 12,9 km/h (3 Bft) 95,65 %
10.05.2026 14:16 23,7 °C 30,0 °C 45 % 18 % 1010,3 hPa 0,0 l/m² 6,4 km/h (2 Bft) N 360 ° 0,000 mm 11,1 °C 23,7 °C 9,7 km/h (2 Bft) 86,96 %
10.05.2026 14:15 23,6 °C 30,0 °C 44 % 18 % 1010,4 hPa 0,0 l/m² 6,4 km/h (2 Bft) N 360 ° 0,000 mm 10,6 °C 23,6 °C 12,9 km/h (3 Bft) 95,65 %
10.05.2026 14:14 23,6 °C 30,0 °C 44 % 18 % 1010,5 hPa 0,0 l/m² 8,0 km/h (2 Bft) N 360 ° 0,000 mm 10,6 °C 23,6 °C 14,5 km/h (3 Bft) 91,30 %
10.05.2026 14:13 23,7 °C 30,0 °C 45 % 18 % 1010,5 hPa 0,0 l/m² 14,5 km/h (3 Bft) N 360 ° 0,000 mm 11,1 °C 23,7 °C 22,5 km/h (4 Bft) 100,00 %
10.05.2026 14:12 23,6 °C 30,0 °C 45 % 19 % 1010,3 hPa 0,0 l/m² 9,7 km/h (2 Bft) N 360 ° 0,000 mm 11,0 °C 23,6 °C 14,5 km/h (3 Bft) 91,30 %
10.05.2026 14:11 23,7 °C 30,0 °C 45 % 18 % 1010,3 hPa 0,0 l/m² 14,5 km/h (3 Bft) N 360 ° 0,000 mm 11,1 °C 23,7 °C 19,3 km/h (3 Bft) 91,30 %
10.05.2026 14:10 23,8 °C 30,0 °C 43 % 18 % 1010,4 hPa 0,0 l/m² 8,0 km/h (2 Bft) N 360 ° 0,000 mm 10,5 °C 23,8 °C 16,1 km/h (3 Bft) 91,30 %
10.05.2026 14:09 23,9 °C 30,0 °C 44 % 18 % 1010,5 hPa 0,0 l/m² 9,7 km/h (2 Bft) N 360 ° 0,000 mm 10,9 °C 23,9 °C 17,7 km/h (3 Bft) 91,30 %
10.05.2026 14:08 23,9 °C 29,4 °C 43 % 18 % 1010,5 hPa 0,0 l/m² 11,3 km/h (2 Bft) N 360 ° 0,000 mm 10,5 °C 23,9 °C 16,1 km/h (3 Bft) 100,00 %
10.05.2026 14:07 24,1 °C 29,4 °C 42 % 18 % 1010,4 hPa 0,0 l/m² 12,9 km/h (3 Bft) N 360 ° 0,000 mm 10,4 °C 24,1 °C 19,3 km/h (3 Bft) 91,30 %
10.05.2026 14:06 24,3 °C 29,4 °C 43 % 19 % 1010,4 hPa 0,0 l/m² 8,0 km/h (2 Bft) N 360 ° 0,000 mm 10,9 °C 24,3 °C 14,5 km/h (3 Bft) 100,00 %
10.05.2026 14:05 24,3 °C 29,4 °C 44 % 19 % 1010,5 hPa 0,0 l/m² 14,5 km/h (3 Bft) N 360 ° 0,000 mm 11,3 °C 24,3 °C 22,5 km/h (4 Bft) 86,96 %
10.05.2026 14:04 24,1 °C 29,4 °C 45 % 20 % 1010,4 hPa 0,0 l/m² 12,9 km/h (3 Bft) N 360 ° 0,000 mm 11,4 °C 24,1 °C 24,1 km/h (4 Bft) 100,00 %
10.05.2026 14:03 24,1 °C 29,4 °C 45 % 20 % 1010,4 hPa 0,0 l/m² 8,0 km/h (2 Bft) N 360 ° 0,000 mm 11,4 °C 24,1 °C 12,9 km/h (3 Bft) 82,61 %
10.05.2026 14:02 24,0 °C 29,4 °C 47 % 20 % 1010,4 hPa 0,0 l/m² 9,7 km/h (2 Bft) N 360 ° 0,000 mm 12,0 °C 24,0 °C 16,1 km/h (3 Bft) 95,65 %
10.05.2026 14:01 23,8 °C 29,4 °C 47 % 20 % 1010,5 hPa 0,0 l/m² 9,7 km/h (2 Bft) N 360 ° 0,000 mm 11,8 °C 23,8 °C 14,5 km/h (3 Bft) 95,65 %
10.05.2026 14:00 23,7 °C 29,4 °C 45 % 20 % 1010,4 hPa 0,0 l/m² 9,7 km/h (2 Bft) N 360 ° 0,000 mm 11,1 °C 23,7 °C 14,5 km/h (3 Bft) 95,65 %
10.05.2026 13:59 23,9 °C 29,4 °C 45 % 20 % 1010,5 hPa 0,0 l/m² 11,3 km/h (2 Bft) N 360 ° 0,000 mm 11,2 °C 23,9 °C 19,3 km/h (3 Bft) 95,65 %
10.05.2026 13:58 23,8 °C 29,4 °C 47 % 20 % 1010,5 hPa 0,0 l/m² 9,7 km/h (2 Bft) N 360 ° 0,000 mm 11,8 °C 23,8 °C 16,1 km/h (3 Bft) 100,00 %
10.05.2026 13:57 23,8 °C 29,4 °C 46 % 20 % 1010,5 hPa 0,0 l/m² 12,9 km/h (3 Bft) N 360 ° 0,000 mm 11,5 °C 23,8 °C 17,7 km/h (3 Bft) 95,65 %
10.05.2026 13:56 23,7 °C 29,4 °C 47 % 20 % 1010,5 hPa 0,0 l/m² 9,7 km/h (2 Bft) N 360 ° 0,000 mm 11,7 °C 23,7 °C 16,1 km/h (3 Bft) 91,30 %
10.05.2026 13:55 23,7 °C 29,4 °C 46 % 20 % 1010,5 hPa 0,0 l/m² 11,3 km/h (2 Bft) N 360 ° 0,000 mm 11,4 °C 23,7 °C 20,9 km/h (4 Bft) 95,65 %
10.05.2026 13:54 23,6 °C 29,4 °C 49 % 20 % 1010,4 hPa 0,0 l/m² 11,3 km/h (2 Bft) N 360 ° 0,000 mm 12,2 °C 23,6 °C 22,5 km/h (4 Bft) 95,65 %
10.05.2026 13:53 23,4 °C 29,4 °C 47 % 20 % 1010,5 hPa 0,0 l/m² 9,7 km/h (2 Bft) N 360 ° 0,000 mm 11,4 °C 23,4 °C 14,5 km/h (3 Bft) 95,65 %
10.05.2026 13:52 23,4 °C 29,4 °C 47 % 20 % 1010,5 hPa 0,0 l/m² 9,7 km/h (2 Bft) N 360 ° 0,000 mm 11,4 °C 23,4 °C 16,1 km/h (3 Bft) 95,65 %
10.05.2026 13:51 23,3 °C 29,4 °C 46 % 20 % 1010,6 hPa 0,0 l/m² 14,5 km/h (3 Bft) N 360 ° 0,000 mm 11,0 °C 23,3 °C 20,9 km/h (4 Bft) 95,65 %
10.05.2026 13:50 23,3 °C 29,4 °C 47 % 20 % 1010,6 hPa 0,0 l/m² 14,5 km/h (3 Bft) N 360 ° 0,000 mm 11,3 °C 23,3 °C 24,1 km/h (4 Bft) 95,65 %
10.05.2026 13:49 23,2 °C 28,9 °C 46 % 19 % 1010,6 hPa 0,0 l/m² 14,5 km/h (3 Bft) N 360 ° 0,000 mm 10,9 °C 23,2 °C 22,5 km/h (4 Bft) 100,00 %
10.05.2026 13:48 23,2 °C 28,9 °C 46 % 20 % 1010,6 hPa 0,0 l/m² 20,9 km/h (4 Bft) N 360 ° 0,000 mm 10,9 °C 23,2 °C 25,7 km/h (4 Bft) 91,30 %
10.05.2026 13:47 23,2 °C 28,9 °C 46 % 20 % 1010,6 hPa 0,0 l/m² 14,5 km/h (3 Bft) N 360 ° 0,000 mm 10,9 °C 23,2 °C 25,7 km/h (4 Bft) 100,00 %
10.05.2026 13:46 23,4 °C 28,9 °C 46 % 21 % 1010,7 hPa 0,0 l/m² 12,9 km/h (3 Bft) N 360 ° 0,000 mm 11,1 °C 23,4 °C 20,9 km/h (4 Bft) 95,65 %
10.05.2026 13:45 23,6 °C 28,9 °C 46 % 21 % 1010,6 hPa 0,0 l/m² 11,3 km/h (2 Bft) N 360 ° 0,000 mm 11,3 °C 23,6 °C 17,7 km/h (3 Bft) 100,00 %
10.05.2026 13:44 23,7 °C 28,9 °C 46 % 21 % 1010,6 hPa 0,0 l/m² 4,8 km/h (1 Bft) N 360 ° 0,000 mm 11,4 °C 23,7 °C 9,7 km/h (2 Bft) 95,65 %
10.05.2026 13:43 23,7 °C 28,9 °C 46 % 20 % 1010,7 hPa 0,0 l/m² 11,3 km/h (2 Bft) N 360 ° 0,000 mm 11,4 °C 23,7 °C 20,9 km/h (4 Bft) 100,00 %
10.05.2026 13:42 23,7 °C 28,9 °C 47 % 20 % 1010,7 hPa 0,0 l/m² 11,3 km/h (2 Bft) N 360 ° 0,000 mm 11,7 °C 23,7 °C 19,3 km/h (3 Bft) 100,00 %
10.05.2026 13:41 23,6 °C 28,9 °C 46 % 20 % 1010,7 hPa 0,0 l/m² 9,7 km/h (2 Bft) N 360 ° 0,000 mm 11,3 °C 23,6 °C 14,5 km/h (3 Bft) 91,30 %
10.05.2026 13:40 23,6 °C 28,9 °C 47 % 20 % 1010,8 hPa 0,0 l/m² 12,9 km/h (3 Bft) N 360 ° 0,000 mm 11,6 °C 23,6 °C 20,9 km/h (4 Bft) 95,65 %
10.05.2026 13:39 23,4 °C 28,9 °C 47 % 21 % 1010,7 hPa 0,0 l/m² 14,5 km/h (3 Bft) N 360 ° 0,000 mm 11,4 °C 23,4 °C 24,1 km/h (4 Bft) 100,00 %
10.05.2026 13:38 23,2 °C 28,3 °C 48 % 22 % 1010,8 hPa 0,0 l/m² 14,5 km/h (3 Bft) N 360 ° 0,000 mm 11,6 °C 23,2 °C 20,9 km/h (4 Bft) 100,00 %
10.05.2026 13:37 23,2 °C 28,3 °C 47 % 22 % 1010,8 hPa 0,0 l/m² 14,5 km/h (3 Bft) N 360 ° 0,000 mm 11,3 °C 23,2 °C 20,9 km/h (4 Bft) 100,00 %
10.05.2026 13:36 23,3 °C 28,3 °C 46 % 21 % 1010,9 hPa 0,0 l/m² 9,7 km/h (2 Bft) N 360 ° 0,000 mm 11,0 °C 23,3 °C 17,7 km/h (3 Bft) 100,00 %
10.05.2026 13:35 23,4 °C 28,3 °C 47 % 22 % 1010,9 hPa 0,0 l/m² 17,7 km/h (3 Bft) N 360 ° 0,000 mm 11,4 °C 23,4 °C 22,5 km/h (4 Bft) 95,65 %
10.05.2026 13:34 23,4 °C 28,3 °C 47 % 22 % 1010,8 hPa 0,0 l/m² 9,7 km/h (2 Bft) N 360 ° 0,000 mm 11,4 °C 23,4 °C 22,5 km/h (4 Bft) 95,65 %
10.05.2026 13:33 23,3 °C 28,3 °C 48 % 22 % 1010,8 hPa 0,0 l/m² 8,0 km/h (2 Bft) N 360 ° 0,000 mm 11,7 °C 23,3 °C 16,1 km/h (3 Bft) 100,00 %
10.05.2026 13:32 23,2 °C 28,3 °C 47 % 22 % 1010,8 hPa 0,0 l/m² 8,0 km/h (2 Bft) N 360 ° 0,000 mm 11,3 °C 23,2 °C 16,1 km/h (3 Bft) 100,00 %
10.05.2026 13:31 23,1 °C 28,3 °C 47 % 22 % 1010,8 hPa 0,0 l/m² 6,4 km/h (2 Bft) N 360 ° 0,000 mm 11,2 °C 23,1 °C 14,5 km/h (3 Bft) 100,00 %
10.05.2026 13:30 23,1 °C 28,3 °C 47 % 22 % 1010,9 hPa 0,0 l/m² 11,3 km/h (2 Bft) N 360 ° 0,000 mm 11,2 °C 23,1 °C 14,5 km/h (3 Bft) 100,00 %
10.05.2026 13:29 23,1 °C 28,3 °C 48 % 21 % 1010,9 hPa 0,0 l/m² 9,7 km/h (2 Bft) N 360 ° 0,000 mm 11,5 °C 23,1 °C 14,5 km/h (3 Bft) 100,00 %
10.05.2026 13:28 22,9 °C 28,3 °C 47 % 22 % 1010,9 hPa 0,0 l/m² 8,0 km/h (2 Bft) N 360 ° 0,000 mm 11,0 °C 22,9 °C 16,1 km/h (3 Bft) 95,65 %
10.05.2026 13:27 22,9 °C 28,3 °C 49 % 22 % 1011,0 hPa 0,0 l/m² 11,3 km/h (2 Bft) N 360 ° 0,000 mm 11,6 °C 22,9 °C 17,7 km/h (3 Bft) 91,30 %
10.05.2026 13:26 22,8 °C 28,3 °C 48 % 22 % 1011,0 hPa 0,0 l/m² 9,7 km/h (2 Bft) N 360 ° 0,000 mm 11,2 °C 22,8 °C 20,9 km/h (4 Bft) 100,00 %
10.05.2026 13:25 22,8 °C 28,3 °C 48 % 22 % 1011,0 hPa 0,0 l/m² 11,3 km/h (2 Bft) N 360 ° 0,000 mm 11,2 °C 22,8 °C 19,3 km/h (3 Bft) 100,00 %
10.05.2026 13:24 22,8 °C 28,3 °C 49 % 22 % 1011,1 hPa 0,0 l/m² 14,5 km/h (3 Bft) N 360 ° 0,000 mm 11,5 °C 22,8 °C 22,5 km/h (4 Bft) 100,00 %
10.05.2026 13:23 22,7 °C 28,3 °C 50 % 23 % 1011,1 hPa 0,0 l/m² 9,7 km/h (2 Bft) N 360 ° 0,000 mm 11,7 °C 22,7 °C 14,5 km/h (3 Bft) 95,65 %
10.05.2026 13:22 22,6 °C 28,3 °C 48 % 22 % 1011,1 hPa 0,0 l/m² 9,7 km/h (2 Bft) N 360 ° 0,000 mm 11,0 °C 22,6 °C 16,1 km/h (3 Bft) 100,00 %
10.05.2026 13:21 22,7 °C 28,3 °C 51 % 22 % 1011,1 hPa 0,0 l/m² 16,1 km/h (3 Bft) N 360 ° 0,000 mm 12,0 °C 22,7 °C 19,3 km/h (3 Bft) 100,00 %
10.05.2026 13:20 22,4 °C 28,3 °C 52 % 22 % 1011,1 hPa 0,0 l/m² 9,7 km/h (2 Bft) N 360 ° 0,000 mm 12,1 °C 22,4 °C 16,1 km/h (3 Bft) 95,65 %
10.05.2026 13:19 22,2 °C 28,3 °C 51 % 22 % 1011,1 hPa 0,0 l/m² 9,7 km/h (2 Bft) N 360 ° 0,000 mm 11,6 °C 22,2 °C 14,5 km/h (3 Bft) 100,00 %
10.05.2026 13:18 22,1 °C 28,3 °C 51 % 22 % 1011,2 hPa 0,0 l/m² 11,3 km/h (2 Bft) N 360 ° 0,000 mm 11,5 °C 22,1 °C 14,5 km/h (3 Bft) 95,65 %
10.05.2026 13:17 22,0 °C 28,3 °C 51 % 22 % 1011,3 hPa 0,0 l/m² 8,0 km/h (2 Bft) N 360 ° 0,000 mm 11,4 °C 22,0 °C 16,1 km/h (3 Bft) 100,00 %
10.05.2026 13:16 21,8 °C 28,3 °C 50 % 21 % 1011,2 hPa 0,0 l/m² 8,0 km/h (2 Bft) N 360 ° 0,000 mm 10,9 °C 21,8 °C 14,5 km/h (3 Bft) 100,00 %
10.05.2026 13:15 21,7 °C 28,3 °C 50 % 21 % 1011,3 hPa 0,0 l/m² 8,0 km/h (2 Bft) N 360 ° 0,000 mm 10,8 °C 21,7 °C 16,1 km/h (3 Bft) 95,65 %
10.05.2026 13:14 21,7 °C 28,3 °C 50 % 22 % 1011,3 hPa 0,0 l/m² 12,9 km/h (3 Bft) N 360 ° 0,000 mm 10,8 °C 21,7 °C 19,3 km/h (3 Bft) 100,00 %
10.05.2026 13:13 21,7 °C 28,3 °C 50 % 21 % 1011,4 hPa 0,0 l/m² 12,9 km/h (3 Bft) N 360 ° 0,000 mm 10,8 °C 21,7 °C 16,1 km/h (3 Bft) 95,65 %
10.05.2026 13:12 21,7 °C 28,3 °C 49 % 20 % 1011,4 hPa 0,0 l/m² 8,0 km/h (2 Bft) N 360 ° 0,000 mm 10,5 °C 21,7 °C 12,9 km/h (3 Bft) 95,65 %
10.05.2026 13:11 21,7 °C 28,3 °C 50 % 20 % 1011,4 hPa 0,0 l/m² 8,0 km/h (2 Bft) N 360 ° 0,000 mm 10,8 °C 21,7 °C 14,5 km/h (3 Bft) 100,00 %
10.05.2026 13:10 21,7 °C 28,3 °C 50 % 20 % 1011,5 hPa 0,0 l/m² 11,3 km/h (2 Bft) N 360 ° 0,000 mm 10,8 °C 21,7 °C 16,1 km/h (3 Bft) 95,65 %
10.05.2026 13:09 21,7 °C 28,3 °C 50 % 20 % 1011,4 hPa 0,0 l/m² 9,7 km/h (2 Bft) N 360 ° 0,000 mm 10,8 °C 21,7 °C 16,1 km/h (3 Bft) 100,00 %
10.05.2026 13:08 21,7 °C 28,3 °C 49 % 20 % 1011,4 hPa 0,0 l/m² 14,5 km/h (3 Bft) N 360 ° 0,000 mm 10,5 °C 21,7 °C 17,7 km/h (3 Bft) 95,65 %
10.05.2026 13:07 21,8 °C 28,3 °C 50 % 20 % 1011,5 hPa 0,0 l/m² 14,5 km/h (3 Bft) N 360 ° 0,000 mm 10,9 °C 21,8 °C 20,9 km/h (4 Bft) 100,00 %
10.05.2026 13:06 21,8 °C 28,3 °C 50 % 21 % 1011,5 hPa 0,0 l/m² 16,1 km/h (3 Bft) N 360 ° 0,000 mm 10,9 °C 21,8 °C 20,9 km/h (4 Bft) 95,65 %
10.05.2026 13:05 21,9 °C 28,3 °C 50 % 21 % 1011,5 hPa 0,0 l/m² 9,7 km/h (2 Bft) N 360 ° 0,000 mm 11,0 °C 21,9 °C 17,7 km/h (3 Bft) 95,65 %
10.05.2026 13:04 21,9 °C 28,3 °C 50 % 20 % 1011,5 hPa 0,0 l/m² 6,4 km/h (2 Bft) N 360 ° 0,000 mm 11,0 °C 21,9 °C 9,7 km/h (2 Bft) 100,00 %
10.05.2026 13:03 21,9 °C 28,3 °C 49 % 21 % 1011,5 hPa 0,0 l/m² 9,7 km/h (2 Bft) N 360 ° 0,000 mm 10,7 °C 21,9 °C 16,1 km/h (3 Bft) 100,00 %
10.05.2026 13:02 22,0 °C 28,9 °C 48 % 21 % 1011,6 hPa 0,0 l/m² 9,7 km/h (2 Bft) N 360 ° 0,000 mm 10,5 °C 22,0 °C 16,1 km/h (3 Bft) 100,00 %
10.05.2026 13:01 22,1 °C 28,9 °C 49 % 20 % 1011,5 hPa 0,0 l/m² 14,5 km/h (3 Bft) N 360 ° 0,000 mm 10,9 °C 22,1 °C 20,9 km/h (4 Bft) 100,00 %
10.05.2026 13:00 22,1 °C 28,3 °C 49 % 20 % 1011,5 hPa 0,0 l/m² 11,3 km/h (2 Bft) N 360 ° 0,000 mm 10,9 °C 22,1 °C 14,5 km/h (3 Bft) 95,65 %
10.05.2026 12:59 22,2 °C 28,9 °C 49 % 20 % 1011,6 hPa 0,0 l/m² 12,9 km/h (3 Bft) N 360 ° 0,000 mm 11,0 °C 22,2 °C 19,3 km/h (3 Bft) 95,65 %
10.05.2026 12:58 22,2 °C 28,9 °C 48 % 20 % 1011,5 hPa 0,0 l/m² 12,9 km/h (3 Bft) N 360 ° 0,000 mm 10,7 °C 22,2 °C 19,3 km/h (3 Bft) 95,65 %
10.05.2026 12:57 22,4 °C 28,3 °C 48 % 21 % 1011,6 hPa 0,0 l/m² 12,9 km/h (3 Bft) N 360 ° 0,000 mm 10,8 °C 22,4 °C 20,9 km/h (4 Bft) 100,00 %
10.05.2026 12:56 22,4 °C 28,3 °C 48 % 21 % 1011,7 hPa 0,0 l/m² 12,9 km/h (3 Bft) N 360 ° 0,000 mm 10,8 °C 22,4 °C 20,9 km/h (4 Bft) 100,00 %
10.05.2026 12:55 22,6 °C 28,3 °C 48 % 21 % 1011,7 hPa 0,0 l/m² 14,5 km/h (3 Bft) N 360 ° 0,000 mm 11,0 °C 22,6 °C 17,7 km/h (3 Bft) 100,00 %
10.05.2026 12:54 22,7 °C 28,3 °C 49 % 21 % 1011,5 hPa 0,0 l/m² 9,7 km/h (2 Bft) N 360 ° 0,000 mm 11,4 °C 22,7 °C 16,1 km/h (3 Bft) 100,00 %
10.05.2026 12:53 22,7 °C 28,3 °C 47 % 21 % 1011,7 hPa 0,0 l/m² 6,4 km/h (2 Bft) N 360 ° 0,000 mm 10,8 °C 22,7 °C 12,9 km/h (3 Bft) 95,65 %
10.05.2026 12:52 22,8 °C 28,3 °C 50 % 21 % 1011,7 hPa 0,0 l/m² 8,0 km/h (2 Bft) N 360 ° 0,000 mm 11,8 °C 22,8 °C 14,5 km/h (3 Bft) 95,65 %
10.05.2026 12:51 22,7 °C 28,3 °C 49 % 21 % 1011,7 hPa 0,0 l/m² 8,0 km/h (2 Bft) N 360 ° 0,000 mm 11,4 °C 22,7 °C 14,5 km/h (3 Bft) 100,00 %
10.05.2026 12:50 22,7 °C 28,3 °C 50 % 21 % 1011,7 hPa 0,0 l/m² 12,9 km/h (3 Bft) N 360 ° 0,000 mm 11,7 °C 22,7 °C 17,7 km/h (3 Bft) 95,65 %
10.05.2026 12:49 22,6 °C 28,3 °C 49 % 21 % 1011,8 hPa 0,0 l/m² 12,9 km/h (3 Bft) N 360 ° 0,000 mm 11,3 °C 22,6 °C 20,9 km/h (4 Bft) 100,00 %
10.05.2026 12:48 22,6 °C 28,3 °C 48 % 21 % 1011,7 hPa 0,0 l/m² 11,3 km/h (2 Bft) N 360 ° 0,000 mm 11,0 °C 22,6 °C 17,7 km/h (3 Bft) 95,65 %
10.05.2026 12:47 22,6 °C 28,3 °C 48 % 21 % 1011,8 hPa 0,0 l/m² 14,5 km/h (3 Bft) N 360 ° 0,000 mm 11,0 °C 22,6 °C 25,7 km/h (4 Bft) 100,00 %
10.05.2026 12:46 22,6 °C 28,3 °C 49 % 22 % 1011,7 hPa 0,0 l/m² 8,0 km/h (2 Bft) N 360 ° 0,000 mm 11,3 °C 22,6 °C 19,3 km/h (3 Bft) 100,00 %
10.05.2026 12:45 22,6 °C 28,3 °C 49 % 21 % 1011,8 hPa 0,0 l/m² 4,8 km/h (1 Bft) N 360 ° 0,000 mm 11,3 °C 22,6 °C 9,7 km/h (2 Bft) 95,65 %
10.05.2026 12:44 22,4 °C 28,3 °C 49 % 22 % 1011,8 hPa 0,0 l/m² 8,0 km/h (2 Bft) N 360 ° 0,000 mm 11,2 °C 22,4 °C 14,5 km/h (3 Bft) 95,65 %
10.05.2026 12:43 22,4 °C 28,3 °C 49 % 22 % 1011,8 hPa 0,0 l/m² 8,0 km/h (2 Bft) N 360 ° 0,000 mm 11,2 °C 22,4 °C 14,5 km/h (3 Bft) 95,65 %
10.05.2026 12:42 22,3 °C 28,3 °C 50 % 21 % 1011,8 hPa 0,0 l/m² 8,0 km/h (2 Bft) N 360 ° 0,000 mm 11,4 °C 22,3 °C 12,9 km/h (3 Bft) 100,00 %
10.05.2026 12:41 22,2 °C 28,3 °C 51 % 21 % 1011,8 hPa 0,0 l/m² 9,7 km/h (2 Bft) N 360 ° 0,000 mm 11,6 °C 22,2 °C 12,9 km/h (3 Bft) 100,00 %
10.05.2026 12:40 22,1 °C 28,3 °C 49 % 21 % 1011,7 hPa 0,0 l/m² 8,0 km/h (2 Bft) N 360 ° 0,000 mm 10,9 °C 22,1 °C 16,1 km/h (3 Bft) 100,00 %
10.05.2026 12:39 22,1 °C 28,3 °C 49 % 21 % 1011,8 hPa 0,0 l/m² 12,9 km/h (3 Bft) N 360 ° 0,000 mm 10,9 °C 22,1 °C 17,7 km/h (3 Bft) 91,30 %
10.05.2026 12:38 22,2 °C 28,3 °C 50 % 21 % 1011,8 hPa 0,0 l/m² 12,9 km/h (3 Bft) N 360 ° 0,000 mm 11,3 °C 22,2 °C 20,9 km/h (4 Bft) 95,65 %
10.05.2026 12:37 22,2 °C 28,3 °C 50 % 21 % 1011,8 hPa 0,0 l/m² 12,9 km/h (3 Bft) N 360 ° 0,000 mm 11,3 °C 22,2 °C 19,3 km/h (3 Bft) 95,65 %
10.05.2026 12:36 22,0 °C 28,3 °C 52 % 21 % 1011,9 hPa 0,0 l/m² 16,1 km/h (3 Bft) N 360 ° 0,000 mm 11,7 °C 22,0 °C 24,1 km/h (4 Bft) 95,65 %
10.05.2026 12:35 21,8 °C 28,3 °C 50 % 21 % 1011,8 hPa 0,0 l/m² 9,7 km/h (2 Bft) N 360 ° 0,000 mm 10,9 °C 21,8 °C 16,1 km/h (3 Bft) 100,00 %
10.05.2026 12:34 21,7 °C 28,3 °C 51 % 20 % 1011,8 hPa 0,0 l/m² 9,7 km/h (2 Bft) N 360 ° 0,000 mm 11,1 °C 21,7 °C 17,7 km/h (3 Bft) 91,30 %
10.05.2026 12:33 21,6 °C 28,3 °C 51 % 20 % 1011,9 hPa 0,0 l/m² 12,9 km/h (3 Bft) N 360 ° 0,000 mm 11,0 °C 21,6 °C 17,7 km/h (3 Bft) 100,00 %
10.05.2026 12:32 21,6 °C 28,3 °C 50 % 21 % 1012,0 hPa 0,0 l/m² 12,9 km/h (3 Bft) N 360 ° 0,000 mm 10,7 °C 21,6 °C 20,9 km/h (4 Bft) 95,65 %
10.05.2026 12:31 21,6 °C 28,9 °C 50 % 21 % 1011,9 hPa 0,0 l/m² 12,9 km/h (3 Bft) N 360 ° 0,000 mm 10,7 °C 21,6 °C 19,3 km/h (3 Bft) 95,65 %
10.05.2026 12:30 21,7 °C 28,3 °C 48 % 21 % 1011,9 hPa 0,0 l/m² 11,3 km/h (2 Bft) N 360 ° 0,000 mm 10,2 °C 21,7 °C 19,3 km/h (3 Bft) 95,65 %
10.05.2026 12:29 21,8 °C 28,9 °C 50 % 21 % 1012,0 hPa 0,0 l/m² 14,5 km/h (3 Bft) N 360 ° 0,000 mm 10,9 °C 21,8 °C 25,7 km/h (4 Bft) 100,00 %
10.05.2026 12:28 21,8 °C 28,9 °C 50 % 21 % 1012,0 hPa 0,0 l/m² 11,3 km/h (2 Bft) N 360 ° 0,000 mm 10,9 °C 21,8 °C 19,3 km/h (3 Bft) 95,65 %
10.05.2026 12:27 21,9 °C 28,3 °C 50 % 20 % 1011,9 hPa 0,0 l/m² 11,3 km/h (2 Bft) N 360 ° 0,000 mm 11,0 °C 21,9 °C 17,7 km/h (3 Bft) 91,30 %
10.05.2026 12:26 21,8 °C 28,3 °C 50 % 21 % 1011,9 hPa 0,0 l/m² 14,5 km/h (3 Bft) N 360 ° 0,000 mm 10,9 °C 21,8 °C 24,1 km/h (4 Bft) 100,00 %
10.05.2026 12:25 21,9 °C 28,3 °C 51 % 21 % 1011,9 hPa 0,0 l/m² 9,7 km/h (2 Bft) N 360 ° 0,000 mm 11,3 °C 21,9 °C 16,1 km/h (3 Bft) 91,30 %
10.05.2026 12:24 21,9 °C 28,3 °C 50 % 21 % 1011,9 hPa 0,0 l/m² 9,7 km/h (2 Bft) N 360 ° 0,000 mm 11,0 °C 21,9 °C 14,5 km/h (3 Bft) 95,65 %
10.05.2026 12:23 22,0 °C 28,3 °C 49 % 21 % 1012,0 hPa 0,0 l/m² 12,9 km/h (3 Bft) N 360 ° 0,000 mm 10,8 °C 22,0 °C 19,3 km/h (3 Bft) 95,65 %
10.05.2026 12:22 22,1 °C 28,3 °C 50 % 20 % 1012,0 hPa 0,0 l/m² 11,3 km/h (2 Bft) N 360 ° 0,000 mm 11,2 °C 22,1 °C 19,3 km/h (3 Bft) 100,00 %
10.05.2026 12:21 22,2 °C 28,3 °C 49 % 21 % 1012,0 hPa 0,0 l/m² 17,7 km/h (3 Bft) N 360 ° 0,000 mm 11,0 °C 22,2 °C 22,5 km/h (4 Bft) 95,65 %
10.05.2026 12:20 22,2 °C 28,3 °C 49 % 21 % 1012,0 hPa 0,0 l/m² 12,9 km/h (3 Bft) N 360 ° 0,000 mm 11,0 °C 22,2 °C 17,7 km/h (3 Bft) 100,00 %
10.05.2026 12:19 22,2 °C 28,3 °C 50 % 21 % 1012,0 hPa 0,0 l/m² 14,5 km/h (3 Bft) N 360 ° 0,000 mm 11,3 °C 22,2 °C 22,5 km/h (4 Bft) 95,65 %
10.05.2026 12:18 22,1 °C 28,3 °C 51 % 21 % 1012,1 hPa 0,0 l/m² 9,7 km/h (2 Bft) N 360 ° 0,000 mm 11,5 °C 22,1 °C 12,9 km/h (3 Bft) 95,65 %
10.05.2026 12:17 21,9 °C 28,3 °C 50 % 21 % 1012,0 hPa 0,0 l/m² 12,9 km/h (3 Bft) N 360 ° 0,000 mm 11,0 °C 21,9 °C 20,9 km/h (4 Bft) 91,30 %
10.05.2026 12:16 21,8 °C 28,3 °C 51 % 21 % 1012,0 hPa 0,0 l/m² 11,3 km/h (2 Bft) N 360 ° 0,000 mm 11,2 °C 21,8 °C 16,1 km/h (3 Bft) 91,30 %
10.05.2026 12:15 21,8 °C 28,3 °C 50 % 21 % 1012,1 hPa 0,0 l/m² 11,3 km/h (2 Bft) N 360 ° 0,000 mm 10,9 °C 21,8 °C 17,7 km/h (3 Bft) 100,00 %
10.05.2026 12:14 21,7 °C 28,3 °C 51 % 22 % 1012,0 hPa 0,0 l/m² 9,7 km/h (2 Bft) N 360 ° 0,000 mm 11,1 °C 21,7 °C 16,1 km/h (3 Bft) 95,65 %
10.05.2026 12:13 21,7 °C 28,3 °C 49 % 22 % 1012,1 hPa 0,0 l/m² 11,3 km/h (2 Bft) N 360 ° 0,000 mm 10,5 °C 21,7 °C 14,5 km/h (3 Bft) 95,65 %
10.05.2026 12:12 21,9 °C 28,3 °C 51 % 21 % 1012,1 hPa 0,0 l/m² 12,9 km/h (3 Bft) N 360 ° 0,000 mm 11,3 °C 21,9 °C 17,7 km/h (3 Bft) 95,65 %
10.05.2026 12:11 21,8 °C 28,3 °C 52 % 21 % 1012,1 hPa 0,0 l/m² 16,1 km/h (3 Bft) N 360 ° 0,000 mm 11,5 °C 21,8 °C 20,9 km/h (4 Bft) 100,00 %
10.05.2026 12:10 21,5 °C 27,8 °C 51 % 21 % 1012,1 hPa 0,0 l/m² 14,5 km/h (3 Bft) N 360 ° 0,000 mm 10,9 °C 21,5 °C 19,3 km/h (3 Bft) 91,30 %
10.05.2026 12:09 21,4 °C 27,8 °C 50 % 22 % 1012,1 hPa 0,0 l/m² 14,5 km/h (3 Bft) N 360 ° 0,000 mm 10,5 °C 21,4 °C 22,5 km/h (4 Bft) 95,65 %
10.05.2026 12:08 21,4 °C 27,8 °C 50 % 22 % 1012,1 hPa 0,0 l/m² 12,9 km/h (3 Bft) N 360 ° 0,000 mm 10,5 °C 21,4 °C 20,9 km/h (4 Bft) 100,00 %
10.05.2026 12:07 21,4 °C 27,8 °C 50 % 22 % 1012,1 hPa 0,0 l/m² 11,3 km/h (2 Bft) N 360 ° 0,000 mm 10,5 °C 21,4 °C 19,3 km/h (3 Bft) 91,30 %
10.05.2026 12:06 21,4 °C 27,8 °C 50 % 22 % 1012,2 hPa 0,0 l/m² 11,3 km/h (2 Bft) N 360 ° 0,000 mm 10,5 °C 21,4 °C 17,7 km/h (3 Bft) 100,00 %
10.05.2026 12:05 21,6 °C 27,8 °C 51 % 22 % 1012,1 hPa 0,0 l/m² 9,7 km/h (2 Bft) N 360 ° 0,000 mm 11,0 °C 21,6 °C 14,5 km/h (3 Bft) 95,65 %
10.05.2026 12:04 21,6 °C 27,8 °C 50 % 22 % 1012,2 hPa 0,0 l/m² 12,9 km/h (3 Bft) N 360 ° 0,000 mm 10,7 °C 21,6 °C 22,5 km/h (4 Bft) 95,65 %
10.05.2026 12:03 21,7 °C 27,8 °C 50 % 22 % 1012,2 hPa 0,0 l/m² 19,3 km/h (3 Bft) N 360 ° 0,000 mm 10,8 °C 21,7 °C 30,6 km/h (5 Bft) 95,65 %
10.05.2026 12:02 21,8 °C 27,8 °C 50 % 22 % 1012,2 hPa 0,0 l/m² 17,7 km/h (3 Bft) N 360 ° 0,000 mm 10,9 °C 21,8 °C 22,5 km/h (4 Bft) 95,65 %
10.05.2026 12:01 21,7 °C 27,8 °C 51 % 22 % 1012,3 hPa 0,0 l/m² 12,9 km/h (3 Bft) N 360 ° 0,000 mm 11,1 °C 21,7 °C 22,5 km/h (4 Bft) 95,65 %
10.05.2026 12:00 21,5 °C 27,8 °C 52 % 22 % 1012,3 hPa 0,0 l/m² 11,3 km/h (2 Bft) N 360 ° 0,000 mm 11,2 °C 21,5 °C 16,1 km/h (3 Bft) 95,65 %
10.05.2026 11:59 21,3 °C 27,8 °C 53 % 22 % 1012,4 hPa 0,0 l/m² 8,0 km/h (2 Bft) N 360 ° 0,000 mm 11,3 °C 21,3 °C 14,5 km/h (3 Bft) 100,00 %
10.05.2026 11:58 21,2 °C 27,8 °C 50 % 22 % 1012,4 hPa 0,0 l/m² 11,3 km/h (2 Bft) N 360 ° 0,000 mm 10,4 °C 21,2 °C 22,5 km/h (4 Bft) 100,00 %
10.05.2026 11:57 21,2 °C 27,8 °C 50 % 22 % 1012,4 hPa 0,0 l/m² 11,3 km/h (2 Bft) N 360 ° 0,000 mm 10,4 °C 21,2 °C 17,7 km/h (3 Bft) 100,00 %
10.05.2026 11:56 21,4 °C 27,8 °C 49 % 22 % 1012,5 hPa 0,0 l/m² 9,7 km/h (2 Bft) N 360 ° 0,000 mm 10,2 °C 21,4 °C 16,1 km/h (3 Bft) 95,65 %
10.05.2026 11:55 21,7 °C 27,8 °C 52 % 22 % 1012,4 hPa 0,0 l/m² 11,3 km/h (2 Bft) N 360 ° 0,000 mm 11,4 °C 21,7 °C 17,7 km/h (3 Bft) 100,00 %
10.05.2026 11:54 21,6 °C 27,8 °C 53 % 22 % 1012,5 hPa 0,0 l/m² 6,4 km/h (2 Bft) N 360 ° 0,000 mm 11,6 °C 21,6 °C 12,9 km/h (3 Bft) 100,00 %
10.05.2026 11:53 21,4 °C 27,2 °C 52 % 22 % 1012,5 hPa 0,0 l/m² 8,0 km/h (2 Bft) N 360 ° 0,000 mm 11,1 °C 21,4 °C 16,1 km/h (3 Bft) 100,00 %
10.05.2026 11:52 21,3 °C 27,2 °C 52 % 22 % 1012,5 hPa 0,0 l/m² 11,3 km/h (2 Bft) N 360 ° 0,000 mm 11,0 °C 21,3 °C 19,3 km/h (3 Bft) 100,00 %
10.05.2026 11:51 21,3 °C 27,2 °C 52 % 23 % 1012,5 hPa 0,0 l/m² 9,7 km/h (2 Bft) N 360 ° 0,000 mm 11,0 °C 21,3 °C 19,3 km/h (3 Bft) 100,00 %
10.05.2026 11:50 21,2 °C 27,2 °C 51 % 22 % 1012,5 hPa 0,0 l/m² 11,3 km/h (2 Bft) N 360 ° 0,000 mm 10,7 °C 21,2 °C 17,7 km/h (3 Bft) 95,65 %
10.05.2026 11:49 21,1 °C 27,2 °C 52 % 22 % 1012,5 hPa 0,0 l/m² 12,9 km/h (3 Bft) N 360 ° 0,000 mm 10,9 °C 21,1 °C 17,7 km/h (3 Bft) 95,65 %
10.05.2026 11:48 20,9 °C 27,2 °C 53 % 22 % 1012,5 hPa 0,0 l/m² 12,9 km/h (3 Bft) N 360 ° 0,000 mm 11,0 °C 20,9 °C 19,3 km/h (3 Bft) 100,00 %
10.05.2026 11:47 20,8 °C 27,2 °C 53 % 22 % 1012,6 hPa 0,0 l/m² 12,9 km/h (3 Bft) N 360 ° 0,000 mm 10,9 °C 20,8 °C 19,3 km/h (3 Bft) 100,00 %
10.05.2026 11:46 20,7 °C 27,2 °C 52 % 22 % 1012,6 hPa 0,0 l/m² 11,3 km/h (2 Bft) N 360 ° 0,000 mm 10,5 °C 20,7 °C 16,1 km/h (3 Bft) 100,00 %
10.05.2026 11:45 20,7 °C 27,2 °C 53 % 23 % 1012,6 hPa 0,0 l/m² 14,5 km/h (3 Bft) N 360 ° 0,000 mm 10,8 °C 20,7 °C 19,3 km/h (3 Bft) 100,00 %
10.05.2026 11:44 20,7 °C 27,2 °C 51 % 22 % 1012,7 hPa 0,0 l/m² 12,9 km/h (3 Bft) N 360 ° 0,000 mm 10,2 °C 20,7 °C 17,7 km/h (3 Bft) 100,00 %
10.05.2026 11:43 20,9 °C 27,2 °C 52 % 22 % 1012,7 hPa 0,0 l/m² 19,3 km/h (3 Bft) N 360 ° 0,000 mm 10,7 °C 20,9 °C 24,1 km/h (4 Bft) 100,00 %
10.05.2026 11:42 20,8 °C 27,2 °C 54 % 23 % 1012,6 hPa 0,0 l/m² 17,7 km/h (3 Bft) N 360 ° 0,000 mm 11,1 °C 20,8 °C 25,7 km/h (4 Bft) 100,00 %
10.05.2026 11:41 20,7 °C 27,2 °C 53 % 23 % 1012,6 hPa 0,0 l/m² 11,3 km/h (2 Bft) N 360 ° 0,000 mm 10,8 °C 20,7 °C 19,3 km/h (3 Bft) 95,65 %
10.05.2026 11:40 20,7 °C 27,2 °C 53 % 23 % 1012,6 hPa 0,0 l/m² 8,0 km/h (2 Bft) N 360 ° 0,000 mm 10,8 °C 20,7 °C 14,5 km/h (3 Bft) 100,00 %
10.05.2026 11:39 20,6 °C 27,2 °C 53 % 24 % 1012,7 hPa 0,0 l/m² 11,3 km/h (2 Bft) N 360 ° 0,000 mm 10,7 °C 20,6 °C 17,7 km/h (3 Bft) 100,00 %
10.05.2026 11:38 20,5 °C 27,2 °C 52 % 23 % 1012,5 hPa 0,0 l/m² 9,7 km/h (2 Bft) N 360 ° 0,000 mm 10,3 °C 20,5 °C 14,5 km/h (3 Bft) 100,00 %
10.05.2026 11:37 20,5 °C 27,2 °C 53 % 23 % 1012,6 hPa 0,0 l/m² 8,0 km/h (2 Bft) N 360 ° 0,000 mm 10,6 °C 20,5 °C 17,7 km/h (3 Bft) 95,65 %
10.05.2026 11:36 20,4 °C 27,2 °C 53 % 23 % 1012,7 hPa 0,0 l/m² 11,3 km/h (2 Bft) N 360 ° 0,000 mm 10,5 °C 20,4 °C 20,9 km/h (4 Bft) 100,00 %
10.05.2026 11:35 20,4 °C 27,2 °C 53 % 23 % 1012,7 hPa 0,0 l/m² 14,5 km/h (3 Bft) N 360 ° 0,000 mm 10,5 °C 20,4 °C 22,5 km/h (4 Bft) 100,00 %
10.05.2026 11:34 20,3 °C 27,2 °C 53 % 23 % 1012,7 hPa 0,0 l/m² 12,9 km/h (3 Bft) N 360 ° 0,000 mm 10,4 °C 20,3 °C 19,3 km/h (3 Bft) 95,65 %
10.05.2026 11:33 20,3 °C 27,2 °C 52 % 23 % 1012,7 hPa 0,0 l/m² 11,3 km/h (2 Bft) N 360 ° 0,000 mm 10,1 °C 20,3 °C 17,7 km/h (3 Bft) 100,00 %
10.05.2026 11:32 20,4 °C 27,2 °C 52 % 23 % 1012,6 hPa 0,0 l/m² 12,9 km/h (3 Bft) N 360 ° 0,000 mm 10,2 °C 20,4 °C 20,9 km/h (4 Bft) 100,00 %
10.05.2026 11:31 20,4 °C 27,2 °C 51 % 23 % 1012,7 hPa 0,0 l/m² 11,3 km/h (2 Bft) N 360 ° 0,000 mm 9,9 °C 20,4 °C 20,9 km/h (4 Bft) 95,65 %
10.05.2026 11:30 20,5 °C 26,7 °C 54 % 23 % 1012,7 hPa 0,0 l/m² 12,9 km/h (3 Bft) N 360 ° 0,000 mm 10,9 °C 20,5 °C 20,9 km/h (4 Bft) 100,00 %
10.05.2026 11:29 20,4 °C 26,7 °C 53 % 23 % 1012,7 hPa 0,0 l/m² 14,5 km/h (3 Bft) N 360 ° 0,000 mm 10,5 °C 20,4 °C 17,7 km/h (3 Bft) 100,00 %
10.05.2026 11:28 20,3 °C 26,7 °C 53 % 23 % 1012,6 hPa 0,0 l/m² 14,5 km/h (3 Bft) N 360 ° 0,000 mm 10,4 °C 20,3 °C 20,9 km/h (4 Bft) 100,00 %
10.05.2026 11:27 20,2 °C 26,7 °C 54 % 23 % 1012,7 hPa 0,0 l/m² 19,3 km/h (3 Bft) N 360 ° 0,000 mm 10,6 °C 20,2 °C 24,1 km/h (4 Bft) 95,65 %
10.05.2026 11:26 20,1 °C 26,7 °C 54 % 23 % 1012,7 hPa 0,0 l/m² 11,3 km/h (2 Bft) N 360 ° 0,000 mm 10,5 °C 20,1 °C 17,7 km/h (3 Bft) 95,65 %
10.05.2026 11:25 19,9 °C 26,7 °C 53 % 23 % 1012,7 hPa 0,0 l/m² 12,9 km/h (3 Bft) N 360 ° 0,000 mm 10,0 °C 19,9 °C 19,3 km/h (3 Bft) 100,00 %
10.05.2026 11:24 19,9 °C 26,7 °C 55 % 23 % 1012,7 hPa 0,0 l/m² 11,3 km/h (2 Bft) N 360 ° 0,000 mm 10,6 °C 19,9 °C 16,1 km/h (3 Bft) 100,00 %
10.05.2026 11:23 19,8 °C 26,7 °C 54 % 23 % 1012,7 hPa 0,0 l/m² 16,1 km/h (3 Bft) N 360 ° 0,000 mm 10,2 °C 19,8 °C 20,9 km/h (4 Bft) 100,00 %
10.05.2026 11:22 19,7 °C 26,7 °C 54 % 23 % 1012,8 hPa 0,0 l/m² 16,1 km/h (3 Bft) N 360 ° 0,000 mm 10,1 °C 19,7 °C 24,1 km/h (4 Bft) 95,65 %
10.05.2026 11:21 19,6 °C 26,7 °C 53 % 23 % 1012,7 hPa 0,0 l/m² 12,9 km/h (3 Bft) N 360 ° 0,000 mm 9,8 °C 19,6 °C 19,3 km/h (3 Bft) 100,00 %
10.05.2026 11:20 19,7 °C 26,7 °C 52 % 23 % 1012,7 hPa 0,0 l/m² 16,1 km/h (3 Bft) N 360 ° 0,000 mm 9,6 °C 19,7 °C 19,3 km/h (3 Bft) 95,65 %
10.05.2026 11:19 19,8 °C 26,7 °C 53 % 23 % 1012,8 hPa 0,0 l/m² 17,7 km/h (3 Bft) N 360 ° 0,000 mm 9,9 °C 19,8 °C 22,5 km/h (4 Bft) 100,00 %
10.05.2026 11:18 19,8 °C 26,7 °C 52 % 23 % 1012,8 hPa 0,0 l/m² 12,9 km/h (3 Bft) N 360 ° 0,000 mm 9,7 °C 19,8 °C 19,3 km/h (3 Bft) 100,00 %
10.05.2026 11:17 19,9 °C 26,7 °C 53 % 23 % 1012,7 hPa 0,0 l/m² 12,9 km/h (3 Bft) N 360 ° 0,000 mm 10,0 °C 19,9 °C 20,9 km/h (4 Bft) 95,65 %
10.05.2026 11:16 19,9 °C 26,7 °C 53 % 23 % 1012,8 hPa 0,0 l/m² 14,5 km/h (3 Bft) N 360 ° 0,000 mm 10,0 °C 19,9 °C 20,9 km/h (4 Bft) 100,00 %
10.05.2026 11:15 19,8 °C 26,7 °C 53 % 23 % 1012,7 hPa 0,0 l/m² 16,1 km/h (3 Bft) N 360 ° 0,000 mm 9,9 °C 19,8 °C 25,7 km/h (4 Bft) 100,00 %
10.05.2026 11:14 19,8 °C 26,7 °C 53 % 23 % 1012,8 hPa 0,0 l/m² 16,1 km/h (3 Bft) N 360 ° 0,000 mm 9,9 °C 19,8 °C 22,5 km/h (4 Bft) 95,65 %
10.05.2026 11:13 19,8 °C 26,7 °C 54 % 23 % 1012,9 hPa 0,0 l/m² 11,3 km/h (2 Bft) N 360 ° 0,000 mm 10,2 °C 19,8 °C 16,1 km/h (3 Bft) 95,65 %
10.05.2026 11:12 19,7 °C 26,7 °C 53 % 24 % 1012,8 hPa 0,0 l/m² 12,9 km/h (3 Bft) N 360 ° 0,000 mm 9,8 °C 19,7 °C 19,3 km/h (3 Bft) 100,00 %
10.05.2026 11:11 19,7 °C 26,7 °C 53 % 23 % 1012,9 hPa 0,0 l/m² 8,0 km/h (2 Bft) N 360 ° 0,000 mm 9,8 °C 19,7 °C 16,1 km/h (3 Bft) 100,00 %
10.05.2026 11:10 19,8 °C 26,7 °C 53 % 23 % 1012,9 hPa 0,0 l/m² 11,3 km/h (2 Bft) N 360 ° 0,000 mm 9,9 °C 19,8 °C 17,7 km/h (3 Bft) 95,65 %
10.05.2026 11:09 19,8 °C 26,7 °C 54 % 23 % 1012,9 hPa 0,0 l/m² 17,7 km/h (3 Bft) N 360 ° 0,000 mm 10,2 °C 19,8 °C 24,1 km/h (4 Bft) 95,65 %
10.05.2026 11:08 19,8 °C 26,7 °C 55 % 23 % 1013,0 hPa 0,0 l/m² 16,1 km/h (3 Bft) N 360 ° 0,000 mm 10,5 °C 19,8 °C 24,1 km/h (4 Bft) 100,00 %
10.05.2026 11:07 19,6 °C 26,7 °C 53 % 23 % 1013,0 hPa 0,0 l/m² 12,9 km/h (3 Bft) N 360 ° 0,000 mm 9,8 °C 19,6 °C 22,5 km/h (4 Bft) 95,65 %
10.05.2026 11:06 19,6 °C 26,7 °C 54 % 23 % 1013,0 hPa 0,0 l/m² 14,5 km/h (3 Bft) N 360 ° 0,000 mm 10,0 °C 19,6 °C 19,3 km/h (3 Bft) 91,30 %
10.05.2026 11:05 19,6 °C 26,7 °C 53 % 24 % 1013,0 hPa 0,0 l/m² 16,1 km/h (3 Bft) N 360 ° 0,000 mm 9,8 °C 19,6 °C 24,1 km/h (4 Bft) 100,00 %
10.05.2026 11:04 19,6 °C 26,7 °C 54 % 24 % 1013,0 hPa 0,0 l/m² 14,5 km/h (3 Bft) N 360 ° 0,000 mm 10,0 °C 19,6 °C 19,3 km/h (3 Bft) 100,00 %
10.05.2026 11:03 19,6 °C 26,7 °C 53 % 23 % 1013,0 hPa 0,0 l/m² 9,7 km/h (2 Bft) N 360 ° 0,000 mm 9,8 °C 19,6 °C 17,7 km/h (3 Bft) 95,65 %
10.05.2026 11:02 19,6 °C 26,7 °C 54 % 23 % 1013,0 hPa 0,0 l/m² 14,5 km/h (3 Bft) N 360 ° 0,000 mm 10,0 °C 19,6 °C 20,9 km/h (4 Bft) 100,00 %
10.05.2026 11:01 19,6 °C 26,7 °C 54 % 24 % 1013,0 hPa 0,0 l/m² 14,5 km/h (3 Bft) N 360 ° 0,000 mm 10,0 °C 19,6 °C 24,1 km/h (4 Bft) 95,65 %
10.05.2026 11:00 19,4 °C 26,7 °C 53 % 23 % 1013,1 hPa 0,0 l/m² 12,9 km/h (3 Bft) N 360 ° 0,000 mm 9,6 °C 19,4 °C 24,1 km/h (4 Bft) 100,00 %
10.05.2026 10:59 19,5 °C 26,7 °C 54 % 23 % 1013,1 hPa 0,0 l/m² 16,1 km/h (3 Bft) N 360 ° 0,000 mm 9,9 °C 19,5 °C 24,1 km/h (4 Bft) 95,65 %
10.05.2026 10:58 19,4 °C 26,1 °C 53 % 23 % 1013,1 hPa 0,0 l/m² 11,3 km/h (2 Bft) N 360 ° 0,000 mm 9,6 °C 19,4 °C 19,3 km/h (3 Bft) 100,00 %
10.05.2026 10:57 19,6 °C 26,1 °C 53 % 24 % 1013,1 hPa 0,0 l/m² 12,9 km/h (3 Bft) N 360 ° 0,000 mm 9,8 °C 19,6 °C 22,5 km/h (4 Bft) 100,00 %
10.05.2026 10:56 19,6 °C 26,1 °C 54 % 23 % 1013,2 hPa 0,0 l/m² 14,5 km/h (3 Bft) N 360 ° 0,000 mm 10,0 °C 19,6 °C 20,9 km/h (4 Bft) 95,65 %
10.05.2026 10:55 19,6 °C 26,1 °C 53 % 23 % 1013,2 hPa 0,0 l/m² 14,5 km/h (3 Bft) N 360 ° 0,000 mm 9,8 °C 19,6 °C 20,9 km/h (4 Bft) 91,30 %
10.05.2026 10:54 19,7 °C 26,1 °C 53 % 23 % 1013,2 hPa 0,0 l/m² 17,7 km/h (3 Bft) N 360 ° 0,000 mm 9,8 °C 19,7 °C 29,0 km/h (5 Bft) 100,00 %
10.05.2026 10:53 19,6 °C 26,1 °C 55 % 24 % 1013,1 hPa 0,0 l/m² 17,7 km/h (3 Bft) N 360 ° 0,000 mm 10,3 °C 19,6 °C 22,5 km/h (4 Bft) 100,00 %
10.05.2026 10:52 19,4 °C 26,1 °C 55 % 24 % 1013,1 hPa 0,0 l/m² 12,9 km/h (3 Bft) N 360 ° 0,000 mm 10,1 °C 19,4 °C 19,3 km/h (3 Bft) 95,65 %
10.05.2026 10:51 19,3 °C 26,1 °C 54 % 24 % 1013,1 hPa 0,0 l/m² 14,5 km/h (3 Bft) N 360 ° 0,000 mm 9,8 °C 19,3 °C 19,3 km/h (3 Bft) 95,65 %
10.05.2026 10:50 19,1 °C 26,1 °C 55 % 24 % 1013,2 hPa 0,0 l/m² 9,7 km/h (2 Bft) N 360 ° 0,000 mm 9,8 °C 19,1 °C 20,9 km/h (4 Bft) 100,00 %
10.05.2026 10:49 19,2 °C 26,1 °C 55 % 24 % 1013,3 hPa 0,0 l/m² 6,4 km/h (2 Bft) N 360 ° 0,000 mm 9,9 °C 19,2 °C 9,7 km/h (2 Bft) 100,00 %
10.05.2026 10:48 19,2 °C 26,1 °C 55 % 24 % 1013,1 hPa 0,0 l/m² 12,9 km/h (3 Bft) N 360 ° 0,000 mm 9,9 °C 19,2 °C 20,9 km/h (4 Bft) 100,00 %
10.05.2026 10:47 19,1 °C 26,1 °C 54 % 23 % 1013,1 hPa 0,0 l/m² 14,5 km/h (3 Bft) N 360 ° 0,000 mm 9,6 °C 19,1 °C 24,1 km/h (4 Bft) 95,65 %
10.05.2026 10:46 19,0 °C 26,1 °C 55 % 23 % 1013,3 hPa 0,0 l/m² 11,3 km/h (2 Bft) N 360 ° 0,000 mm 9,8 °C 19,0 °C 19,3 km/h (3 Bft) 95,65 %
10.05.2026 10:45 18,9 °C 26,1 °C 54 % 23 % 1013,3 hPa 0,0 l/m² 14,5 km/h (3 Bft) N 360 ° 0,000 mm 9,4 °C 18,9 °C 22,5 km/h (4 Bft) 91,30 %
10.05.2026 10:44 18,9 °C 26,1 °C 55 % 23 % 1013,2 hPa 0,0 l/m² 19,3 km/h (3 Bft) N 360 ° 0,000 mm 9,7 °C 18,9 °C 25,7 km/h (4 Bft) 95,65 %
10.05.2026 10:43 18,9 °C 26,1 °C 54 % 23 % 1013,3 hPa 0,0 l/m² 12,9 km/h (3 Bft) N 360 ° 0,000 mm 9,4 °C 18,9 °C 20,9 km/h (4 Bft) 100,00 %
10.05.2026 10:42 19,1 °C 26,1 °C 54 % 23 % 1013,2 hPa 0,0 l/m² 12,9 km/h (3 Bft) N 360 ° 0,000 mm 9,6 °C 19,1 °C 20,9 km/h (4 Bft) 95,65 %
10.05.2026 10:41 19,2 °C 26,1 °C 53 % 23 % 1013,2 hPa 0,0 l/m² 17,7 km/h (3 Bft) N 360 ° 0,000 mm 9,4 °C 19,2 °C 25,7 km/h (4 Bft) 95,65 %
10.05.2026 10:40 19,3 °C 26,1 °C 54 % 23 % 1013,2 hPa 0,0 l/m² 14,5 km/h (3 Bft) N 360 ° 0,000 mm 9,8 °C 19,3 °C 20,9 km/h (4 Bft) 95,65 %
10.05.2026 10:39 19,3 °C 26,1 °C 54 % 23 % 1013,2 hPa 0,0 l/m² 14,5 km/h (3 Bft) N 360 ° 0,000 mm 9,8 °C 19,3 °C 19,3 km/h (3 Bft) 95,65 %
10.05.2026 10:38 19,3 °C 26,1 °C 55 % 24 % 1013,3 hPa 0,0 l/m² 19,3 km/h (3 Bft) N 360 ° 0,000 mm 10,0 °C 19,3 °C 27,4 km/h (4 Bft) 91,30 %
10.05.2026 10:37 19,2 °C 26,1 °C 54 % 24 % 1013,2 hPa 0,0 l/m² 14,5 km/h (3 Bft) N 360 ° 0,000 mm 9,7 °C 19,2 °C 25,7 km/h (4 Bft) 95,65 %
10.05.2026 10:36 19,2 °C 26,1 °C 55 % 24 % 1013,4 hPa 0,0 l/m² 12,9 km/h (3 Bft) N 360 ° 0,000 mm 9,9 °C 19,2 °C 17,7 km/h (3 Bft) 100,00 %
10.05.2026 10:35 19,2 °C 26,1 °C 53 % 24 % 1013,3 hPa 0,0 l/m² 14,5 km/h (3 Bft) N 360 ° 0,000 mm 9,4 °C 19,2 °C 22,5 km/h (4 Bft) 91,30 %
10.05.2026 10:34 19,3 °C 26,1 °C 54 % 24 % 1013,2 hPa 0,0 l/m² 11,3 km/h (2 Bft) N 360 ° 0,000 mm 9,8 °C 19,3 °C 19,3 km/h (3 Bft) 91,30 %
10.05.2026 10:33 19,2 °C 26,1 °C 55 % 24 % 1013,2 hPa 0,0 l/m² 11,3 km/h (2 Bft) N 360 ° 0,000 mm 9,9 °C 19,2 °C 16,1 km/h (3 Bft) 100,00 %
10.05.2026 10:32 19,1 °C 26,1 °C 56 % 24 % 1013,3 hPa 0,0 l/m² 11,3 km/h (2 Bft) N 360 ° 0,000 mm 10,1 °C 19,1 °C 16,1 km/h (3 Bft) 95,65 %
10.05.2026 10:31 18,8 °C 26,1 °C 55 % 24 % 1013,4 hPa 0,0 l/m² 12,9 km/h (3 Bft) N 360 ° 0,000 mm 9,6 °C 18,8 °C 19,3 km/h (3 Bft) 95,65 %
10.05.2026 10:30 18,8 °C 26,1 °C 54 % 24 % 1013,4 hPa 0,0 l/m² 12,9 km/h (3 Bft) N 360 ° 0,000 mm 9,3 °C 18,8 °C 17,7 km/h (3 Bft) 95,65 %
10.05.2026 10:29 18,9 °C 26,1 °C 54 % 25 % 1013,4 hPa 0,0 l/m² 11,3 km/h (2 Bft) N 360 ° 0,000 mm 9,4 °C 18,9 °C 17,7 km/h (3 Bft) 100,00 %
10.05.2026 10:28 19,2 °C 26,1 °C 54 % 24 % 1013,5 hPa 0,0 l/m² 16,1 km/h (3 Bft) N 360 ° 0,000 mm 9,7 °C 19,2 °C 22,5 km/h (4 Bft) 91,30 %
10.05.2026 10:27 19,2 °C 26,1 °C 56 % 24 % 1013,4 hPa 0,0 l/m² 9,7 km/h (2 Bft) N 360 ° 0,000 mm 10,2 °C 19,2 °C 19,3 km/h (3 Bft) 100,00 %
10.05.2026 10:26 19,1 °C 26,1 °C 55 % 25 % 1013,4 hPa 0,0 l/m² 9,7 km/h (2 Bft) N 360 ° 0,000 mm 9,8 °C 19,1 °C 19,3 km/h (3 Bft) 95,65 %
10.05.2026 10:25 18,9 °C 26,1 °C 54 % 25 % 1013,3 hPa 0,0 l/m² 8,0 km/h (2 Bft) N 360 ° 0,000 mm 9,4 °C 18,9 °C 12,9 km/h (3 Bft) 95,65 %
10.05.2026 10:24 19,1 °C 26,1 °C 54 % 25 % 1013,5 hPa 0,0 l/m² 6,4 km/h (2 Bft) N 360 ° 0,000 mm 9,6 °C 19,1 °C 9,7 km/h (2 Bft) 91,30 %
10.05.2026 10:23 19,1 °C 25,6 °C 56 % 24 % 1013,5 hPa 0,0 l/m² 11,3 km/h (2 Bft) N 360 ° 0,000 mm 10,1 °C 19,1 °C 20,9 km/h (4 Bft) 91,30 %
10.05.2026 10:22 19,1 °C 25,6 °C 55 % 24 % 1013,4 hPa 0,0 l/m² 17,7 km/h (3 Bft) N 360 ° 0,000 mm 9,8 °C 19,1 °C 25,7 km/h (4 Bft) 100,00 %
10.05.2026 10:21 18,9 °C 25,6 °C 57 % 24 % 1013,4 hPa 0,0 l/m² 11,3 km/h (2 Bft) N 360 ° 0,000 mm 10,2 °C 18,9 °C 16,1 km/h (3 Bft) 95,65 %
10.05.2026 10:20 18,8 °C 25,6 °C 57 % 24 % 1013,5 hPa 0,0 l/m² 16,1 km/h (3 Bft) N 360 ° 0,000 mm 10,1 °C 18,8 °C 24,1 km/h (4 Bft) 100,00 %
10.05.2026 10:19 18,6 °C 25,6 °C 56 % 24 % 1013,4 hPa 0,0 l/m² 11,3 km/h (2 Bft) N 360 ° 0,000 mm 9,6 °C 18,6 °C 20,9 km/h (4 Bft) 91,30 %
10.05.2026 10:18 18,4 °C 25,6 °C 56 % 25 % 1013,5 hPa 0,0 l/m² 12,9 km/h (3 Bft) N 360 ° 0,000 mm 9,5 °C 18,4 °C 17,7 km/h (3 Bft) 100,00 %
10.05.2026 10:17 18,3 °C 25,6 °C 56 % 25 % 1013,5 hPa 0,0 l/m² 9,7 km/h (2 Bft) N 360 ° 0,000 mm 9,4 °C 18,3 °C 14,5 km/h (3 Bft) 86,96 %
10.05.2026 10:16 18,4 °C 25,6 °C 54 % 26 % 1013,6 hPa 0,0 l/m² 8,0 km/h (2 Bft) N 360 ° 0,000 mm 8,9 °C 18,4 °C 14,5 km/h (3 Bft) 95,65 %
10.05.2026 10:15 18,4 °C 25,6 °C 57 % 24 % 1013,5 hPa 0,0 l/m² 12,9 km/h (3 Bft) N 360 ° 0,000 mm 9,7 °C 18,4 °C 20,9 km/h (4 Bft) 95,65 %
10.05.2026 10:14 18,2 °C 25,6 °C 55 % 25 % 1013,6 hPa 0,0 l/m² 12,9 km/h (3 Bft) N 360 ° 0,000 mm 9,0 °C 18,2 °C 20,9 km/h (4 Bft) 91,30 %
10.05.2026 10:13 18,1 °C 25,6 °C 55 % 25 % 1013,6 hPa 0,0 l/m² 8,0 km/h (2 Bft) N 360 ° 0,000 mm 8,9 °C 18,1 °C 16,1 km/h (3 Bft) 100,00 %
10.05.2026 10:12 18,1 °C 25,6 °C 55 % 24 % 1013,6 hPa 0,0 l/m² 8,0 km/h (2 Bft) N 360 ° 0,000 mm 8,9 °C 18,1 °C 16,1 km/h (3 Bft) 100,00 %
10.05.2026 10:11 18,2 °C 25,6 °C 56 % 24 % 1013,7 hPa 0,0 l/m² 11,3 km/h (2 Bft) N 360 ° 0,000 mm 9,3 °C 18,2 °C 14,5 km/h (3 Bft) 100,00 %
10.05.2026 10:10 18,3 °C 25,6 °C 54 % 25 % 1013,6 hPa 0,0 l/m² 11,3 km/h (2 Bft) N 360 ° 0,000 mm 8,8 °C 18,3 °C 17,7 km/h (3 Bft) 91,30 %
10.05.2026 10:09 18,5 °C 25,0 °C 55 % 24 % 1013,7 hPa 0,0 l/m² 14,5 km/h (3 Bft) N 360 ° 0,000 mm 9,3 °C 18,5 °C 19,3 km/h (3 Bft) 95,65 %
10.05.2026 10:08 18,6 °C 25,0 °C 55 % 25 % 1013,6 hPa 0,0 l/m² 11,3 km/h (2 Bft) N 360 ° 0,000 mm 9,4 °C 18,6 °C 17,7 km/h (3 Bft) 95,65 %
10.05.2026 10:07 18,5 °C 25,0 °C 55 % 25 % 1013,7 hPa 0,0 l/m² 14,5 km/h (3 Bft) N 360 ° 0,000 mm 9,3 °C 18,5 °C 20,9 km/h (4 Bft) 100,00 %
10.05.2026 10:06 18,4 °C 25,0 °C 55 % 26 % 1013,7 hPa 0,0 l/m² 8,0 km/h (2 Bft) N 360 ° 0,000 mm 9,2 °C 18,4 °C 12,9 km/h (3 Bft) 100,00 %
10.05.2026 10:05 18,5 °C 25,0 °C 55 % 25 % 1013,8 hPa 0,0 l/m² 6,4 km/h (2 Bft) N 360 ° 0,000 mm 9,3 °C 18,5 °C 14,5 km/h (3 Bft) 100,00 %
10.05.2026 10:04 18,4 °C 25,0 °C 56 % 26 % 1013,7 hPa 0,0 l/m² 11,3 km/h (2 Bft) N 360 ° 0,000 mm 9,5 °C 18,4 °C 16,1 km/h (3 Bft) 95,65 %
10.05.2026 10:03 18,4 °C 25,0 °C 56 % 26 % 1013,7 hPa 0,0 l/m² 6,4 km/h (2 Bft) N 360 ° 0,000 mm 9,5 °C 18,4 °C 16,1 km/h (3 Bft) 95,65 %
10.05.2026 10:02 18,3 °C 25,0 °C 56 % 26 % 1013,8 hPa 0,0 l/m² 9,7 km/h (2 Bft) N 360 ° 0,000 mm 9,4 °C 18,3 °C 16,1 km/h (3 Bft) 100,00 %
10.05.2026 10:01 18,3 °C 25,0 °C 55 % 26 % 1013,7 hPa 0,0 l/m² 9,7 km/h (2 Bft) N 360 ° 0,000 mm 9,1 °C 18,3 °C 16,1 km/h (3 Bft) 100,00 %
10.05.2026 10:00 18,3 °C 24,4 °C 56 % 26 % 1013,8 hPa 0,0 l/m² 12,9 km/h (3 Bft) N 360 ° 0,000 mm 9,4 °C 18,3 °C 19,3 km/h (3 Bft) 100,00 %
10.05.2026 09:59 18,1 °C 24,4 °C 57 % 26 % 1013,8 hPa 0,0 l/m² 8,0 km/h (2 Bft) N 360 ° 0,000 mm 9,4 °C 18,1 °C 19,3 km/h (3 Bft) 100,00 %
10.05.2026 09:58 18,1 °C 24,4 °C 56 % 27 % 1013,7 hPa 0,0 l/m² 12,9 km/h (3 Bft) N 360 ° 0,000 mm 9,2 °C 18,1 °C 20,9 km/h (4 Bft) 95,65 %
10.05.2026 09:57 18,0 °C 24,4 °C 57 % 26 % 1013,7 hPa 0,0 l/m² 11,3 km/h (2 Bft) N 360 ° 0,000 mm 9,4 °C 18,0 °C 19,3 km/h (3 Bft) 100,00 %
10.05.2026 09:56 18,0 °C 24,4 °C 57 % 26 % 1013,6 hPa 0,0 l/m² 11,3 km/h (2 Bft) N 360 ° 0,000 mm 9,4 °C 18,0 °C 19,3 km/h (3 Bft) 95,65 %
10.05.2026 09:55 17,9 °C 24,4 °C 57 % 26 % 1013,7 hPa 0,0 l/m² 9,7 km/h (2 Bft) N 360 ° 0,000 mm 9,3 °C 17,9 °C 19,3 km/h (3 Bft) 95,65 %
10.05.2026 09:54 17,8 °C 24,4 °C 58 % 26 % 1013,7 hPa 0,0 l/m² 9,7 km/h (2 Bft) N 360 ° 0,000 mm 9,4 °C 17,8 °C 16,1 km/h (3 Bft) 100,00 %
10.05.2026 09:53 17,8 °C 24,4 °C 58 % 27 % 1013,6 hPa 0,0 l/m² 14,5 km/h (3 Bft) N 360 ° 0,000 mm 9,4 °C 17,8 °C 17,7 km/h (3 Bft) 100,00 %
10.05.2026 09:52 17,6 °C 24,4 °C 57 % 27 % 1013,6 hPa 0,0 l/m² 16,1 km/h (3 Bft) N 360 ° 0,000 mm 9,0 °C 17,6 °C 20,9 km/h (4 Bft) 95,65 %
10.05.2026 09:51 17,6 °C 23,9 °C 57 % 27 % 1013,6 hPa 0,0 l/m² 12,9 km/h (3 Bft) N 360 ° 0,000 mm 9,0 °C 17,6 °C 20,9 km/h (4 Bft) 100,00 %
10.05.2026 09:50 17,7 °C 23,9 °C 58 % 28 % 1013,7 hPa 0,0 l/m² 12,9 km/h (3 Bft) N 360 ° 0,000 mm 9,3 °C 17,7 °C 19,3 km/h (3 Bft) 100,00 %
10.05.2026 09:49 17,7 °C 23,9 °C 57 % 27 % 1013,6 hPa 0,0 l/m² 8,0 km/h (2 Bft) N 360 ° 0,000 mm 9,1 °C 17,7 °C 19,3 km/h (3 Bft) 91,30 %
10.05.2026 09:48 17,6 °C 23,9 °C 58 % 27 % 1013,7 hPa 0,0 l/m² 12,9 km/h (3 Bft) N 360 ° 0,000 mm 9,2 °C 17,6 °C 20,9 km/h (4 Bft) 100,00 %
10.05.2026 09:47 17,6 °C 23,9 °C 58 % 27 % 1013,6 hPa 0,0 l/m² 14,5 km/h (3 Bft) N 360 ° 0,000 mm 9,2 °C 17,6 °C 19,3 km/h (3 Bft) 100,00 %
10.05.2026 09:46 17,6 °C 23,9 °C 58 % 27 % 1013,6 hPa 0,0 l/m² 11,3 km/h (2 Bft) N 360 ° 0,000 mm 9,2 °C 17,6 °C 14,5 km/h (3 Bft) 100,00 %
10.05.2026 09:45 17,5 °C 23,9 °C 59 % 27 % 1013,6 hPa 0,0 l/m² 11,3 km/h (2 Bft) N 360 ° 0,000 mm 9,4 °C 17,5 °C 16,1 km/h (3 Bft) 100,00 %
10.05.2026 09:44 17,4 °C 23,9 °C 60 % 27 % 1013,7 hPa 0,0 l/m² 9,7 km/h (2 Bft) N 360 ° 0,000 mm 9,6 °C 17,4 °C 17,7 km/h (3 Bft) 100,00 %
10.05.2026 09:43 17,3 °C 23,9 °C 59 % 27 % 1013,8 hPa 0,0 l/m² 9,7 km/h (2 Bft) N 360 ° 0,000 mm 9,2 °C 17,3 °C 14,5 km/h (3 Bft) 100,00 %
10.05.2026 09:42 17,3 °C 23,3 °C 59 % 27 % 1013,7 hPa 0,0 l/m² 12,9 km/h (3 Bft) N 360 ° 0,000 mm 9,2 °C 17,3 °C 19,3 km/h (3 Bft) 100,00 %
10.05.2026 09:41 17,3 °C 23,3 °C 59 % 28 % 1013,6 hPa 0,0 l/m² 14,5 km/h (3 Bft) N 360 ° 0,000 mm 9,2 °C 17,3 °C 19,3 km/h (3 Bft) 95,65 %
10.05.2026 09:40 17,2 °C 23,3 °C 59 % 29 % 1013,8 hPa 0,0 l/m² 12,9 km/h (3 Bft) N 360 ° 0,000 mm 9,1 °C 17,2 °C 24,1 km/h (4 Bft) 95,65 %
10.05.2026 09:39 17,2 °C 23,3 °C 58 % 28 % 1013,6 hPa 0,0 l/m² 8,0 km/h (2 Bft) N 360 ° 0,000 mm 8,9 °C 17,2 °C 20,9 km/h (4 Bft) 100,00 %
10.05.2026 09:38 17,2 °C 23,3 °C 58 % 28 % 1013,8 hPa 0,0 l/m² 6,4 km/h (2 Bft) N 360 ° 0,000 mm 8,9 °C 17,2 °C 14,5 km/h (3 Bft) 100,00 %
10.05.2026 09:37 17,2 °C 23,3 °C 58 % 28 % 1013,6 hPa 0,0 l/m² 11,3 km/h (2 Bft) N 360 ° 0,000 mm 8,9 °C 17,2 °C 17,7 km/h (3 Bft) 95,65 %
10.05.2026 09:36 17,2 °C 23,3 °C 58 % 27 % 1013,7 hPa 0,0 l/m² 9,7 km/h (2 Bft) N 360 ° 0,000 mm 8,9 °C 17,2 °C 16,1 km/h (3 Bft) 100,00 %
10.05.2026 09:35 17,2 °C 23,3 °C 59 % 28 % 1013,8 hPa 0,0 l/m² 12,9 km/h (3 Bft) N 360 ° 0,000 mm 9,1 °C 17,2 °C 22,5 km/h (4 Bft) 100,00 %
10.05.2026 09:34 17,1 °C 23,3 °C 58 % 27 % 1013,7 hPa 0,0 l/m² 16,1 km/h (3 Bft) N 360 ° 0,000 mm 8,8 °C 17,1 °C 24,1 km/h (4 Bft) 91,30 %
10.05.2026 09:33 17,1 °C 23,3 °C 58 % 28 % 1013,8 hPa 0,0 l/m² 16,1 km/h (3 Bft) N 360 ° 0,000 mm 8,8 °C 17,1 °C 25,7 km/h (4 Bft) 100,00 %
10.05.2026 09:32 17,1 °C 22,8 °C 58 % 28 % 1013,7 hPa 0,0 l/m² 19,3 km/h (3 Bft) N 360 ° 0,000 mm 8,8 °C 17,1 °C 30,6 km/h (5 Bft) 100,00 %
10.05.2026 09:31 17,1 °C 22,8 °C 58 % 28 % 1013,9 hPa 0,0 l/m² 19,3 km/h (3 Bft) N 360 ° 0,000 mm 8,8 °C 17,1 °C 30,6 km/h (5 Bft) 100,00 %
10.05.2026 09:30 17,1 °C 22,8 °C 59 % 29 % 1013,8 hPa 0,0 l/m² 16,1 km/h (3 Bft) N 360 ° 0,000 mm 9,0 °C 17,1 °C 25,7 km/h (4 Bft) 95,65 %
10.05.2026 09:29 17,1 °C 22,8 °C 59 % 29 % 1013,9 hPa 0,0 l/m² 12,9 km/h (3 Bft) N 360 ° 0,000 mm 9,0 °C 17,1 °C 19,3 km/h (3 Bft) 100,00 %
10.05.2026 09:28 17,0 °C 22,8 °C 59 % 30 % 1013,9 hPa 0,0 l/m² 8,0 km/h (2 Bft) N 360 ° 0,000 mm 8,9 °C 17,0 °C 16,1 km/h (3 Bft) 95,65 %
10.05.2026 09:27 17,0 °C 22,8 °C 61 % 30 % 1013,8 hPa 0,0 l/m² 9,7 km/h (2 Bft) N 360 ° 0,000 mm 9,4 °C 17,0 °C 19,3 km/h (3 Bft) 91,30 %
10.05.2026 09:26 16,9 °C 22,8 °C 60 % 30 % 1013,9 hPa 0,0 l/m² 11,3 km/h (2 Bft) N 360 ° 0,000 mm 9,1 °C 16,9 °C 16,1 km/h (3 Bft) 100,00 %
10.05.2026 09:25 16,8 °C 22,2 °C 59 % 30 % 1014,1 hPa 0,0 l/m² 8,0 km/h (2 Bft) N 360 ° 0,000 mm 8,7 °C 16,8 °C 12,9 km/h (3 Bft) 100,00 %
10.05.2026 09:24 16,8 °C 22,2 °C 59 % 29 % 1013,9 hPa 0,0 l/m² 9,7 km/h (2 Bft) N 360 ° 0,000 mm 8,7 °C 16,8 °C 19,3 km/h (3 Bft) 100,00 %
10.05.2026 09:23 16,8 °C 22,2 °C 59 % 30 % 1014,1 hPa 0,0 l/m² 9,7 km/h (2 Bft) N 360 ° 0,000 mm 8,7 °C 16,8 °C 17,7 km/h (3 Bft) 86,96 %
10.05.2026 09:22 16,8 °C 22,2 °C 60 % 30 % 1014,0 hPa 0,0 l/m² 11,3 km/h (2 Bft) N 360 ° 0,000 mm 9,0 °C 16,8 °C 17,7 km/h (3 Bft) 100,00 %
10.05.2026 09:21 16,7 °C 22,2 °C 60 % 30 % 1014,1 hPa 0,0 l/m² 9,7 km/h (2 Bft) N 360 ° 0,000 mm 8,9 °C 16,7 °C 14,5 km/h (3 Bft) 95,65 %
10.05.2026 09:20 16,7 °C 22,2 °C 59 % 31 % 1014,1 hPa 0,0 l/m² 8,0 km/h (2 Bft) N 360 ° 0,000 mm 8,6 °C 16,7 °C 16,1 km/h (3 Bft) 95,65 %
10.05.2026 09:19 16,7 °C 22,2 °C 59 % 31 % 1014,1 hPa 0,0 l/m² 11,3 km/h (2 Bft) N 360 ° 0,000 mm 8,6 °C 16,7 °C 16,1 km/h (3 Bft) 95,65 %
10.05.2026 09:18 16,6 °C 21,7 °C 60 % 31 % 1014,1 hPa 0,0 l/m² 16,1 km/h (3 Bft) N 360 ° 0,000 mm 8,8 °C 16,6 °C 22,5 km/h (4 Bft) 95,65 %
10.05.2026 09:17 16,6 °C 21,7 °C 59 % 31 % 1014,2 hPa 0,0 l/m² 11,3 km/h (2 Bft) N 360 ° 0,000 mm 8,6 °C 16,6 °C 16,1 km/h (3 Bft) 95,65 %
10.05.2026 09:16 16,6 °C 21,7 °C 59 % 32 % 1014,2 hPa 0,0 l/m² 9,7 km/h (2 Bft) N 360 ° 0,000 mm 8,6 °C 16,6 °C 16,1 km/h (3 Bft) 100,00 %
10.05.2026 09:15 16,6 °C 21,7 °C 60 % 32 % 1014,2 hPa 0,0 l/m² 9,7 km/h (2 Bft) N 360 ° 0,000 mm 8,8 °C 16,6 °C 17,7 km/h (3 Bft) 95,65 %
10.05.2026 09:14 16,6 °C 21,7 °C 60 % 32 % 1014,3 hPa 0,0 l/m² 11,3 km/h (2 Bft) N 360 ° 0,000 mm 8,8 °C 16,6 °C 17,7 km/h (3 Bft) 100,00 %
10.05.2026 09:13 16,6 °C 21,7 °C 60 % 32 % 1014,2 hPa 0,0 l/m² 9,7 km/h (2 Bft) N 360 ° 0,000 mm 8,8 °C 16,6 °C 17,7 km/h (3 Bft) 86,96 %
10.05.2026 09:12 16,5 °C 21,1 °C 60 % 32 % 1014,2 hPa 0,0 l/m² 8,0 km/h (2 Bft) N 360 ° 0,000 mm 8,7 °C 16,5 °C 14,5 km/h (3 Bft) 100,00 %
10.05.2026 09:11 16,4 °C 21,1 °C 60 % 32 % 1014,3 hPa 0,0 l/m² 8,0 km/h (2 Bft) N 360 ° 0,000 mm 8,6 °C 16,4 °C 16,1 km/h (3 Bft) 95,65 %
10.05.2026 09:10 16,4 °C 21,1 °C 61 % 32 % 1014,2 hPa 0,0 l/m² 8,0 km/h (2 Bft) N 360 ° 0,000 mm 8,9 °C 16,4 °C 12,9 km/h (3 Bft) 95,65 %
10.05.2026 09:09 16,4 °C 21,1 °C 60 % 32 % 1014,2 hPa 0,0 l/m² 12,9 km/h (3 Bft) N 360 ° 0,000 mm 8,6 °C 16,4 °C 20,9 km/h (4 Bft) 95,65 %
10.05.2026 09:08 16,4 °C 21,1 °C 60 % 32 % 1014,3 hPa 0,0 l/m² 9,7 km/h (2 Bft) N 360 ° 0,000 mm 8,6 °C 16,4 °C 17,7 km/h (3 Bft) 91,30 %
10.05.2026 09:07 16,4 °C 21,1 °C 61 % 33 % 1014,3 hPa 0,0 l/m² 16,1 km/h (3 Bft) N 360 ° 0,000 mm 8,9 °C 16,4 °C 20,9 km/h (4 Bft) 95,65 %
10.05.2026 09:06 16,3 °C 20,6 °C 61 % 33 % 1014,3 hPa 0,0 l/m² 14,5 km/h (3 Bft) N 360 ° 0,000 mm 8,8 °C 16,3 °C 22,5 km/h (4 Bft) 91,30 %
10.05.2026 09:05 16,3 °C 20,6 °C 60 % 34 % 1014,3 hPa 0,0 l/m² 12,9 km/h (3 Bft) N 360 ° 0,000 mm 8,5 °C 16,3 °C 19,3 km/h (3 Bft) 100,00 %
10.05.2026 09:04 16,3 °C 20,6 °C 61 % 35 % 1014,3 hPa 0,0 l/m² 6,4 km/h (2 Bft) N 360 ° 0,000 mm 8,8 °C 16,3 °C 12,9 km/h (3 Bft) 95,65 %
10.05.2026 09:03 16,2 °C 20,6 °C 61 % 34 % 1014,4 hPa 0,0 l/m² 9,7 km/h (2 Bft) N 360 ° 0,000 mm 8,7 °C 16,2 °C 17,7 km/h (3 Bft) 100,00 %
10.05.2026 09:02 16,2 °C 20,6 °C 61 % 34 % 1014,3 hPa 0,0 l/m² 8,0 km/h (2 Bft) N 360 ° 0,000 mm 8,7 °C 16,2 °C 14,5 km/h (3 Bft) 95,65 %
10.05.2026 09:01 16,1 °C 20,0 °C 61 % 34 % 1014,3 hPa 0,0 l/m² 6,4 km/h (2 Bft) N 360 ° 0,000 mm 8,6 °C 16,1 °C 9,7 km/h (2 Bft) 95,65 %
10.05.2026 09:00 16,1 °C 20,0 °C 61 % 34 % 1014,4 hPa 0,0 l/m² 9,7 km/h (2 Bft) N 360 ° 0,000 mm 8,6 °C 16,1 °C 14,5 km/h (3 Bft) 95,65 %
10.05.2026 08:59 16,0 °C 20,0 °C 62 % 34 % 1014,4 hPa 0,0 l/m² 11,3 km/h (2 Bft) N 360 ° 0,000 mm 8,7 °C 16,0 °C 17,7 km/h (3 Bft) 95,65 %
10.05.2026 08:58 15,9 °C 20,0 °C 62 % 34 % 1014,5 hPa 0,0 l/m² 9,7 km/h (2 Bft) N 360 ° 0,000 mm 8,6 °C 15,9 °C 17,7 km/h (3 Bft) 95,65 %
10.05.2026 08:57 15,9 °C 20,0 °C 62 % 34 % 1014,4 hPa 0,0 l/m² 6,4 km/h (2 Bft) N 360 ° 0,000 mm 8,6 °C 15,9 °C 14,5 km/h (3 Bft) 95,65 %
10.05.2026 08:56 15,9 °C 19,4 °C 63 % 35 % 1014,5 hPa 0,0 l/m² 11,3 km/h (2 Bft) N 360 ° 0,000 mm 8,9 °C 15,9 °C 16,1 km/h (3 Bft) 91,30 %
10.05.2026 08:55 15,8 °C 19,4 °C 62 % 35 % 1014,5 hPa 0,0 l/m² 14,5 km/h (3 Bft) N 360 ° 0,000 mm 8,5 °C 15,8 °C 19,3 km/h (3 Bft) 100,00 %
10.05.2026 08:54 15,7 °C 19,4 °C 62 % 36 % 1014,5 hPa 0,0 l/m² 9,7 km/h (2 Bft) N 360 ° 0,000 mm 8,4 °C 15,7 °C 17,7 km/h (3 Bft) 95,65 %
10.05.2026 08:53 15,7 °C 19,4 °C 62 % 36 % 1014,6 hPa 0,0 l/m² 11,3 km/h (2 Bft) N 360 ° 0,000 mm 8,4 °C 15,7 °C 14,5 km/h (3 Bft) 95,65 %
10.05.2026 08:52 15,7 °C 19,4 °C 61 % 37 % 1014,6 hPa 0,0 l/m² 12,9 km/h (3 Bft) N 360 ° 0,000 mm 8,2 °C 15,7 °C 20,9 km/h (4 Bft) 91,30 %
10.05.2026 08:51 15,6 °C 18,9 °C 61 % 37 % 1014,5 hPa 0,0 l/m² 9,7 km/h (2 Bft) N 360 ° 0,000 mm 8,1 °C 15,6 °C 16,1 km/h (3 Bft) 95,65 %
10.05.2026 08:50 15,6 °C 18,9 °C 62 % 37 % 1014,5 hPa 0,0 l/m² 6,4 km/h (2 Bft) N 360 ° 0,000 mm 8,3 °C 15,6 °C 9,7 km/h (2 Bft) 100,00 %
10.05.2026 08:49 15,6 °C 18,9 °C 62 % 37 % 1014,5 hPa 0,0 l/m² 6,4 km/h (2 Bft) N 360 ° 0,000 mm 8,3 °C 15,6 °C 9,7 km/h (2 Bft) 91,30 %
10.05.2026 08:48 15,6 °C 18,9 °C 62 % 37 % 1014,6 hPa 0,0 l/m² 9,7 km/h (2 Bft) N 360 ° 0,000 mm 8,3 °C 15,6 °C 16,1 km/h (3 Bft) 100,00 %
10.05.2026 08:47 15,6 °C 18,3 °C 63 % 38 % 1014,6 hPa 0,0 l/m² 9,7 km/h (2 Bft) N 360 ° 0,000 mm 8,6 °C 15,6 °C 16,1 km/h (3 Bft) 95,65 %
10.05.2026 08:46 15,6 °C 18,3 °C 63 % 38 % 1014,6 hPa 0,0 l/m² 11,3 km/h (2 Bft) N 360 ° 0,000 mm 8,6 °C 15,6 °C 17,7 km/h (3 Bft) 100,00 %
10.05.2026 08:45 15,6 °C 18,3 °C 62 % 38 % 1014,6 hPa 0,0 l/m² 4,8 km/h (1 Bft) N 360 ° 0,000 mm 8,3 °C 15,6 °C 8,0 km/h (2 Bft) 91,30 %
10.05.2026 08:44 15,5 °C 18,3 °C 63 % 38 % 1014,5 hPa 0,0 l/m² 9,7 km/h (2 Bft) N 360 ° 0,000 mm 8,5 °C 15,5 °C 14,5 km/h (3 Bft) 100,00 %
10.05.2026 08:43 15,4 °C 18,3 °C 62 % 38 % 1014,5 hPa 0,0 l/m² 11,3 km/h (2 Bft) N 360 ° 0,000 mm 8,2 °C 15,4 °C 17,7 km/h (3 Bft) 95,65 %
10.05.2026 08:42 15,4 °C 17,8 °C 62 % 38 % 1014,5 hPa 0,0 l/m² 9,7 km/h (2 Bft) N 360 ° 0,000 mm 8,2 °C 15,4 °C 14,5 km/h (3 Bft) 95,65 %
10.05.2026 08:41 15,4 °C 17,8 °C 63 % 39 % 1014,6 hPa 0,0 l/m² 12,9 km/h (3 Bft) N 360 ° 0,000 mm 8,4 °C 15,4 °C 16,1 km/h (3 Bft) 91,30 %
10.05.2026 08:40 15,4 °C 17,8 °C 63 % 39 % 1014,5 hPa 0,0 l/m² 9,7 km/h (2 Bft) N 360 ° 0,000 mm 8,4 °C 15,4 °C 19,3 km/h (3 Bft) 95,65 %
10.05.2026 08:39 15,4 °C 17,8 °C 62 % 40 % 1014,5 hPa 0,0 l/m² 11,3 km/h (2 Bft) N 360 ° 0,000 mm 8,2 °C 15,4 °C 20,9 km/h (4 Bft) 91,30 %
10.05.2026 08:38 15,4 °C 17,8 °C 62 % 40 % 1014,5 hPa 0,0 l/m² 11,3 km/h (2 Bft) N 360 ° 0,000 mm 8,2 °C 15,4 °C 17,7 km/h (3 Bft) 91,30 %
10.05.2026 08:37 15,4 °C 17,2 °C 62 % 40 % 1014,5 hPa 0,0 l/m² 12,9 km/h (3 Bft) N 360 ° 0,000 mm 8,2 °C 15,4 °C 19,3 km/h (3 Bft) 95,65 %
10.05.2026 08:36 15,4 °C 17,2 °C 62 % 40 % 1014,5 hPa 0,0 l/m² 12,9 km/h (3 Bft) N 360 ° 0,000 mm 8,2 °C 15,4 °C 19,3 km/h (3 Bft) 95,65 %
10.05.2026 08:35 15,3 °C 17,2 °C 63 % 41 % 1014,5 hPa 0,0 l/m² 16,1 km/h (3 Bft) N 360 ° 0,000 mm 8,3 °C 15,3 °C 20,9 km/h (4 Bft) 91,30 %
10.05.2026 08:34 15,3 °C 17,2 °C 63 % 42 % 1014,7 hPa 0,0 l/m² 12,9 km/h (3 Bft) N 360 ° 0,000 mm 8,3 °C 15,3 °C 19,3 km/h (3 Bft) 91,30 %
10.05.2026 08:33 15,3 °C 17,2 °C 63 % 42 % 1014,6 hPa 0,0 l/m² 4,8 km/h (1 Bft) N 360 ° 0,000 mm 8,3 °C 15,3 °C 9,7 km/h (2 Bft) 95,65 %
10.05.2026 08:32 15,3 °C 16,7 °C 63 % 42 % 1014,6 hPa 0,0 l/m² 8,0 km/h (2 Bft) N 360 ° 0,000 mm 8,3 °C 15,3 °C 12,9 km/h (3 Bft) 91,30 %
10.05.2026 08:31 15,3 °C 16,7 °C 63 % 42 % 1014,7 hPa 0,0 l/m² 11,3 km/h (2 Bft) N 360 ° 0,000 mm 8,3 °C 15,3 °C 14,5 km/h (3 Bft) 95,65 %
10.05.2026 08:30 15,3 °C 16,7 °C 63 % 42 % 1014,7 hPa 0,0 l/m² 11,3 km/h (2 Bft) N 360 ° 0,000 mm 8,3 °C 15,3 °C 17,7 km/h (3 Bft) 91,30 %
10.05.2026 08:29 15,2 °C 16,7 °C 63 % 43 % 1014,7 hPa 0,0 l/m² 11,3 km/h (2 Bft) N 360 ° 0,000 mm 8,2 °C 15,2 °C 16,1 km/h (3 Bft) 100,00 %
10.05.2026 08:28 15,2 °C 16,1 °C 64 % 43 % 1014,7 hPa 0,0 l/m² 4,8 km/h (1 Bft) N 360 ° 0,000 mm 8,4 °C 15,2 °C 8,0 km/h (2 Bft) 86,96 %
10.05.2026 08:27 15,2 °C 16,1 °C 65 % 43 % 1014,7 hPa 0,0 l/m² 8,0 km/h (2 Bft) N 360 ° 0,000 mm 8,7 °C 15,2 °C 16,1 km/h (3 Bft) 100,00 %
10.05.2026 08:26 15,1 °C 16,1 °C 65 % 44 % 1014,6 hPa 0,0 l/m² 9,7 km/h (2 Bft) N 360 ° 0,000 mm 8,6 °C 15,1 °C 16,1 km/h (3 Bft) 86,96 %
10.05.2026 08:25 15,0 °C 16,1 °C 65 % 44 % 1014,7 hPa 0,0 l/m² 8,0 km/h (2 Bft) N 360 ° 0,000 mm 8,5 °C 15,0 °C 14,5 km/h (3 Bft) 100,00 %
10.05.2026 08:24 14,9 °C 16,1 °C 65 % 45 % 1014,7 hPa 0,0 l/m² 6,4 km/h (2 Bft) N 360 ° 0,000 mm 8,4 °C 14,9 °C 8,0 km/h (2 Bft) 82,61 %
10.05.2026 08:23 14,9 °C 15,6 °C 65 % 45 % 1014,7 hPa 0,0 l/m² 11,3 km/h (2 Bft) N 360 ° 0,000 mm 8,4 °C 14,9 °C 19,3 km/h (3 Bft) 91,30 %
10.05.2026 08:22 14,8 °C 15,6 °C 65 % 45 % 1014,7 hPa 0,0 l/m² 6,4 km/h (2 Bft) N 360 ° 0,000 mm 8,3 °C 14,8 °C 9,7 km/h (2 Bft) 95,65 %
10.05.2026 08:21 14,7 °C 15,6 °C 65 % 45 % 1014,8 hPa 0,0 l/m² 4,8 km/h (1 Bft) N 360 ° 0,000 mm 8,2 °C 14,7 °C 8,0 km/h (2 Bft) 91,30 %
10.05.2026 08:20 14,7 °C 15,6 °C 65 % 45 % 1014,8 hPa 0,0 l/m² 9,7 km/h (2 Bft) N 360 ° 0,000 mm 8,2 °C 14,7 °C 14,5 km/h (3 Bft) 100,00 %
10.05.2026 08:19 14,6 °C 15,6 °C 65 % 45 % 1014,8 hPa 0,0 l/m² 11,3 km/h (2 Bft) N 360 ° 0,000 mm 8,1 °C 14,6 °C 16,1 km/h (3 Bft) 86,96 %
10.05.2026 08:18 14,6 °C 15,0 °C 65 % 45 % 1014,7 hPa 0,0 l/m² 9,7 km/h (2 Bft) N 360 ° 0,000 mm 8,1 °C 14,6 °C 17,7 km/h (3 Bft) 95,65 %
10.05.2026 08:17 14,5 °C 15,0 °C 65 % 46 % 1014,8 hPa 0,0 l/m² 8,0 km/h (2 Bft) N 360 ° 0,000 mm 8,0 °C 14,5 °C 14,5 km/h (3 Bft) 86,96 %
10.05.2026 08:16 14,4 °C 15,0 °C 66 % 46 % 1014,9 hPa 0,0 l/m² 8,0 km/h (2 Bft) N 360 ° 0,000 mm 8,1 °C 14,4 °C 12,9 km/h (3 Bft) 100,00 %
10.05.2026 08:15 14,4 °C 15,0 °C 66 % 46 % 1014,9 hPa 0,0 l/m² 14,5 km/h (3 Bft) N 360 ° 0,000 mm 8,1 °C 14,4 °C 17,7 km/h (3 Bft) 86,96 %
10.05.2026 08:14 14,3 °C 14,4 °C 66 % 47 % 1014,8 hPa 0,0 l/m² 11,3 km/h (2 Bft) N 360 ° 0,000 mm 8,0 °C 14,3 °C 19,3 km/h (3 Bft) 95,65 %
10.05.2026 08:13 14,3 °C 14,4 °C 66 % 47 % 1014,9 hPa 0,0 l/m² 6,4 km/h (2 Bft) N 360 ° 0,000 mm 8,0 °C 14,3 °C 14,5 km/h (3 Bft) 95,65 %
10.05.2026 08:12 14,2 °C 14,4 °C 66 % 47 % 1015,0 hPa 0,0 l/m² 8,0 km/h (2 Bft) N 360 ° 0,000 mm 7,9 °C 14,2 °C 12,9 km/h (3 Bft) 91,30 %
10.05.2026 08:11 14,2 °C 14,4 °C 66 % 47 % 1014,9 hPa 0,0 l/m² 9,7 km/h (2 Bft) N 360 ° 0,000 mm 7,9 °C 14,2 °C 16,1 km/h (3 Bft) 91,30 %
10.05.2026 08:10 14,1 °C 14,4 °C 66 % 48 % 1014,9 hPa 0,0 l/m² 9,7 km/h (2 Bft) N 360 ° 0,000 mm 7,8 °C 14,1 °C 14,5 km/h (3 Bft) 91,30 %
10.05.2026 08:09 14,1 °C 14,4 °C 66 % 48 % 1014,8 hPa 0,0 l/m² 11,3 km/h (2 Bft) N 360 ° 0,000 mm 7,8 °C 14,1 °C 16,1 km/h (3 Bft) 95,65 %
10.05.2026 08:08 14,1 °C 13,9 °C 67 % 48 % 1014,8 hPa 0,0 l/m² 11,3 km/h (2 Bft) N 360 ° 0,000 mm 8,1 °C 14,1 °C 17,7 km/h (3 Bft) 95,65 %
10.05.2026 08:07 14,0 °C 13,9 °C 67 % 48 % 1014,9 hPa 0,0 l/m² 9,7 km/h (2 Bft) N 360 ° 0,000 mm 8,0 °C 14,0 °C 14,5 km/h (3 Bft) 95,65 %
10.05.2026 08:06 13,9 °C 13,9 °C 67 % 49 % 1014,8 hPa 0,0 l/m² 9,7 km/h (2 Bft) N 360 ° 0,000 mm 7,9 °C 13,9 °C 16,1 km/h (3 Bft) 91,30 %
10.05.2026 08:05 13,8 °C 13,9 °C 67 % 49 % 1014,8 hPa 0,0 l/m² 12,9 km/h (3 Bft) N 360 ° 0,000 mm 7,8 °C 13,8 °C 20,9 km/h (4 Bft) 95,65 %
10.05.2026 08:04 13,8 °C 13,9 °C 67 % 49 % 1014,8 hPa 0,0 l/m² 4,8 km/h (1 Bft) N 360 ° 0,000 mm 7,8 °C 13,8 °C 9,7 km/h (2 Bft) 95,65 %
10.05.2026 08:03 13,8 °C 13,9 °C 67 % 49 % 1014,7 hPa 0,0 l/m² 6,4 km/h (2 Bft) N 360 ° 0,000 mm 7,8 °C 13,8 °C 12,9 km/h (3 Bft) 86,96 %
10.05.2026 08:02 13,7 °C 13,9 °C 67 % 49 % 1014,8 hPa 0,0 l/m² 8,0 km/h (2 Bft) N 360 ° 0,000 mm 7,7 °C 13,7 °C 12,9 km/h (3 Bft) 95,65 %
10.05.2026 08:01 13,7 °C 13,3 °C 67 % 49 % 1014,9 hPa 0,0 l/m² 11,3 km/h (2 Bft) N 360 ° 0,000 mm 7,7 °C 13,7 °C 19,3 km/h (3 Bft) 100,00 %
10.05.2026 08:00 13,7 °C 13,3 °C 67 % 49 % 1014,9 hPa 0,0 l/m² 14,5 km/h (3 Bft) N 360 ° 0,000 mm 7,7 °C 13,7 °C 22,5 km/h (4 Bft) 95,65 %
10.05.2026 07:59 13,6 °C 13,3 °C 67 % 49 % 1014,9 hPa 0,0 l/m² 14,5 km/h (3 Bft) N 360 ° 0,000 mm 7,6 °C 13,6 °C 22,5 km/h (4 Bft) 95,65 %
10.05.2026 07:58 13,6 °C 13,3 °C 68 % 49 % 1014,9 hPa 0,0 l/m² 12,9 km/h (3 Bft) N 360 ° 0,000 mm 7,8 °C 13,6 °C 19,3 km/h (3 Bft) 95,65 %
10.05.2026 07:57 13,6 °C 13,3 °C 68 % 49 % 1015,0 hPa 0,0 l/m² 12,9 km/h (3 Bft) N 360 ° 0,000 mm 7,8 °C 13,6 °C 22,5 km/h (4 Bft) 100,00 %
10.05.2026 07:56 13,4 °C 13,3 °C 68 % 49 % 1014,9 hPa 0,0 l/m² 12,9 km/h (3 Bft) N 360 ° 0,000 mm 7,6 °C 13,4 °C 17,7 km/h (3 Bft) 91,30 %
10.05.2026 07:55 13,4 °C 13,3 °C 68 % 50 % 1015,0 hPa 0,0 l/m² 9,7 km/h (2 Bft) N 360 ° 0,000 mm 7,6 °C 13,4 °C 14,5 km/h (3 Bft) 100,00 %
10.05.2026 07:54 13,4 °C 13,3 °C 68 % 50 % 1015,0 hPa 0,0 l/m² 8,0 km/h (2 Bft) N 360 ° 0,000 mm 7,6 °C 13,4 °C 16,1 km/h (3 Bft) 95,65 %
10.05.2026 07:53 13,3 °C 13,3 °C 68 % 50 % 1015,0 hPa 0,0 l/m² 4,8 km/h (1 Bft) N 360 ° 0,000 mm 7,5 °C 13,3 °C 9,7 km/h (2 Bft) 100,00 %
10.05.2026 07:52 13,3 °C 13,3 °C 68 % 50 % 1015,0 hPa 0,0 l/m² 12,9 km/h (3 Bft) N 360 ° 0,000 mm 7,5 °C 13,3 °C 19,3 km/h (3 Bft) 95,65 %
10.05.2026 07:51 13,3 °C 13,3 °C 67 % 50 % 1015,0 hPa 0,0 l/m² 14,5 km/h (3 Bft) N 360 ° 0,000 mm 7,3 °C 13,3 °C 20,9 km/h (4 Bft) 95,65 %
10.05.2026 07:50 13,2 °C 12,8 °C 67 % 50 % 1015,2 hPa 0,0 l/m² 11,3 km/h (2 Bft) N 360 ° 0,000 mm 7,2 °C 13,2 °C 17,7 km/h (3 Bft) 100,00 %
10.05.2026 07:49 13,2 °C 12,8 °C 68 % 50 % 1015,1 hPa 0,0 l/m² 16,1 km/h (3 Bft) N 360 ° 0,000 mm 7,4 °C 13,2 °C 20,9 km/h (4 Bft) 91,30 %
10.05.2026 07:48 13,2 °C 12,8 °C 68 % 50 % 1015,1 hPa 0,0 l/m² 11,3 km/h (2 Bft) N 360 ° 0,000 mm 7,4 °C 13,2 °C 19,3 km/h (3 Bft) 100,00 %
10.05.2026 07:47 13,2 °C 12,8 °C 69 % 50 % 1015,1 hPa 0,0 l/m² 14,5 km/h (3 Bft) N 360 ° 0,000 mm 7,6 °C 13,2 °C 17,7 km/h (3 Bft) 91,30 %
10.05.2026 07:46 13,1 °C 12,8 °C 69 % 50 % 1015,1 hPa 0,0 l/m² 11,3 km/h (2 Bft) N 360 ° 0,000 mm 7,5 °C 13,1 °C 16,1 km/h (3 Bft) 100,00 %
10.05.2026 07:45 13,1 °C 12,8 °C 69 % 50 % 1015,2 hPa 0,0 l/m² 11,3 km/h (2 Bft) N 360 ° 0,000 mm 7,5 °C 13,1 °C 16,1 km/h (3 Bft) 100,00 %
10.05.2026 07:44 13,1 °C 12,8 °C 69 % 50 % 1015,1 hPa 0,0 l/m² 12,9 km/h (3 Bft) N 360 ° 0,000 mm 7,5 °C 13,1 °C 20,9 km/h (4 Bft) 95,65 %
10.05.2026 07:43 13,0 °C 12,8 °C 69 % 51 % 1015,1 hPa 0,0 l/m² 14,5 km/h (3 Bft) N 360 ° 0,000 mm 7,4 °C 13,0 °C 17,7 km/h (3 Bft) 100,00 %
10.05.2026 07:42 12,9 °C 12,8 °C 69 % 51 % 1015,1 hPa 0,0 l/m² 12,9 km/h (3 Bft) N 360 ° 0,000 mm 7,4 °C 12,9 °C 17,7 km/h (3 Bft) 95,65 %
10.05.2026 07:41 12,9 °C 12,8 °C 69 % 51 % 1015,1 hPa 0,0 l/m² 11,3 km/h (2 Bft) N 360 ° 0,000 mm 7,4 °C 12,9 °C 17,7 km/h (3 Bft) 100,00 %
10.05.2026 07:40 12,8 °C 12,8 °C 69 % 51 % 1015,1 hPa 0,0 l/m² 9,7 km/h (2 Bft) N 360 ° 0,000 mm 7,3 °C 12,8 °C 14,5 km/h (3 Bft) 95,65 %
10.05.2026 07:39 12,8 °C 12,8 °C 69 % 51 % 1015,0 hPa 0,0 l/m² 12,9 km/h (3 Bft) N 360 ° 0,000 mm 7,3 °C 12,8 °C 17,7 km/h (3 Bft) 100,00 %
10.05.2026 07:38 12,8 °C 12,8 °C 69 % 51 % 1015,0 hPa 0,0 l/m² 14,5 km/h (3 Bft) N 360 ° 0,000 mm 7,3 °C 12,8 °C 22,5 km/h (4 Bft) 100,00 %
10.05.2026 07:37 12,7 °C 12,8 °C 69 % 51 % 1015,0 hPa 0,0 l/m² 6,4 km/h (2 Bft) N 360 ° 0,000 mm 7,2 °C 12,7 °C 9,7 km/h (2 Bft) 100,00 %
10.05.2026 07:36 12,7 °C 12,8 °C 70 % 51 % 1015,0 hPa 0,0 l/m² 8,0 km/h (2 Bft) N 360 ° 0,000 mm 7,4 °C 12,7 °C 12,9 km/h (3 Bft) 100,00 %
10.05.2026 07:35 12,6 °C 12,2 °C 70 % 51 % 1015,0 hPa 0,0 l/m² 9,7 km/h (2 Bft) N 360 ° 0,000 mm 7,3 °C 12,6 °C 20,9 km/h (4 Bft) 91,30 %
10.05.2026 07:34 12,6 °C 12,2 °C 70 % 51 % 1015,0 hPa 0,0 l/m² 9,7 km/h (2 Bft) N 360 ° 0,000 mm 7,3 °C 12,6 °C 17,7 km/h (3 Bft) 95,65 %
10.05.2026 07:33 12,5 °C 12,2 °C 70 % 51 % 1015,0 hPa 0,0 l/m² 12,9 km/h (3 Bft) N 360 ° 0,000 mm 7,2 °C 12,5 °C 19,3 km/h (3 Bft) 100,00 %
10.05.2026 07:32 12,4 °C 12,2 °C 70 % 51 % 1015,0 hPa 0,0 l/m² 9,7 km/h (2 Bft) N 360 ° 0,000 mm 7,1 °C 12,4 °C 16,1 km/h (3 Bft) 100,00 %
10.05.2026 07:31 12,4 °C 12,2 °C 71 % 51 % 1015,0 hPa 0,0 l/m² 14,5 km/h (3 Bft) N 360 ° 0,000 mm 7,3 °C 12,4 °C 17,7 km/h (3 Bft) 100,00 %
10.05.2026 07:30 12,4 °C 12,2 °C 71 % 51 % 1015,0 hPa 0,0 l/m² 12,9 km/h (3 Bft) N 360 ° 0,000 mm 7,3 °C 12,4 °C 20,9 km/h (4 Bft) 100,00 %
10.05.2026 07:29 12,3 °C 12,2 °C 71 % 51 % 1014,9 hPa 0,0 l/m² 12,9 km/h (3 Bft) N 360 ° 0,000 mm 7,2 °C 12,3 °C 22,5 km/h (4 Bft) 100,00 %
10.05.2026 07:28 12,2 °C 12,2 °C 71 % 52 % 1015,0 hPa 0,0 l/m² 9,7 km/h (2 Bft) N 360 ° 0,000 mm 7,1 °C 12,2 °C 16,1 km/h (3 Bft) 95,65 %
10.05.2026 07:27 12,2 °C 12,2 °C 71 % 52 % 1014,9 hPa 0,0 l/m² 8,0 km/h (2 Bft) N 360 ° 0,000 mm 7,1 °C 12,2 °C 17,7 km/h (3 Bft) 100,00 %
10.05.2026 07:26 12,1 °C 12,2 °C 72 % 52 % 1014,9 hPa 0,0 l/m² 12,9 km/h (3 Bft) N 360 ° 0,000 mm 7,2 °C 12,1 °C 22,5 km/h (4 Bft) 100,00 %
10.05.2026 07:25 12,1 °C 12,2 °C 72 % 52 % 1014,9 hPa 0,0 l/m² 9,7 km/h (2 Bft) N 360 ° 0,000 mm 7,2 °C 12,1 °C 17,7 km/h (3 Bft) 95,65 %
10.05.2026 07:24 11,9 °C 12,2 °C 72 % 52 % 1014,9 hPa 0,0 l/m² 8,0 km/h (2 Bft) N 360 ° 0,000 mm 7,0 °C 11,9 °C 9,7 km/h (2 Bft) 100,00 %
10.05.2026 07:23 11,9 °C 12,2 °C 72 % 52 % 1014,9 hPa 0,0 l/m² 9,7 km/h (2 Bft) N 360 ° 0,000 mm 7,0 °C 11,9 °C 16,1 km/h (3 Bft) 100,00 %
10.05.2026 07:22 11,8 °C 12,2 °C 72 % 52 % 1014,8 hPa 0,0 l/m² 9,7 km/h (2 Bft) N 360 ° 0,000 mm 6,9 °C 11,8 °C 16,1 km/h (3 Bft) 95,65 %
10.05.2026 07:21 11,7 °C 12,2 °C 72 % 52 % 1014,9 hPa 0,0 l/m² 6,4 km/h (2 Bft) N 360 ° 0,000 mm 6,8 °C 11,7 °C 9,7 km/h (2 Bft) 100,00 %
10.05.2026 07:20 11,6 °C 12,2 °C 73 % 52 % 1014,8 hPa 0,0 l/m² 9,7 km/h (2 Bft) N 360 ° 0,000 mm 6,9 °C 11,6 °C 16,1 km/h (3 Bft) 95,65 %
10.05.2026 07:19 11,6 °C 12,2 °C 73 % 52 % 1014,9 hPa 0,0 l/m² 11,3 km/h (2 Bft) N 360 ° 0,000 mm 6,9 °C 11,6 °C 19,3 km/h (3 Bft) 100,00 %
10.05.2026 07:18 11,5 °C 12,2 °C 73 % 52 % 1014,8 hPa 0,0 l/m² 16,1 km/h (3 Bft) N 360 ° 0,000 mm 6,8 °C 11,5 °C 20,9 km/h (4 Bft) 91,30 %
10.05.2026 07:17 11,4 °C 12,2 °C 73 % 52 % 1014,8 hPa 0,0 l/m² 12,9 km/h (3 Bft) N 360 ° 0,000 mm 6,7 °C 11,4 °C 17,7 km/h (3 Bft) 95,65 %
10.05.2026 07:16 11,3 °C 12,2 °C 73 % 52 % 1014,8 hPa 0,0 l/m² 8,0 km/h (2 Bft) N 360 ° 0,000 mm 6,6 °C 11,3 °C 14,5 km/h (3 Bft) 100,00 %
10.05.2026 07:15 11,3 °C 12,2 °C 74 % 52 % 1014,8 hPa 0,0 l/m² 9,7 km/h (2 Bft) N 360 ° 0,000 mm 6,8 °C 11,3 °C 14,5 km/h (3 Bft) 100,00 %
10.05.2026 07:14 11,3 °C 12,2 °C 74 % 52 % 1014,8 hPa 0,0 l/m² 4,8 km/h (1 Bft) N 360 ° 0,000 mm 6,8 °C 11,3 °C 8,0 km/h (2 Bft) 100,00 %
10.05.2026 07:13 11,2 °C 12,2 °C 74 % 52 % 1014,8 hPa 0,0 l/m² 9,7 km/h (2 Bft) N 360 ° 0,000 mm 6,7 °C 11,2 °C 14,5 km/h (3 Bft) 95,65 %
10.05.2026 07:12 11,2 °C 12,2 °C 74 % 52 % 1014,8 hPa 0,0 l/m² 8,0 km/h (2 Bft) N 360 ° 0,000 mm 6,7 °C 11,2 °C 14,5 km/h (3 Bft) 100,00 %
10.05.2026 07:11 11,2 °C 12,2 °C 74 % 52 % 1014,9 hPa 0,0 l/m² 12,9 km/h (3 Bft) N 360 ° 0,000 mm 6,7 °C 11,2 °C 17,7 km/h (3 Bft) 100,00 %
10.05.2026 07:10 11,1 °C 12,2 °C 74 % 52 % 1014,8 hPa 0,0 l/m² 6,4 km/h (2 Bft) N 360 ° 0,000 mm 6,6 °C 11,1 °C 9,7 km/h (2 Bft) 100,00 %
10.05.2026 07:09 11,1 °C 11,7 °C 74 % 52 % 1014,9 hPa 0,0 l/m² 9,7 km/h (2 Bft) N 360 ° 0,000 mm 6,6 °C 11,1 °C 16,1 km/h (3 Bft) 95,65 %
10.05.2026 07:08 11,1 °C 11,7 °C 74 % 52 % 1014,9 hPa 0,0 l/m² 8,0 km/h (2 Bft) N 360 ° 0,000 mm 6,6 °C 11,1 °C 16,1 km/h (3 Bft) 95,65 %
10.05.2026 07:07 11,0 °C 11,7 °C 74 % 52 % 1014,9 hPa 0,0 l/m² 11,3 km/h (2 Bft) N 360 ° 0,000 mm 6,5 °C 11,0 °C 16,1 km/h (3 Bft) 100,00 %
10.05.2026 07:06 10,9 °C 11,7 °C 74 % 52 % 1015,0 hPa 0,0 l/m² 14,5 km/h (3 Bft) N 360 ° 0,000 mm 6,5 °C 10,9 °C 19,3 km/h (3 Bft) 95,65 %
10.05.2026 07:05 10,9 °C 11,7 °C 74 % 52 % 1014,9 hPa 0,0 l/m² 9,7 km/h (2 Bft) N 360 ° 0,000 mm 6,5 °C 10,9 °C 14,5 km/h (3 Bft) 100,00 %
10.05.2026 07:04 10,9 °C 11,7 °C 74 % 52 % 1014,8 hPa 0,0 l/m² 4,8 km/h (1 Bft) N 360 ° 0,000 mm 6,5 °C 10,9 °C 9,7 km/h (2 Bft) 100,00 %
10.05.2026 07:03 10,9 °C 11,7 °C 74 % 52 % 1014,9 hPa 0,0 l/m² 11,3 km/h (2 Bft) N 360 ° 0,000 mm 6,5 °C 10,9 °C 16,1 km/h (3 Bft) 95,65 %
10.05.2026 07:02 10,9 °C 11,7 °C 74 % 52 % 1015,0 hPa 0,0 l/m² 14,5 km/h (3 Bft) N 360 ° 0,000 mm 6,5 °C 10,9 °C 20,9 km/h (4 Bft) 95,65 %
10.05.2026 07:01 10,9 °C 11,7 °C 75 % 52 % 1014,9 hPa 0,0 l/m² 9,7 km/h (2 Bft) N 360 ° 0,000 mm 6,6 °C 10,9 °C 16,1 km/h (3 Bft) 95,65 %
10.05.2026 07:00 10,8 °C 11,7 °C 75 % 52 % 1014,9 hPa 0,0 l/m² 11,3 km/h (2 Bft) N 360 ° 0,000 mm 6,5 °C 10,8 °C 17,7 km/h (3 Bft) 100,00 %
10.05.2026 06:59 10,8 °C 11,7 °C 75 % 52 % 1014,9 hPa 0,0 l/m² 3,2 km/h (1 Bft) N 360 ° 0,000 mm 6,5 °C 10,8 °C 9,7 km/h (2 Bft) 95,65 %
10.05.2026 06:58 10,8 °C 11,7 °C 75 % 52 % 1014,9 hPa 0,0 l/m² 8,0 km/h (2 Bft) N 360 ° 0,000 mm 6,5 °C 10,8 °C 14,5 km/h (3 Bft) 95,65 %
10.05.2026 06:57 10,8 °C 11,7 °C 75 % 52 % 1014,9 hPa 0,0 l/m² 9,7 km/h (2 Bft) N 360 ° 0,000 mm 6,5 °C 10,8 °C 17,7 km/h (3 Bft) 100,00 %
10.05.2026 06:56 10,8 °C 11,7 °C 75 % 52 % 1014,9 hPa 0,0 l/m² 8,0 km/h (2 Bft) N 360 ° 0,000 mm 6,5 °C 10,8 °C 12,9 km/h (3 Bft) 100,00 %
10.05.2026 06:55 10,7 °C 11,7 °C 75 % 52 % 1015,0 hPa 0,0 l/m² 9,7 km/h (2 Bft) N 360 ° 0,000 mm 6,5 °C 10,7 °C 14,5 km/h (3 Bft) 100,00 %
10.05.2026 06:54 10,7 °C 11,7 °C 75 % 52 % 1015,0 hPa 0,0 l/m² 8,0 km/h (2 Bft) N 360 ° 0,000 mm 6,5 °C 10,7 °C 12,9 km/h (3 Bft) 100,00 %
10.05.2026 06:53 10,7 °C 11,7 °C 75 % 52 % 1015,0 hPa 0,0 l/m² 8,0 km/h (2 Bft) N 360 ° 0,000 mm 6,5 °C 10,7 °C 16,1 km/h (3 Bft) 95,65 %
10.05.2026 06:52 10,7 °C 11,7 °C 75 % 52 % 1014,9 hPa 0,0 l/m² 12,9 km/h (3 Bft) N 360 ° 0,000 mm 6,5 °C 10,7 °C 19,3 km/h (3 Bft) 95,65 %
10.05.2026 06:51 10,7 °C 11,7 °C 75 % 52 % 1015,0 hPa 0,0 l/m² 8,0 km/h (2 Bft) N 360 ° 0,000 mm 6,5 °C 10,7 °C 16,1 km/h (3 Bft) 100,00 %
10.05.2026 06:50 10,7 °C 11,7 °C 75 % 52 % 1015,0 hPa 0,0 l/m² 12,9 km/h (3 Bft) N 360 ° 0,000 mm 6,5 °C 10,7 °C 19,3 km/h (3 Bft) 100,00 %
10.05.2026 06:49 10,6 °C 11,7 °C 75 % 52 % 1015,0 hPa 0,0 l/m² 14,5 km/h (3 Bft) N 360 ° 0,000 mm 6,4 °C 10,6 °C 22,5 km/h (4 Bft) 100,00 %
10.05.2026 06:48 10,6 °C 11,7 °C 75 % 53 % 1015,0 hPa 0,0 l/m² 8,0 km/h (2 Bft) N 360 ° 0,000 mm 6,4 °C 10,6 °C 19,3 km/h (3 Bft) 100,00 %
10.05.2026 06:47 10,6 °C 11,7 °C 75 % 53 % 1015,0 hPa 0,0 l/m² 12,9 km/h (3 Bft) N 360 ° 0,000 mm 6,4 °C 10,6 °C 17,7 km/h (3 Bft) 95,65 %
10.05.2026 06:46 10,6 °C 11,7 °C 75 % 53 % 1015,0 hPa 0,0 l/m² 8,0 km/h (2 Bft) N 360 ° 0,000 mm 6,4 °C 10,6 °C 14,5 km/h (3 Bft) 95,65 %
10.05.2026 06:45 10,6 °C 11,7 °C 75 % 53 % 1015,0 hPa 0,0 l/m² 6,4 km/h (2 Bft) N 360 ° 0,000 mm 6,4 °C 10,6 °C 12,9 km/h (3 Bft) 95,65 %
10.05.2026 06:44 10,6 °C 11,7 °C 76 % 53 % 1015,0 hPa 0,0 l/m² 9,7 km/h (2 Bft) N 360 ° 0,000 mm 6,5 °C 10,6 °C 14,5 km/h (3 Bft) 95,65 %
10.05.2026 06:43 10,5 °C 11,7 °C 75 % 53 % 1015,0 hPa 0,0 l/m² 4,8 km/h (1 Bft) N 360 ° 0,000 mm 6,3 °C 10,5 °C 8,0 km/h (2 Bft) 100,00 %
10.05.2026 06:42 10,5 °C 11,7 °C 76 % 53 % 1015,1 hPa 0,0 l/m² 9,7 km/h (2 Bft) N 360 ° 0,000 mm 6,5 °C 10,5 °C 14,5 km/h (3 Bft) 91,30 %
10.05.2026 06:41 10,5 °C 11,7 °C 76 % 53 % 1015,0 hPa 0,0 l/m² 9,7 km/h (2 Bft) N 360 ° 0,000 mm 6,5 °C 10,5 °C 14,5 km/h (3 Bft) 100,00 %
10.05.2026 06:40 10,4 °C 11,7 °C 75 % 53 % 1015,0 hPa 0,0 l/m² 11,3 km/h (2 Bft) N 360 ° 0,000 mm 6,2 °C 10,4 °C 17,7 km/h (3 Bft) 95,65 %
10.05.2026 06:39 10,4 °C 11,7 °C 76 % 53 % 1015,1 hPa 0,0 l/m² 8,0 km/h (2 Bft) N 360 ° 0,000 mm 6,4 °C 10,4 °C 16,1 km/h (3 Bft) 95,65 %
10.05.2026 06:38 10,4 °C 11,7 °C 76 % 53 % 1015,0 hPa 0,0 l/m² 6,4 km/h (2 Bft) N 360 ° 0,000 mm 6,4 °C 10,4 °C 9,7 km/h (2 Bft) 91,30 %
10.05.2026 06:37 10,4 °C 11,7 °C 76 % 53 % 1015,1 hPa 0,0 l/m² 8,0 km/h (2 Bft) N 360 ° 0,000 mm 6,4 °C 10,4 °C 16,1 km/h (3 Bft) 95,65 %
10.05.2026 06:36 10,4 °C 11,7 °C 76 % 53 % 1015,1 hPa 0,0 l/m² 6,4 km/h (2 Bft) N 360 ° 0,000 mm 6,4 °C 10,4 °C 8,0 km/h (2 Bft) 100,00 %
10.05.2026 06:35 10,4 °C 11,7 °C 76 % 53 % 1015,0 hPa 0,0 l/m² 6,4 km/h (2 Bft) N 360 ° 0,000 mm 6,4 °C 10,4 °C 8,0 km/h (2 Bft) 95,65 %
10.05.2026 06:34 10,4 °C 11,7 °C 75 % 53 % 1015,1 hPa 0,0 l/m² 6,4 km/h (2 Bft) N 360 ° 0,000 mm 6,2 °C 10,4 °C 9,7 km/h (2 Bft) 100,00 %
10.05.2026 06:33 10,4 °C 11,7 °C 76 % 53 % 1015,1 hPa 0,0 l/m² 6,4 km/h (2 Bft) N 360 ° 0,000 mm 6,4 °C 10,4 °C 9,7 km/h (2 Bft) 95,65 %
10.05.2026 06:32 10,3 °C 11,7 °C 76 % 53 % 1015,1 hPa 0,0 l/m² 8,0 km/h (2 Bft) N 360 ° 0,000 mm 6,3 °C 10,3 °C 12,9 km/h (3 Bft) 100,00 %
10.05.2026 06:31 10,3 °C 11,7 °C 76 % 53 % 1015,2 hPa 0,0 l/m² 8,0 km/h (2 Bft) N 360 ° 0,000 mm 6,3 °C 10,3 °C 12,9 km/h (3 Bft) 86,96 %
10.05.2026 06:30 10,3 °C 11,7 °C 76 % 53 % 1015,2 hPa 0,0 l/m² 4,8 km/h (1 Bft) N 360 ° 0,000 mm 6,3 °C 10,3 °C 8,0 km/h (2 Bft) 100,00 %
10.05.2026 06:29 10,3 °C 11,7 °C 76 % 53 % 1015,1 hPa 0,0 l/m² 4,8 km/h (1 Bft) N 360 ° 0,000 mm 6,3 °C 10,3 °C 6,4 km/h (2 Bft) 95,65 %
10.05.2026 06:28 10,3 °C 11,7 °C 76 % 53 % 1015,2 hPa 0,0 l/m² 6,4 km/h (2 Bft) N 360 ° 0,000 mm 6,3 °C 10,3 °C 12,9 km/h (3 Bft) 95,65 %
10.05.2026 06:27 10,3 °C 11,7 °C 76 % 53 % 1015,2 hPa 0,0 l/m² 8,0 km/h (2 Bft) N 360 ° 0,000 mm 6,3 °C 10,3 °C 9,7 km/h (2 Bft) 100,00 %
10.05.2026 06:26 10,3 °C 11,7 °C 76 % 53 % 1015,1 hPa 0,0 l/m² 4,8 km/h (1 Bft) N 360 ° 0,000 mm 6,3 °C 10,3 °C 8,0 km/h (2 Bft) 91,30 %
10.05.2026 06:25 10,2 °C 11,7 °C 76 % 53 % 1015,1 hPa 0,0 l/m² 4,8 km/h (1 Bft) N 360 ° 0,000 mm 6,2 °C 10,2 °C 6,4 km/h (2 Bft) 100,00 %
10.05.2026 06:24 10,2 °C 11,7 °C 76 % 53 % 1015,2 hPa 0,0 l/m² 3,2 km/h (1 Bft) N 360 ° 0,000 mm 6,2 °C 10,2 °C 4,8 km/h (1 Bft) 91,30 %
10.05.2026 06:23 10,2 °C 11,7 °C 76 % 53 % 1015,1 hPa 0,0 l/m² 6,4 km/h (2 Bft) N 360 ° 0,000 mm 6,2 °C 10,2 °C 9,7 km/h (2 Bft) 100,00 %
10.05.2026 06:22 10,2 °C 11,7 °C 76 % 53 % 1015,1 hPa 0,0 l/m² 8,0 km/h (2 Bft) N 360 ° 0,000 mm 6,2 °C 10,2 °C 14,5 km/h (3 Bft) 95,65 %
10.05.2026 06:21 10,2 °C 11,7 °C 76 % 53 % 1015,1 hPa 0,0 l/m² 1,6 km/h (1 Bft) N 360 ° 0,000 mm 6,2 °C 10,2 °C 3,2 km/h (1 Bft) 95,65 %
10.05.2026 06:20 10,2 °C 11,7 °C 76 % 53 % 1015,2 hPa 0,0 l/m² 3,2 km/h (1 Bft) N 360 ° 0,000 mm 6,2 °C 10,2 °C 4,8 km/h (1 Bft) 100,00 %
10.05.2026 06:19 10,2 °C 11,7 °C 76 % 52 % 1015,0 hPa 0,0 l/m² 4,8 km/h (1 Bft) N 360 ° 0,000 mm 6,2 °C 10,2 °C 8,0 km/h (2 Bft) 95,65 %
10.05.2026 06:18 10,2 °C 11,7 °C 76 % 52 % 1015,2 hPa 0,0 l/m² 4,8 km/h (1 Bft) N 360 ° 0,000 mm 6,2 °C 10,2 °C 9,7 km/h (2 Bft) 100,00 %
10.05.2026 06:17 10,2 °C 11,7 °C 76 % 52 % 1015,2 hPa 0,0 l/m² 6,4 km/h (2 Bft) N 360 ° 0,000 mm 6,2 °C 10,2 °C 12,9 km/h (3 Bft) 95,65 %
10.05.2026 06:16 10,2 °C 11,7 °C 76 % 52 % 1015,2 hPa 0,0 l/m² 4,8 km/h (1 Bft) N 360 ° 0,000 mm 6,2 °C 10,2 °C 9,7 km/h (2 Bft) 100,00 %
10.05.2026 06:15 10,2 °C 11,7 °C 76 % 52 % 1015,2 hPa 0,0 l/m² 8,0 km/h (2 Bft) N 360 ° 0,000 mm 6,2 °C 10,2 °C 9,7 km/h (2 Bft) 100,00 %
10.05.2026 06:14 10,2 °C 11,7 °C 76 % 52 % 1015,1 hPa 0,0 l/m² 8,0 km/h (2 Bft) N 360 ° 0,000 mm 6,2 °C 10,2 °C 12,9 km/h (3 Bft) 100,00 %
10.05.2026 06:13 10,1 °C 11,7 °C 76 % 53 % 1015,2 hPa 0,0 l/m² 6,4 km/h (2 Bft) N 360 ° 0,000 mm 6,1 °C 10,1 °C 9,7 km/h (2 Bft) 100,00 %
10.05.2026 06:12 10,1 °C 11,7 °C 76 % 53 % 1015,2 hPa 0,0 l/m² 8,0 km/h (2 Bft) N 360 ° 0,000 mm 6,1 °C 10,1 °C 14,5 km/h (3 Bft) 95,65 %
10.05.2026 06:11 10,1 °C 11,7 °C 76 % 52 % 1015,2 hPa 0,0 l/m² 6,4 km/h (2 Bft) N 360 ° 0,000 mm 6,1 °C 10,1 °C 8,0 km/h (2 Bft) 95,65 %
10.05.2026 06:10 10,1 °C 11,7 °C 76 % 52 % 1015,2 hPa 0,0 l/m² 4,8 km/h (1 Bft) N 360 ° 0,000 mm 6,1 °C 10,1 °C 8,0 km/h (2 Bft) 95,65 %
10.05.2026 06:09 10,1 °C 11,7 °C 76 % 52 % 1015,2 hPa 0,0 l/m² 9,7 km/h (2 Bft) N 360 ° 0,000 mm 6,1 °C 10,1 °C 12,9 km/h (3 Bft) 100,00 %
10.05.2026 06:08 10,1 °C 11,7 °C 76 % 52 % 1015,2 hPa 0,0 l/m² 6,4 km/h (2 Bft) N 360 ° 0,000 mm 6,1 °C 10,1 °C 9,7 km/h (2 Bft) 100,00 %
10.05.2026 06:07 10,1 °C 11,7 °C 76 % 52 % 1015,2 hPa 0,0 l/m² 6,4 km/h (2 Bft) N 360 ° 0,000 mm 6,1 °C 10,1 °C 9,7 km/h (2 Bft) 95,65 %
10.05.2026 06:06 10,0 °C 11,7 °C 76 % 52 % 1015,2 hPa 0,0 l/m² 6,4 km/h (2 Bft) N 360 ° 0,000 mm 6,0 °C 9,4 °C 14,5 km/h (3 Bft) 100,00 %
10.05.2026 06:05 10,0 °C 11,7 °C 76 % 52 % 1015,3 hPa 0,0 l/m² 6,4 km/h (2 Bft) N 360 ° 0,000 mm 6,0 °C 9,4 °C 9,7 km/h (2 Bft) 100,00 %
10.05.2026 06:04 9,9 °C 11,7 °C 76 % 52 % 1015,3 hPa 0,0 l/m² 4,8 km/h (1 Bft) N 360 ° 0,000 mm 5,9 °C 9,7 °C 12,9 km/h (3 Bft) 100,00 %
10.05.2026 06:03 9,9 °C 11,7 °C 76 % 52 % 1015,2 hPa 0,0 l/m² 6,4 km/h (2 Bft) N 360 ° 0,000 mm 5,9 °C 9,3 °C 12,9 km/h (3 Bft) 95,65 %
10.05.2026 06:02 9,9 °C 11,7 °C 76 % 52 % 1015,2 hPa 0,0 l/m² 6,4 km/h (2 Bft) N 360 ° 0,000 mm 5,9 °C 9,3 °C 12,9 km/h (3 Bft) 100,00 %
10.05.2026 06:01 9,9 °C 11,7 °C 76 % 52 % 1015,2 hPa 0,0 l/m² 6,4 km/h (2 Bft) N 360 ° 0,000 mm 5,9 °C 9,3 °C 8,0 km/h (2 Bft) 100,00 %
10.05.2026 06:00 9,9 °C 11,7 °C 76 % 52 % 1015,3 hPa 0,0 l/m² 8,0 km/h (2 Bft) N 360 ° 0,000 mm 5,9 °C 8,9 °C 12,9 km/h (3 Bft) 100,00 %
10.05.2026 05:59 9,9 °C 11,7 °C 76 % 52 % 1015,3 hPa 0,0 l/m² 6,4 km/h (2 Bft) N 360 ° 0,000 mm 5,9 °C 9,3 °C 9,7 km/h (2 Bft) 100,00 %
10.05.2026 05:58 9,9 °C 11,7 °C 76 % 53 % 1015,1 hPa 0,0 l/m² 4,8 km/h (1 Bft) N 360 ° 0,000 mm 5,9 °C 9,7 °C 9,7 km/h (2 Bft) 100,00 %
10.05.2026 05:57 9,9 °C 11,7 °C 76 % 53 % 1015,2 hPa 0,0 l/m² 6,4 km/h (2 Bft) N 360 ° 0,000 mm 5,9 °C 9,3 °C 9,7 km/h (2 Bft) 100,00 %
10.05.2026 05:56 9,9 °C 11,7 °C 76 % 52 % 1015,1 hPa 0,0 l/m² 6,4 km/h (2 Bft) N 360 ° 0,000 mm 5,9 °C 9,3 °C 12,9 km/h (3 Bft) 91,30 %
10.05.2026 05:55 9,9 °C 11,7 °C 76 % 52 % 1015,1 hPa 0,0 l/m² 4,8 km/h (1 Bft) N 360 ° 0,000 mm 5,9 °C 9,7 °C 8,0 km/h (2 Bft) 100,00 %
10.05.2026 05:54 9,9 °C 11,7 °C 76 % 52 % 1015,0 hPa 0,0 l/m² 6,4 km/h (2 Bft) N 360 ° 0,000 mm 5,9 °C 9,3 °C 8,0 km/h (2 Bft) 100,00 %
10.05.2026 05:53 9,9 °C 11,7 °C 76 % 52 % 1015,2 hPa 0,0 l/m² 4,8 km/h (1 Bft) N 360 ° 0,000 mm 5,9 °C 9,7 °C 8,0 km/h (2 Bft) 100,00 %
10.05.2026 05:52 9,9 °C 11,7 °C 76 % 52 % 1015,2 hPa 0,0 l/m² 8,0 km/h (2 Bft) N 360 ° 0,000 mm 5,9 °C 8,9 °C 9,7 km/h (2 Bft) 100,00 %
10.05.2026 05:51 9,9 °C 11,7 °C 76 % 52 % 1015,1 hPa 0,0 l/m² 8,0 km/h (2 Bft) N 360 ° 0,000 mm 5,9 °C 8,9 °C 12,9 km/h (3 Bft) 100,00 %
10.05.2026 05:50 9,9 °C 11,7 °C 76 % 52 % 1015,2 hPa 0,0 l/m² 8,0 km/h (2 Bft) N 360 ° 0,000 mm 5,9 °C 8,9 °C 12,9 km/h (3 Bft) 100,00 %
10.05.2026 05:49 9,8 °C 11,7 °C 76 % 52 % 1015,2 hPa 0,0 l/m² 9,7 km/h (2 Bft) N 360 ° 0,000 mm 5,8 °C 8,4 °C 14,5 km/h (3 Bft) 95,65 %
10.05.2026 05:48 9,9 °C 11,7 °C 76 % 52 % 1015,1 hPa 0,0 l/m² 8,0 km/h (2 Bft) N 360 ° 0,000 mm 5,9 °C 8,9 °C 12,9 km/h (3 Bft) 100,00 %
10.05.2026 05:47 9,9 °C 11,7 °C 76 % 52 % 1015,2 hPa 0,0 l/m² 9,7 km/h (2 Bft) N 360 ° 0,000 mm 5,9 °C 8,6 °C 16,1 km/h (3 Bft) 95,65 %
10.05.2026 05:46 9,9 °C 11,7 °C 76 % 52 % 1015,2 hPa 0,0 l/m² 4,8 km/h (1 Bft) N 360 ° 0,000 mm 5,9 °C 9,7 °C 8,0 km/h (2 Bft) 100,00 %
10.05.2026 05:45 9,9 °C 11,7 °C 76 % 52 % 1015,2 hPa 0,0 l/m² 8,0 km/h (2 Bft) N 360 ° 0,000 mm 5,9 °C 8,9 °C 14,5 km/h (3 Bft) 100,00 %
10.05.2026 05:44 9,9 °C 11,7 °C 76 % 52 % 1015,2 hPa 0,0 l/m² 6,4 km/h (2 Bft) N 360 ° 0,000 mm 5,9 °C 9,3 °C 14,5 km/h (3 Bft) 100,00 %
10.05.2026 05:43 9,8 °C 11,7 °C 76 % 51 % 1015,2 hPa 0,0 l/m² 6,4 km/h (2 Bft) N 360 ° 0,000 mm 5,8 °C 9,1 °C 12,9 km/h (3 Bft) 100,00 %
10.05.2026 05:42 9,8 °C 11,7 °C 76 % 51 % 1015,1 hPa 0,0 l/m² 6,4 km/h (2 Bft) N 360 ° 0,000 mm 5,8 °C 9,1 °C 8,0 km/h (2 Bft) 95,65 %
10.05.2026 05:41 9,9 °C 11,7 °C 76 % 51 % 1015,2 hPa 0,0 l/m² 6,4 km/h (2 Bft) N 360 ° 0,000 mm 5,9 °C 9,3 °C 12,9 km/h (3 Bft) 100,00 %
10.05.2026 05:40 9,9 °C 11,7 °C 76 % 51 % 1015,2 hPa 0,0 l/m² 4,8 km/h (1 Bft) N 360 ° 0,000 mm 5,9 °C 9,7 °C 8,0 km/h (2 Bft) 95,65 %
10.05.2026 05:39 9,9 °C 11,7 °C 76 % 51 % 1015,2 hPa 0,0 l/m² 8,0 km/h (2 Bft) N 360 ° 0,000 mm 5,9 °C 8,9 °C 12,9 km/h (3 Bft) 100,00 %
10.05.2026 05:38 9,9 °C 11,7 °C 76 % 52 % 1015,1 hPa 0,0 l/m² 8,0 km/h (2 Bft) N 360 ° 0,000 mm 5,9 °C 8,9 °C 12,9 km/h (3 Bft) 100,00 %
10.05.2026 05:37 9,9 °C 11,7 °C 76 % 52 % 1015,1 hPa 0,0 l/m² 4,8 km/h (1 Bft) N 360 ° 0,000 mm 5,9 °C 9,7 °C 8,0 km/h (2 Bft) 100,00 %
10.05.2026 05:36 9,9 °C 11,7 °C 76 % 51 % 1015,2 hPa 0,0 l/m² 4,8 km/h (1 Bft) N 360 ° 0,000 mm 5,9 °C 9,7 °C 6,4 km/h (2 Bft) 100,00 %
10.05.2026 05:35 9,9 °C 11,7 °C 76 % 51 % 1015,2 hPa 0,0 l/m² 4,8 km/h (1 Bft) N 360 ° 0,000 mm 5,9 °C 9,7 °C 4,8 km/h (1 Bft) 91,30 %
10.05.2026 05:34 9,9 °C 11,7 °C 76 % 51 % 1015,3 hPa 0,0 l/m² 6,4 km/h (2 Bft) N 360 ° 0,000 mm 5,9 °C 9,3 °C 9,7 km/h (2 Bft) 100,00 %
10.05.2026 05:33 9,9 °C 11,7 °C 76 % 51 % 1015,2 hPa 0,0 l/m² 6,4 km/h (2 Bft) N 360 ° 0,000 mm 5,9 °C 9,3 °C 9,7 km/h (2 Bft) 100,00 %
10.05.2026 05:32 9,9 °C 11,7 °C 75 % 51 % 1015,2 hPa 0,0 l/m² 8,0 km/h (2 Bft) N 360 ° 0,000 mm 5,7 °C 8,9 °C 14,5 km/h (3 Bft) 100,00 %
10.05.2026 05:31 10,0 °C 11,7 °C 76 % 51 % 1015,3 hPa 0,0 l/m² 6,4 km/h (2 Bft) N 360 ° 0,000 mm 6,0 °C 9,4 °C 9,7 km/h (2 Bft) 95,65 %
10.05.2026 05:30 9,9 °C 11,7 °C 76 % 51 % 1015,3 hPa 0,0 l/m² 8,0 km/h (2 Bft) N 360 ° 0,000 mm 5,9 °C 8,9 °C 16,1 km/h (3 Bft) 100,00 %
10.05.2026 05:29 10,0 °C 11,7 °C 76 % 51 % 1015,3 hPa 0,0 l/m² 6,4 km/h (2 Bft) N 360 ° 0,000 mm 6,0 °C 9,4 °C 14,5 km/h (3 Bft) 100,00 %
10.05.2026 05:28 10,0 °C 11,7 °C 76 % 51 % 1015,3 hPa 0,0 l/m² 6,4 km/h (2 Bft) N 360 ° 0,000 mm 6,0 °C 9,4 °C 12,9 km/h (3 Bft) 95,65 %
10.05.2026 05:27 10,0 °C 11,7 °C 76 % 51 % 1015,3 hPa 0,0 l/m² 4,8 km/h (1 Bft) N 360 ° 0,000 mm 6,0 °C 9,8 °C 6,4 km/h (2 Bft) 100,00 %
10.05.2026 05:26 10,1 °C 11,7 °C 76 % 51 % 1015,4 hPa 0,0 l/m² 4,8 km/h (1 Bft) N 360 ° 0,000 mm 6,1 °C 10,1 °C 6,4 km/h (2 Bft) 95,65 %
10.05.2026 05:25 10,1 °C 11,7 °C 76 % 51 % 1015,3 hPa 0,0 l/m² 8,0 km/h (2 Bft) N 360 ° 0,000 mm 6,1 °C 10,1 °C 9,7 km/h (2 Bft) 95,65 %
10.05.2026 05:24 10,1 °C 11,7 °C 76 % 51 % 1015,2 hPa 0,0 l/m² 6,4 km/h (2 Bft) N 360 ° 0,000 mm 6,1 °C 10,1 °C 9,7 km/h (2 Bft) 100,00 %
10.05.2026 05:23 10,1 °C 11,7 °C 76 % 51 % 1015,2 hPa 0,0 l/m² 8,0 km/h (2 Bft) N 360 ° 0,000 mm 6,1 °C 10,1 °C 14,5 km/h (3 Bft) 100,00 %
10.05.2026 05:22 10,1 °C 11,7 °C 76 % 51 % 1015,3 hPa 0,0 l/m² 3,2 km/h (1 Bft) N 360 ° 0,000 mm 6,1 °C 10,1 °C 4,8 km/h (1 Bft) 100,00 %
10.05.2026 05:21 10,1 °C 12,2 °C 76 % 51 % 1015,3 hPa 0,0 l/m² 4,8 km/h (1 Bft) N 360 ° 0,000 mm 6,1 °C 10,1 °C 12,9 km/h (3 Bft) 95,65 %
10.05.2026 05:20 10,1 °C 12,2 °C 75 % 51 % 1015,2 hPa 0,0 l/m² 9,7 km/h (2 Bft) N 360 ° 0,000 mm 5,9 °C 10,1 °C 16,1 km/h (3 Bft) 100,00 %
10.05.2026 05:19 10,0 °C 12,2 °C 76 % 51 % 1015,3 hPa 0,0 l/m² 4,8 km/h (1 Bft) N 360 ° 0,000 mm 6,0 °C 9,8 °C 8,0 km/h (2 Bft) 100,00 %
10.05.2026 05:18 10,1 °C 12,2 °C 76 % 51 % 1015,4 hPa 0,0 l/m² 4,8 km/h (1 Bft) N 360 ° 0,000 mm 6,1 °C 10,1 °C 8,0 km/h (2 Bft) 100,00 %
10.05.2026 05:17 10,1 °C 12,2 °C 76 % 51 % 1015,2 hPa 0,0 l/m² 6,4 km/h (2 Bft) N 360 ° 0,000 mm 6,1 °C 10,1 °C 9,7 km/h (2 Bft) 100,00 %
10.05.2026 05:16 10,1 °C 12,2 °C 75 % 51 % 1015,3 hPa 0,0 l/m² 11,3 km/h (2 Bft) N 360 ° 0,000 mm 5,9 °C 10,1 °C 16,1 km/h (3 Bft) 100,00 %
10.05.2026 05:15 10,1 °C 12,2 °C 75 % 51 % 1015,3 hPa 0,0 l/m² 9,7 km/h (2 Bft) N 360 ° 0,000 mm 5,9 °C 10,1 °C 14,5 km/h (3 Bft) 100,00 %
10.05.2026 05:14 10,1 °C 12,2 °C 75 % 51 % 1015,3 hPa 0,0 l/m² 8,0 km/h (2 Bft) N 360 ° 0,000 mm 5,9 °C 10,1 °C 14,5 km/h (3 Bft) 86,96 %
10.05.2026 05:13 10,1 °C 12,2 °C 75 % 51 % 1015,2 hPa 0,0 l/m² 4,8 km/h (1 Bft) N 360 ° 0,000 mm 5,9 °C 10,1 °C 9,7 km/h (2 Bft) 100,00 %
10.05.2026 05:12 10,1 °C 12,2 °C 75 % 51 % 1015,2 hPa 0,0 l/m² 8,0 km/h (2 Bft) N 360 ° 0,000 mm 5,9 °C 10,1 °C 12,9 km/h (3 Bft) 95,65 %
10.05.2026 05:11 10,1 °C 12,2 °C 75 % 51 % 1015,3 hPa 0,0 l/m² 4,8 km/h (1 Bft) N 360 ° 0,000 mm 5,9 °C 10,1 °C 9,7 km/h (2 Bft) 95,65 %
10.05.2026 05:10 10,2 °C 12,2 °C 75 % 51 % 1015,2 hPa 0,0 l/m² 3,2 km/h (1 Bft) N 360 ° 0,000 mm 6,0 °C 10,2 °C 4,8 km/h (1 Bft) 100,00 %
10.05.2026 05:09 10,2 °C 12,2 °C 75 % 51 % 1015,2 hPa 0,0 l/m² 4,8 km/h (1 Bft) N 360 ° 0,000 mm 6,0 °C 10,2 °C 6,4 km/h (2 Bft) 95,65 %
10.05.2026 05:08 10,2 °C 12,2 °C 75 % 51 % 1015,3 hPa 0,0 l/m² 6,4 km/h (2 Bft) N 360 ° 0,000 mm 6,0 °C 10,2 °C 12,9 km/h (3 Bft) 100,00 %
10.05.2026 05:07 10,2 °C 12,2 °C 75 % 51 % 1015,3 hPa 0,0 l/m² 6,4 km/h (2 Bft) N 360 ° 0,000 mm 6,0 °C 10,2 °C 9,7 km/h (2 Bft) 91,30 %
10.05.2026 05:06 10,2 °C 12,2 °C 75 % 51 % 1015,3 hPa 0,0 l/m² 9,7 km/h (2 Bft) N 360 ° 0,000 mm 6,0 °C 10,2 °C 14,5 km/h (3 Bft) 95,65 %
10.05.2026 05:05 10,2 °C 12,2 °C 74 % 50 % 1015,3 hPa 0,0 l/m² 8,0 km/h (2 Bft) N 360 ° 0,000 mm 5,8 °C 10,2 °C 17,7 km/h (3 Bft) 95,65 %
10.05.2026 05:04 10,2 °C 12,2 °C 75 % 50 % 1015,3 hPa 0,0 l/m² 8,0 km/h (2 Bft) N 360 ° 0,000 mm 6,0 °C 10,2 °C 9,7 km/h (2 Bft) 100,00 %
10.05.2026 05:03 10,3 °C 12,2 °C 74 % 50 % 1015,3 hPa 0,0 l/m² 4,8 km/h (1 Bft) N 360 ° 0,000 mm 5,9 °C 10,3 °C 6,4 km/h (2 Bft) 95,65 %
10.05.2026 05:02 10,3 °C 12,2 °C 74 % 50 % 1015,3 hPa 0,0 l/m² 3,2 km/h (1 Bft) N 360 ° 0,000 mm 5,9 °C 10,3 °C 6,4 km/h (2 Bft) 95,65 %
10.05.2026 05:01 10,3 °C 12,2 °C 74 % 50 % 1015,3 hPa 0,0 l/m² 8,0 km/h (2 Bft) N 360 ° 0,000 mm 5,9 °C 10,3 °C 12,9 km/h (3 Bft) 91,30 %
10.05.2026 05:00 10,3 °C 12,2 °C 74 % 50 % 1015,4 hPa 0,0 l/m² 6,4 km/h (2 Bft) N 360 ° 0,000 mm 5,9 °C 10,3 °C 6,4 km/h (2 Bft) 91,30 %
10.05.2026 04:59 10,3 °C 12,2 °C 74 % 50 % 1015,3 hPa 0,0 l/m² 4,8 km/h (1 Bft) N 360 ° 0,000 mm 5,9 °C 10,3 °C 6,4 km/h (2 Bft) 100,00 %
10.05.2026 04:58 10,3 °C 12,2 °C 74 % 50 % 1015,4 hPa 0,0 l/m² 8,0 km/h (2 Bft) N 360 ° 0,000 mm 5,9 °C 10,3 °C 16,1 km/h (3 Bft) 95,65 %
10.05.2026 04:57 10,4 °C 12,2 °C 74 % 50 % 1015,4 hPa 0,0 l/m² 6,4 km/h (2 Bft) N 360 ° 0,000 mm 6,0 °C 10,4 °C 9,7 km/h (2 Bft) 100,00 %
10.05.2026 04:56 10,4 °C 12,2 °C 74 % 50 % 1015,5 hPa 0,0 l/m² 8,0 km/h (2 Bft) N 360 ° 0,000 mm 6,0 °C 10,4 °C 12,9 km/h (3 Bft) 91,30 %
10.05.2026 04:55 10,4 °C 12,2 °C 74 % 50 % 1015,4 hPa 0,0 l/m² 6,4 km/h (2 Bft) N 360 ° 0,000 mm 6,0 °C 10,4 °C 12,9 km/h (3 Bft) 100,00 %
10.05.2026 04:54 10,4 °C 12,2 °C 74 % 50 % 1015,5 hPa 0,0 l/m² 6,4 km/h (2 Bft) N 360 ° 0,000 mm 6,0 °C 10,4 °C 8,0 km/h (2 Bft) 95,65 %
10.05.2026 04:53 10,4 °C 12,2 °C 74 % 50 % 1015,5 hPa 0,0 l/m² 3,2 km/h (1 Bft) N 360 ° 0,000 mm 6,0 °C 10,4 °C 6,4 km/h (2 Bft) 86,96 %
10.05.2026 04:52 10,4 °C 12,2 °C 74 % 50 % 1015,4 hPa 0,0 l/m² 8,0 km/h (2 Bft) N 360 ° 0,000 mm 6,0 °C 10,4 °C 12,9 km/h (3 Bft) 100,00 %
10.05.2026 04:51 10,4 °C 12,2 °C 74 % 50 % 1015,4 hPa 0,0 l/m² 6,4 km/h (2 Bft) N 360 ° 0,000 mm 6,0 °C 10,4 °C 8,0 km/h (2 Bft) 95,65 %
10.05.2026 04:50 10,4 °C 12,2 °C 74 % 50 % 1015,5 hPa 0,0 l/m² 6,4 km/h (2 Bft) N 360 ° 0,000 mm 6,0 °C 10,4 °C 9,7 km/h (2 Bft) 100,00 %
10.05.2026 04:49 10,4 °C 12,2 °C 74 % 50 % 1015,5 hPa 0,0 l/m² 4,8 km/h (1 Bft) N 360 ° 0,000 mm 6,0 °C 10,4 °C 8,0 km/h (2 Bft) 95,65 %
10.05.2026 04:48 10,4 °C 12,2 °C 74 % 50 % 1015,5 hPa 0,0 l/m² 8,0 km/h (2 Bft) N 360 ° 0,000 mm 6,0 °C 10,4 °C 16,1 km/h (3 Bft) 95,65 %
10.05.2026 04:47 10,4 °C 12,2 °C 74 % 50 % 1015,5 hPa 0,0 l/m² 11,3 km/h (2 Bft) N 360 ° 0,000 mm 6,0 °C 10,4 °C 14,5 km/h (3 Bft) 95,65 %
10.05.2026 04:46 10,5 °C 12,2 °C 74 % 50 % 1015,5 hPa 0,0 l/m² 8,0 km/h (2 Bft) N 360 ° 0,000 mm 6,1 °C 10,5 °C 17,7 km/h (3 Bft) 100,00 %
10.05.2026 04:45 10,4 °C 12,2 °C 74 % 50 % 1015,6 hPa 0,0 l/m² 6,4 km/h (2 Bft) N 360 ° 0,000 mm 6,0 °C 10,4 °C 12,9 km/h (3 Bft) 91,30 %
10.05.2026 04:44 10,5 °C 12,2 °C 74 % 50 % 1015,5 hPa 0,0 l/m² 9,7 km/h (2 Bft) N 360 ° 0,000 mm 6,1 °C 10,5 °C 16,1 km/h (3 Bft) 100,00 %
10.05.2026 04:43 10,5 °C 12,2 °C 74 % 50 % 1015,5 hPa 0,0 l/m² 8,0 km/h (2 Bft) N 360 ° 0,000 mm 6,1 °C 10,5 °C 16,1 km/h (3 Bft) 100,00 %
10.05.2026 04:42 10,5 °C 12,2 °C 74 % 50 % 1015,6 hPa 0,0 l/m² 8,0 km/h (2 Bft) N 360 ° 0,000 mm 6,1 °C 10,5 °C 14,5 km/h (3 Bft) 100,00 %
10.05.2026 04:41 10,5 °C 12,2 °C 74 % 50 % 1015,5 hPa 0,0 l/m² 8,0 km/h (2 Bft) N 360 ° 0,000 mm 6,1 °C 10,5 °C 16,1 km/h (3 Bft) 100,00 %
10.05.2026 04:40 10,6 °C 12,2 °C 74 % 50 % 1015,5 hPa 0,0 l/m² 6,4 km/h (2 Bft) N 360 ° 0,000 mm 6,2 °C 10,6 °C 14,5 km/h (3 Bft) 95,65 %
10.05.2026 04:39 10,5 °C 12,2 °C 74 % 50 % 1015,5 hPa 0,0 l/m² 8,0 km/h (2 Bft) N 360 ° 0,000 mm 6,1 °C 10,5 °C 12,9 km/h (3 Bft) 100,00 %
10.05.2026 04:38 10,6 °C 12,2 °C 74 % 50 % 1015,5 hPa 0,0 l/m² 9,7 km/h (2 Bft) N 360 ° 0,000 mm 6,2 °C 10,6 °C 14,5 km/h (3 Bft) 95,65 %
10.05.2026 04:37 10,6 °C 12,2 °C 74 % 50 % 1015,6 hPa 0,0 l/m² 6,4 km/h (2 Bft) N 360 ° 0,000 mm 6,2 °C 10,6 °C 8,0 km/h (2 Bft) 100,00 %
10.05.2026 04:36 10,6 °C 12,2 °C 74 % 50 % 1015,5 hPa 0,0 l/m² 9,7 km/h (2 Bft) N 360 ° 0,000 mm 6,2 °C 10,6 °C 12,9 km/h (3 Bft) 100,00 %
10.05.2026 04:35 10,6 °C 12,2 °C 74 % 50 % 1015,6 hPa 0,0 l/m² 9,7 km/h (2 Bft) N 360 ° 0,000 mm 6,2 °C 10,6 °C 14,5 km/h (3 Bft) 91,30 %
10.05.2026 04:34 10,6 °C 12,2 °C 74 % 50 % 1015,5 hPa 0,0 l/m² 9,7 km/h (2 Bft) N 360 ° 0,000 mm 6,2 °C 10,6 °C 16,1 km/h (3 Bft) 100,00 %
10.05.2026 04:33 10,6 °C 12,2 °C 74 % 50 % 1015,5 hPa 0,0 l/m² 8,0 km/h (2 Bft) N 360 ° 0,000 mm 6,2 °C 10,6 °C 14,5 km/h (3 Bft) 100,00 %
10.05.2026 04:32 10,7 °C 12,2 °C 74 % 50 % 1015,5 hPa 0,0 l/m² 6,4 km/h (2 Bft) N 360 ° 0,000 mm 6,3 °C 10,7 °C 12,9 km/h (3 Bft) 100,00 %
10.05.2026 04:31 10,7 °C 12,2 °C 74 % 50 % 1015,5 hPa 0,0 l/m² 4,8 km/h (1 Bft) N 360 ° 0,000 mm 6,3 °C 10,7 °C 9,7 km/h (2 Bft) 95,65 %
10.05.2026 04:30 10,7 °C 12,2 °C 74 % 50 % 1015,5 hPa 0,0 l/m² 6,4 km/h (2 Bft) N 360 ° 0,000 mm 6,3 °C 10,7 °C 9,7 km/h (2 Bft) 100,00 %
10.05.2026 04:29 10,7 °C 12,2 °C 74 % 50 % 1015,5 hPa 0,0 l/m² 9,7 km/h (2 Bft) N 360 ° 0,000 mm 6,3 °C 10,7 °C 14,5 km/h (3 Bft) 100,00 %
10.05.2026 04:28 10,7 °C 12,8 °C 73 % 50 % 1015,4 hPa 0,0 l/m² 8,0 km/h (2 Bft) N 360 ° 0,000 mm 6,1 °C 10,7 °C 12,9 km/h (3 Bft) 100,00 %
10.05.2026 04:27 10,7 °C 12,2 °C 73 % 49 % 1015,5 hPa 0,0 l/m² 4,8 km/h (1 Bft) N 360 ° 0,000 mm 6,1 °C 10,7 °C 8,0 km/h (2 Bft) 100,00 %
10.05.2026 04:26 10,8 °C 12,8 °C 73 % 49 % 1015,6 hPa 0,0 l/m² 6,4 km/h (2 Bft) N 360 ° 0,000 mm 6,2 °C 10,8 °C 8,0 km/h (2 Bft) 100,00 %
10.05.2026 04:25 10,7 °C 12,8 °C 73 % 49 % 1015,6 hPa 0,0 l/m² 3,2 km/h (1 Bft) N 360 ° 0,000 mm 6,1 °C 10,7 °C 8,0 km/h (2 Bft) 100,00 %
10.05.2026 04:24 10,8 °C 12,8 °C 73 % 50 % 1015,4 hPa 0,0 l/m² 8,0 km/h (2 Bft) N 360 ° 0,000 mm 6,2 °C 10,8 °C 14,5 km/h (3 Bft) 91,30 %
10.05.2026 04:23 10,8 °C 12,8 °C 73 % 49 % 1015,5 hPa 0,0 l/m² 4,8 km/h (1 Bft) N 360 ° 0,000 mm 6,2 °C 10,8 °C 6,4 km/h (2 Bft) 100,00 %
10.05.2026 04:22 10,8 °C 12,8 °C 73 % 49 % 1015,5 hPa 0,0 l/m² 6,4 km/h (2 Bft) N 360 ° 0,000 mm 6,2 °C 10,8 °C 8,0 km/h (2 Bft) 100,00 %
10.05.2026 04:21 10,8 °C 12,8 °C 73 % 49 % 1015,5 hPa 0,0 l/m² 8,0 km/h (2 Bft) N 360 ° 0,000 mm 6,2 °C 10,8 °C 12,9 km/h (3 Bft) 100,00 %
10.05.2026 04:20 10,8 °C 12,8 °C 73 % 49 % 1015,5 hPa 0,0 l/m² 8,0 km/h (2 Bft) N 360 ° 0,000 mm 6,2 °C 10,8 °C 12,9 km/h (3 Bft) 100,00 %
10.05.2026 04:19 10,8 °C 12,8 °C 73 % 49 % 1015,5 hPa 0,0 l/m² 8,0 km/h (2 Bft) N 360 ° 0,000 mm 6,2 °C 10,8 °C 12,9 km/h (3 Bft) 95,65 %
10.05.2026 04:18 10,8 °C 12,8 °C 73 % 49 % 1015,6 hPa 0,0 l/m² 6,4 km/h (2 Bft) N 360 ° 0,000 mm 6,2 °C 10,8 °C 12,9 km/h (3 Bft) 100,00 %
10.05.2026 04:17 10,9 °C 12,8 °C 73 % 49 % 1015,5 hPa 0,0 l/m² 6,4 km/h (2 Bft) N 360 ° 0,000 mm 6,3 °C 10,9 °C 9,7 km/h (2 Bft) 95,65 %
10.05.2026 04:16 10,9 °C 12,8 °C 73 % 49 % 1015,5 hPa 0,0 l/m² 8,0 km/h (2 Bft) N 360 ° 0,000 mm 6,3 °C 10,9 °C 12,9 km/h (3 Bft) 100,00 %
10.05.2026 04:15 10,9 °C 12,8 °C 73 % 49 % 1015,5 hPa 0,0 l/m² 6,4 km/h (2 Bft) N 360 ° 0,000 mm 6,3 °C 10,9 °C 9,7 km/h (2 Bft) 100,00 %
10.05.2026 04:14 10,9 °C 12,8 °C 73 % 49 % 1015,6 hPa 0,0 l/m² 6,4 km/h (2 Bft) N 360 ° 0,000 mm 6,3 °C 10,9 °C 12,9 km/h (3 Bft) 100,00 %
10.05.2026 04:13 10,9 °C 12,8 °C 73 % 49 % 1015,6 hPa 0,0 l/m² 8,0 km/h (2 Bft) N 360 ° 0,000 mm 6,3 °C 10,9 °C 12,9 km/h (3 Bft) 100,00 %
10.05.2026 04:12 10,9 °C 12,8 °C 73 % 49 % 1015,6 hPa 0,0 l/m² 4,8 km/h (1 Bft) N 360 ° 0,000 mm 6,3 °C 10,9 °C 8,0 km/h (2 Bft) 100,00 %
10.05.2026 04:11 10,9 °C 12,8 °C 73 % 49 % 1015,6 hPa 0,0 l/m² 9,7 km/h (2 Bft) N 360 ° 0,000 mm 6,3 °C 10,9 °C 14,5 km/h (3 Bft) 100,00 %
10.05.2026 04:10 10,9 °C 12,8 °C 73 % 49 % 1015,6 hPa 0,0 l/m² 8,0 km/h (2 Bft) N 360 ° 0,000 mm 6,3 °C 10,9 °C 12,9 km/h (3 Bft) 95,65 %
10.05.2026 04:09 10,9 °C 12,8 °C 73 % 49 % 1015,5 hPa 0,0 l/m² 9,7 km/h (2 Bft) N 360 ° 0,000 mm 6,3 °C 10,9 °C 14,5 km/h (3 Bft) 100,00 %
10.05.2026 04:08 11,0 °C 12,8 °C 73 % 49 % 1015,6 hPa 0,0 l/m² 6,4 km/h (2 Bft) N 360 ° 0,000 mm 6,4 °C 11,0 °C 9,7 km/h (2 Bft) 100,00 %
10.05.2026 04:07 11,0 °C 12,8 °C 73 % 49 % 1015,6 hPa 0,0 l/m² 9,7 km/h (2 Bft) N 360 ° 0,000 mm 6,4 °C 11,0 °C 16,1 km/h (3 Bft) 95,65 %
10.05.2026 04:06 11,0 °C 12,8 °C 73 % 49 % 1015,5 hPa 0,0 l/m² 9,7 km/h (2 Bft) N 360 ° 0,000 mm 6,4 °C 11,0 °C 17,7 km/h (3 Bft) 100,00 %
10.05.2026 04:05 11,1 °C 12,8 °C 73 % 49 % 1015,7 hPa 0,0 l/m² 6,4 km/h (2 Bft) N 360 ° 0,000 mm 6,4 °C 11,1 °C 9,7 km/h (2 Bft) 100,00 %
10.05.2026 04:04 11,1 °C 12,8 °C 73 % 49 % 1015,7 hPa 0,0 l/m² 4,8 km/h (1 Bft) N 360 ° 0,000 mm 6,4 °C 11,1 °C 6,4 km/h (2 Bft) 100,00 %
10.05.2026 04:03 11,1 °C 12,8 °C 73 % 49 % 1015,7 hPa 0,0 l/m² 4,8 km/h (1 Bft) N 360 ° 0,000 mm 6,4 °C 11,1 °C 8,0 km/h (2 Bft) 91,30 %
10.05.2026 04:02 11,1 °C 12,8 °C 73 % 49 % 1015,6 hPa 0,0 l/m² 6,4 km/h (2 Bft) N 360 ° 0,000 mm 6,4 °C 11,1 °C 8,0 km/h (2 Bft) 100,00 %
10.05.2026 04:01 11,1 °C 12,8 °C 73 % 49 % 1015,6 hPa 0,0 l/m² 8,0 km/h (2 Bft) N 360 ° 0,000 mm 6,4 °C 11,1 °C 12,9 km/h (3 Bft) 95,65 %
10.05.2026 04:00 11,1 °C 12,8 °C 72 % 49 % 1015,6 hPa 0,0 l/m² 8,0 km/h (2 Bft) N 360 ° 0,000 mm 6,2 °C 11,1 °C 14,5 km/h (3 Bft) 100,00 %
10.05.2026 03:59 11,1 °C 12,8 °C 73 % 49 % 1015,6 hPa 0,0 l/m² 6,4 km/h (2 Bft) N 360 ° 0,000 mm 6,4 °C 11,1 °C 8,0 km/h (2 Bft) 100,00 %
10.05.2026 03:58 11,1 °C 12,8 °C 72 % 49 % 1015,7 hPa 0,0 l/m² 6,4 km/h (2 Bft) N 360 ° 0,000 mm 6,2 °C 11,1 °C 8,0 km/h (2 Bft) 100,00 %
10.05.2026 03:57 11,1 °C 12,8 °C 73 % 49 % 1015,6 hPa 0,0 l/m² 4,8 km/h (1 Bft) N 360 ° 0,000 mm 6,4 °C 11,1 °C 12,9 km/h (3 Bft) 100,00 %
10.05.2026 03:56 11,1 °C 12,8 °C 73 % 49 % 1015,6 hPa 0,0 l/m² 4,8 km/h (1 Bft) N 360 ° 0,000 mm 6,4 °C 11,1 °C 8,0 km/h (2 Bft) 95,65 %
10.05.2026 03:55 11,2 °C 12,8 °C 73 % 49 % 1015,5 hPa 0,0 l/m² 6,4 km/h (2 Bft) N 360 ° 0,000 mm 6,5 °C 11,2 °C 8,0 km/h (2 Bft) 100,00 %
10.05.2026 03:54 11,2 °C 12,8 °C 72 % 49 % 1015,5 hPa 0,0 l/m² 11,3 km/h (2 Bft) N 360 ° 0,000 mm 6,3 °C 11,2 °C 17,7 km/h (3 Bft) 100,00 %
10.05.2026 03:53 11,2 °C 12,8 °C 72 % 49 % 1015,5 hPa 0,0 l/m² 8,0 km/h (2 Bft) N 360 ° 0,000 mm 6,3 °C 11,2 °C 12,9 km/h (3 Bft) 100,00 %
10.05.2026 03:52 11,2 °C 12,8 °C 72 % 49 % 1015,6 hPa 0,0 l/m² 6,4 km/h (2 Bft) N 360 ° 0,000 mm 6,3 °C 11,2 °C 12,9 km/h (3 Bft) 100,00 %
10.05.2026 03:51 11,2 °C 12,8 °C 73 % 49 % 1015,5 hPa 0,0 l/m² 8,0 km/h (2 Bft) N 360 ° 0,000 mm 6,5 °C 11,2 °C 12,9 km/h (3 Bft) 95,65 %
10.05.2026 03:50 11,2 °C 12,8 °C 73 % 49 % 1015,5 hPa 0,0 l/m² 9,7 km/h (2 Bft) N 360 ° 0,000 mm 6,5 °C 11,2 °C 14,5 km/h (3 Bft) 100,00 %
10.05.2026 03:49 11,3 °C 12,8 °C 73 % 49 % 1015,5 hPa 0,0 l/m² 6,4 km/h (2 Bft) N 360 ° 0,000 mm 6,6 °C 11,3 °C 12,9 km/h (3 Bft) 95,65 %
10.05.2026 03:48 11,3 °C 12,8 °C 73 % 49 % 1015,5 hPa 0,0 l/m² 4,8 km/h (1 Bft) N 360 ° 0,000 mm 6,6 °C 11,3 °C 9,7 km/h (2 Bft) 95,65 %
10.05.2026 03:47 11,3 °C 12,8 °C 72 % 49 % 1015,5 hPa 0,0 l/m² 8,0 km/h (2 Bft) N 360 ° 0,000 mm 6,4 °C 11,3 °C 9,7 km/h (2 Bft) 100,00 %
10.05.2026 03:46 11,3 °C 12,8 °C 73 % 49 % 1015,5 hPa 0,0 l/m² 8,0 km/h (2 Bft) N 360 ° 0,000 mm 6,6 °C 11,3 °C 12,9 km/h (3 Bft) 95,65 %
10.05.2026 03:45 11,3 °C 12,8 °C 73 % 49 % 1015,5 hPa 0,0 l/m² 9,7 km/h (2 Bft) N 360 ° 0,000 mm 6,6 °C 11,3 °C 14,5 km/h (3 Bft) 100,00 %
10.05.2026 03:44 11,3 °C 12,8 °C 72 % 49 % 1015,5 hPa 0,0 l/m² 6,4 km/h (2 Bft) N 360 ° 0,000 mm 6,4 °C 11,3 °C 8,0 km/h (2 Bft) 91,30 %
10.05.2026 03:43 11,3 °C 12,8 °C 72 % 49 % 1015,5 hPa 0,0 l/m² 8,0 km/h (2 Bft) N 360 ° 0,000 mm 6,4 °C 11,3 °C 12,9 km/h (3 Bft) 100,00 %
10.05.2026 03:42 11,3 °C 12,8 °C 73 % 49 % 1015,5 hPa 0,0 l/m² 8,0 km/h (2 Bft) N 360 ° 0,000 mm 6,6 °C 11,3 °C 9,7 km/h (2 Bft) 91,30 %
10.05.2026 03:41 11,3 °C 12,8 °C 73 % 49 % 1015,5 hPa 0,0 l/m² 8,0 km/h (2 Bft) N 360 ° 0,000 mm 6,6 °C 11,3 °C 14,5 km/h (3 Bft) 100,00 %
10.05.2026 03:40 11,3 °C 12,8 °C 73 % 49 % 1015,5 hPa 0,0 l/m² 9,7 km/h (2 Bft) N 360 ° 0,000 mm 6,6 °C 11,3 °C 16,1 km/h (3 Bft) 95,65 %
10.05.2026 03:39 11,4 °C 12,8 °C 72 % 49 % 1015,5 hPa 0,0 l/m² 6,4 km/h (2 Bft) N 360 ° 0,000 mm 6,5 °C 11,4 °C 12,9 km/h (3 Bft) 95,65 %
10.05.2026 03:38 11,4 °C 12,8 °C 72 % 49 % 1015,5 hPa 0,0 l/m² 8,0 km/h (2 Bft) N 360 ° 0,000 mm 6,5 °C 11,4 °C 17,7 km/h (3 Bft) 95,65 %
10.05.2026 03:37 11,4 °C 13,3 °C 72 % 48 % 1015,5 hPa 0,0 l/m² 8,0 km/h (2 Bft) N 360 ° 0,000 mm 6,5 °C 11,4 °C 16,1 km/h (3 Bft) 95,65 %
10.05.2026 03:36 11,4 °C 13,3 °C 72 % 48 % 1015,6 hPa 0,0 l/m² 8,0 km/h (2 Bft) N 360 ° 0,000 mm 6,5 °C 11,4 °C 9,7 km/h (2 Bft) 100,00 %
10.05.2026 03:35 11,4 °C 13,3 °C 73 % 48 % 1015,6 hPa 0,0 l/m² 6,4 km/h (2 Bft) N 360 ° 0,000 mm 6,7 °C 11,4 °C 12,9 km/h (3 Bft) 91,30 %
10.05.2026 03:34 11,4 °C 13,3 °C 73 % 48 % 1015,6 hPa 0,0 l/m² 9,7 km/h (2 Bft) N 360 ° 0,000 mm 6,7 °C 11,4 °C 17,7 km/h (3 Bft) 95,65 %
10.05.2026 03:33 11,4 °C 13,3 °C 73 % 49 % 1015,6 hPa 0,0 l/m² 12,9 km/h (3 Bft) N 360 ° 0,000 mm 6,7 °C 11,4 °C 19,3 km/h (3 Bft) 95,65 %
10.05.2026 03:32 11,4 °C 13,3 °C 73 % 49 % 1015,6 hPa 0,0 l/m² 4,8 km/h (1 Bft) N 360 ° 0,000 mm 6,7 °C 11,4 °C 8,0 km/h (2 Bft) 95,65 %
10.05.2026 03:31 11,4 °C 13,3 °C 73 % 49 % 1015,6 hPa 0,0 l/m² 8,0 km/h (2 Bft) N 360 ° 0,000 mm 6,7 °C 11,4 °C 12,9 km/h (3 Bft) 100,00 %
10.05.2026 03:30 11,4 °C 13,3 °C 73 % 48 % 1015,5 hPa 0,0 l/m² 8,0 km/h (2 Bft) N 360 ° 0,000 mm 6,7 °C 11,4 °C 12,9 km/h (3 Bft) 95,65 %
10.05.2026 03:29 11,4 °C 13,3 °C 72 % 48 % 1015,5 hPa 0,0 l/m² 8,0 km/h (2 Bft) N 360 ° 0,000 mm 6,5 °C 11,4 °C 12,9 km/h (3 Bft) 95,65 %
10.05.2026 03:28 11,4 °C 13,3 °C 72 % 48 % 1015,6 hPa 0,0 l/m² 6,4 km/h (2 Bft) N 360 ° 0,000 mm 6,5 °C 11,4 °C 9,7 km/h (2 Bft) 91,30 %
10.05.2026 03:27 11,4 °C 13,3 °C 72 % 48 % 1015,5 hPa 0,0 l/m² 9,7 km/h (2 Bft) N 360 ° 0,000 mm 6,5 °C 11,4 °C 17,7 km/h (3 Bft) 100,00 %
10.05.2026 03:26 11,5 °C 13,3 °C 72 % 48 % 1015,5 hPa 0,0 l/m² 11,3 km/h (2 Bft) N 360 ° 0,000 mm 6,6 °C 11,5 °C 16,1 km/h (3 Bft) 95,65 %
10.05.2026 03:25 11,5 °C 13,3 °C 73 % 48 % 1015,5 hPa 0,0 l/m² 9,7 km/h (2 Bft) N 360 ° 0,000 mm 6,8 °C 11,5 °C 16,1 km/h (3 Bft) 95,65 %
10.05.2026 03:24 11,5 °C 13,3 °C 73 % 48 % 1015,5 hPa 0,0 l/m² 9,7 km/h (2 Bft) N 360 ° 0,000 mm 6,8 °C 11,5 °C 16,1 km/h (3 Bft) 95,65 %
10.05.2026 03:23 11,6 °C 13,3 °C 72 % 48 % 1015,5 hPa 0,0 l/m² 8,0 km/h (2 Bft) N 360 ° 0,000 mm 6,7 °C 11,6 °C 16,1 km/h (3 Bft) 91,30 %
10.05.2026 03:22 11,6 °C 13,3 °C 72 % 49 % 1015,5 hPa 0,0 l/m² 8,0 km/h (2 Bft) N 360 ° 0,000 mm 6,7 °C 11,6 °C 9,7 km/h (2 Bft) 100,00 %
10.05.2026 03:21 11,6 °C 13,3 °C 73 % 49 % 1015,5 hPa 0,0 l/m² 9,7 km/h (2 Bft) N 360 ° 0,000 mm 6,9 °C 11,6 °C 16,1 km/h (3 Bft) 91,30 %
10.05.2026 03:20 11,6 °C 13,3 °C 73 % 49 % 1015,5 hPa 0,0 l/m² 9,7 km/h (2 Bft) N 360 ° 0,000 mm 6,9 °C 11,6 °C 12,9 km/h (3 Bft) 100,00 %
10.05.2026 03:19 11,6 °C 13,3 °C 72 % 49 % 1015,5 hPa 0,0 l/m² 9,7 km/h (2 Bft) N 360 ° 0,000 mm 6,7 °C 11,6 °C 14,5 km/h (3 Bft) 95,65 %
10.05.2026 03:18 11,6 °C 13,3 °C 72 % 49 % 1015,5 hPa 0,0 l/m² 6,4 km/h (2 Bft) N 360 ° 0,000 mm 6,7 °C 11,6 °C 8,0 km/h (2 Bft) 100,00 %
10.05.2026 03:17 11,6 °C 13,3 °C 72 % 49 % 1015,4 hPa 0,0 l/m² 6,4 km/h (2 Bft) N 360 ° 0,000 mm 6,7 °C 11,6 °C 9,7 km/h (2 Bft) 91,30 %
10.05.2026 03:16 11,6 °C 13,3 °C 72 % 48 % 1015,5 hPa 0,0 l/m² 11,3 km/h (2 Bft) N 360 ° 0,000 mm 6,7 °C 11,6 °C 19,3 km/h (3 Bft) 95,65 %
10.05.2026 03:15 11,7 °C 13,3 °C 72 % 49 % 1015,5 hPa 0,0 l/m² 14,5 km/h (3 Bft) N 360 ° 0,000 mm 6,8 °C 11,7 °C 24,1 km/h (4 Bft) 100,00 %
10.05.2026 03:14 11,7 °C 13,3 °C 72 % 49 % 1015,4 hPa 0,0 l/m² 8,0 km/h (2 Bft) N 360 ° 0,000 mm 6,8 °C 11,7 °C 12,9 km/h (3 Bft) 86,96 %
10.05.2026 03:13 11,7 °C 13,3 °C 72 % 48 % 1015,5 hPa 0,0 l/m² 4,8 km/h (1 Bft) N 360 ° 0,000 mm 6,8 °C 11,7 °C 14,5 km/h (3 Bft) 95,65 %
10.05.2026 03:12 11,7 °C 13,3 °C 72 % 49 % 1015,6 hPa 0,0 l/m² 4,8 km/h (1 Bft) N 360 ° 0,000 mm 6,8 °C 11,7 °C 12,9 km/h (3 Bft) 100,00 %
10.05.2026 03:11 11,7 °C 13,3 °C 72 % 49 % 1015,6 hPa 0,0 l/m² 8,0 km/h (2 Bft) N 360 ° 0,000 mm 6,8 °C 11,7 °C 14,5 km/h (3 Bft) 100,00 %
10.05.2026 03:10 11,7 °C 13,3 °C 72 % 49 % 1015,6 hPa 0,0 l/m² 4,8 km/h (1 Bft) N 360 ° 0,000 mm 6,8 °C 11,7 °C 9,7 km/h (2 Bft) 100,00 %
10.05.2026 03:09 11,7 °C 13,3 °C 72 % 49 % 1015,6 hPa 0,0 l/m² 8,0 km/h (2 Bft) N 360 ° 0,000 mm 6,8 °C 11,7 °C 14,5 km/h (3 Bft) 95,65 %
10.05.2026 03:08 11,7 °C 13,3 °C 72 % 48 % 1015,6 hPa 0,0 l/m² 8,0 km/h (2 Bft) N 360 ° 0,000 mm 6,8 °C 11,7 °C 17,7 km/h (3 Bft) 100,00 %
10.05.2026 03:07 11,7 °C 13,3 °C 72 % 48 % 1015,6 hPa 0,0 l/m² 9,7 km/h (2 Bft) N 360 ° 0,000 mm 6,8 °C 11,7 °C 16,1 km/h (3 Bft) 91,30 %
10.05.2026 03:06 11,8 °C 13,3 °C 72 % 48 % 1015,5 hPa 0,0 l/m² 11,3 km/h (2 Bft) N 360 ° 0,000 mm 6,9 °C 11,8 °C 16,1 km/h (3 Bft) 100,00 %
10.05.2026 03:05 11,7 °C 13,3 °C 72 % 48 % 1015,6 hPa 0,0 l/m² 8,0 km/h (2 Bft) N 360 ° 0,000 mm 6,8 °C 11,7 °C 14,5 km/h (3 Bft) 95,65 %
10.05.2026 03:04 11,8 °C 13,3 °C 72 % 49 % 1015,6 hPa 0,0 l/m² 9,7 km/h (2 Bft) N 360 ° 0,000 mm 6,9 °C 11,8 °C 17,7 km/h (3 Bft) 95,65 %
10.05.2026 03:03 11,8 °C 13,3 °C 73 % 48 % 1015,6 hPa 0,0 l/m² 6,4 km/h (2 Bft) N 360 ° 0,000 mm 7,1 °C 11,8 °C 14,5 km/h (3 Bft) 100,00 %
10.05.2026 03:02 11,8 °C 13,3 °C 72 % 48 % 1015,5 hPa 0,0 l/m² 8,0 km/h (2 Bft) N 360 ° 0,000 mm 6,9 °C 11,8 °C 9,7 km/h (2 Bft) 95,65 %
10.05.2026 03:01 11,8 °C 13,3 °C 73 % 49 % 1015,6 hPa 0,0 l/m² 8,0 km/h (2 Bft) N 360 ° 0,000 mm 7,1 °C 11,8 °C 16,1 km/h (3 Bft) 95,65 %
10.05.2026 03:00 11,8 °C 13,3 °C 72 % 48 % 1015,6 hPa 0,0 l/m² 9,7 km/h (2 Bft) N 360 ° 0,000 mm 6,9 °C 11,8 °C 16,1 km/h (3 Bft) 95,65 %
10.05.2026 02:59 11,8 °C 13,3 °C 73 % 48 % 1015,5 hPa 0,0 l/m² 11,3 km/h (2 Bft) N 360 ° 0,000 mm 7,1 °C 11,8 °C 17,7 km/h (3 Bft) 100,00 %
10.05.2026 02:58 11,8 °C 13,3 °C 72 % 48 % 1015,5 hPa 0,0 l/m² 11,3 km/h (2 Bft) N 360 ° 0,000 mm 6,9 °C 11,8 °C 19,3 km/h (3 Bft) 100,00 %
10.05.2026 02:57 11,8 °C 13,9 °C 72 % 48 % 1015,6 hPa 0,0 l/m² 11,3 km/h (2 Bft) N 360 ° 0,000 mm 6,9 °C 11,8 °C 17,7 km/h (3 Bft) 100,00 %
10.05.2026 02:56 11,9 °C 13,9 °C 72 % 48 % 1015,5 hPa 0,0 l/m² 9,7 km/h (2 Bft) N 360 ° 0,000 mm 7,0 °C 11,9 °C 19,3 km/h (3 Bft) 100,00 %
10.05.2026 02:55 11,9 °C 13,9 °C 72 % 48 % 1015,6 hPa 0,0 l/m² 12,9 km/h (3 Bft) N 360 ° 0,000 mm 7,0 °C 11,9 °C 20,9 km/h (4 Bft) 95,65 %
10.05.2026 02:54 11,9 °C 13,9 °C 72 % 48 % 1015,6 hPa 0,0 l/m² 14,5 km/h (3 Bft) N 360 ° 0,000 mm 7,0 °C 11,9 °C 17,7 km/h (3 Bft) 100,00 %
10.05.2026 02:53 11,9 °C 13,9 °C 72 % 48 % 1015,6 hPa 0,0 l/m² 16,1 km/h (3 Bft) N 360 ° 0,000 mm 7,0 °C 11,9 °C 25,7 km/h (4 Bft) 91,30 %
10.05.2026 02:52 11,9 °C 13,9 °C 72 % 48 % 1015,5 hPa 0,0 l/m² 12,9 km/h (3 Bft) N 360 ° 0,000 mm 7,0 °C 11,9 °C 20,9 km/h (4 Bft) 100,00 %
10.05.2026 02:51 11,9 °C 13,9 °C 72 % 48 % 1015,5 hPa 0,0 l/m² 4,8 km/h (1 Bft) N 360 ° 0,000 mm 7,0 °C 11,9 °C 8,0 km/h (2 Bft) 95,65 %
10.05.2026 02:50 11,9 °C 13,9 °C 72 % 48 % 1015,5 hPa 0,0 l/m² 11,3 km/h (2 Bft) N 360 ° 0,000 mm 7,0 °C 11,9 °C 17,7 km/h (3 Bft) 95,65 %
10.05.2026 02:49 11,9 °C 13,9 °C 72 % 48 % 1015,6 hPa 0,0 l/m² 11,3 km/h (2 Bft) N 360 ° 0,000 mm 7,0 °C 11,9 °C 19,3 km/h (3 Bft) 100,00 %
10.05.2026 02:48 12,0 °C 13,9 °C 72 % 48 % 1015,6 hPa 0,0 l/m² 8,0 km/h (2 Bft) N 360 ° 0,000 mm 7,1 °C 12,0 °C 16,1 km/h (3 Bft) 95,65 %
10.05.2026 02:47 12,0 °C 13,9 °C 72 % 48 % 1015,6 hPa 0,0 l/m² 12,9 km/h (3 Bft) N 360 ° 0,000 mm 7,1 °C 12,0 °C 17,7 km/h (3 Bft) 100,00 %
10.05.2026 02:46 12,0 °C 13,9 °C 72 % 48 % 1015,6 hPa 0,0 l/m² 8,0 km/h (2 Bft) N 360 ° 0,000 mm 7,1 °C 12,0 °C 12,9 km/h (3 Bft) 91,30 %
10.05.2026 02:45 12,0 °C 13,9 °C 72 % 48 % 1015,7 hPa 0,0 l/m² 11,3 km/h (2 Bft) N 360 ° 0,000 mm 7,1 °C 12,0 °C 17,7 km/h (3 Bft) 100,00 %
10.05.2026 02:44 12,1 °C 13,9 °C 72 % 48 % 1015,7 hPa 0,0 l/m² 11,3 km/h (2 Bft) N 360 ° 0,000 mm 7,2 °C 12,1 °C 17,7 km/h (3 Bft) 95,65 %
10.05.2026 02:43 12,1 °C 13,9 °C 72 % 48 % 1015,6 hPa 0,0 l/m² 9,7 km/h (2 Bft) N 360 ° 0,000 mm 7,2 °C 12,1 °C 14,5 km/h (3 Bft) 100,00 %
10.05.2026 02:42 12,1 °C 13,9 °C 72 % 48 % 1015,7 hPa 0,0 l/m² 14,5 km/h (3 Bft) N 360 ° 0,000 mm 7,2 °C 12,1 °C 22,5 km/h (4 Bft) 95,65 %
10.05.2026 02:41 12,1 °C 13,9 °C 72 % 48 % 1015,6 hPa 0,0 l/m² 12,9 km/h (3 Bft) N 360 ° 0,000 mm 7,2 °C 12,1 °C 22,5 km/h (4 Bft) 95,65 %
10.05.2026 02:40 12,1 °C 13,9 °C 72 % 48 % 1015,7 hPa 0,0 l/m² 11,3 km/h (2 Bft) N 360 ° 0,000 mm 7,2 °C 12,1 °C 16,1 km/h (3 Bft) 95,65 %
10.05.2026 02:39 12,2 °C 13,9 °C 72 % 48 % 1015,7 hPa 0,0 l/m² 11,3 km/h (2 Bft) N 360 ° 0,000 mm 7,3 °C 12,2 °C 17,7 km/h (3 Bft) 95,65 %
10.05.2026 02:38 12,2 °C 13,9 °C 72 % 48 % 1015,6 hPa 0,0 l/m² 9,7 km/h (2 Bft) N 360 ° 0,000 mm 7,3 °C 12,2 °C 14,5 km/h (3 Bft) 95,65 %
10.05.2026 02:37 12,2 °C 13,9 °C 72 % 48 % 1015,6 hPa 0,0 l/m² 6,4 km/h (2 Bft) N 360 ° 0,000 mm 7,3 °C 12,2 °C 9,7 km/h (2 Bft) 100,00 %
10.05.2026 02:36 12,2 °C 13,9 °C 72 % 48 % 1015,6 hPa 0,0 l/m² 6,4 km/h (2 Bft) N 360 ° 0,000 mm 7,3 °C 12,2 °C 12,9 km/h (3 Bft) 91,30 %
10.05.2026 02:35 12,2 °C 13,9 °C 72 % 48 % 1015,6 hPa 0,0 l/m² 9,7 km/h (2 Bft) N 360 ° 0,000 mm 7,3 °C 12,2 °C 14,5 km/h (3 Bft) 95,65 %
10.05.2026 02:34 12,2 °C 13,9 °C 72 % 48 % 1015,6 hPa 0,0 l/m² 9,7 km/h (2 Bft) N 360 ° 0,000 mm 7,3 °C 12,2 °C 16,1 km/h (3 Bft) 100,00 %
10.05.2026 02:33 12,2 °C 13,9 °C 72 % 48 % 1015,8 hPa 0,0 l/m² 8,0 km/h (2 Bft) N 360 ° 0,000 mm 7,3 °C 12,2 °C 14,5 km/h (3 Bft) 95,65 %
10.05.2026 02:32 12,2 °C 13,9 °C 72 % 48 % 1015,8 hPa 0,0 l/m² 9,7 km/h (2 Bft) N 360 ° 0,000 mm 7,3 °C 12,2 °C 17,7 km/h (3 Bft) 91,30 %
10.05.2026 02:31 12,3 °C 13,9 °C 72 % 48 % 1015,8 hPa 0,0 l/m² 8,0 km/h (2 Bft) N 360 ° 0,000 mm 7,4 °C 12,3 °C 12,9 km/h (3 Bft) 95,65 %
10.05.2026 02:30 12,3 °C 13,9 °C 72 % 48 % 1015,9 hPa 0,0 l/m² 9,7 km/h (2 Bft) N 360 ° 0,000 mm 7,4 °C 12,3 °C 14,5 km/h (3 Bft) 100,00 %
10.05.2026 02:29 12,3 °C 13,9 °C 72 % 48 % 1015,8 hPa 0,0 l/m² 8,0 km/h (2 Bft) N 360 ° 0,000 mm 7,4 °C 12,3 °C 16,1 km/h (3 Bft) 95,65 %
10.05.2026 02:28 12,3 °C 13,9 °C 71 % 48 % 1015,8 hPa 0,0 l/m² 8,0 km/h (2 Bft) N 360 ° 0,000 mm 7,2 °C 12,3 °C 12,9 km/h (3 Bft) 95,65 %
10.05.2026 02:27 12,3 °C 13,9 °C 71 % 48 % 1015,8 hPa 0,0 l/m² 9,7 km/h (2 Bft) N 360 ° 0,000 mm 7,2 °C 12,3 °C 16,1 km/h (3 Bft) 95,65 %
10.05.2026 02:26 12,4 °C 13,9 °C 71 % 48 % 1015,8 hPa 0,0 l/m² 4,8 km/h (1 Bft) N 360 ° 0,000 mm 7,3 °C 12,4 °C 6,4 km/h (2 Bft) 100,00 %
10.05.2026 02:25 12,4 °C 13,9 °C 71 % 48 % 1015,7 hPa 0,0 l/m² 4,8 km/h (1 Bft) N 360 ° 0,000 mm 7,3 °C 12,4 °C 8,0 km/h (2 Bft) 91,30 %
10.05.2026 02:24 12,4 °C 13,9 °C 71 % 48 % 1015,8 hPa 0,0 l/m² 6,4 km/h (2 Bft) N 360 ° 0,000 mm 7,3 °C 12,4 °C 9,7 km/h (2 Bft) 95,65 %
10.05.2026 02:23 12,4 °C 13,9 °C 71 % 48 % 1015,8 hPa 0,0 l/m² 6,4 km/h (2 Bft) N 360 ° 0,000 mm 7,3 °C 12,4 °C 16,1 km/h (3 Bft) 91,30 %
10.05.2026 02:22 12,4 °C 13,9 °C 71 % 48 % 1015,8 hPa 0,0 l/m² 9,7 km/h (2 Bft) N 360 ° 0,000 mm 7,3 °C 12,4 °C 17,7 km/h (3 Bft) 100,00 %
10.05.2026 02:21 12,4 °C 13,9 °C 71 % 48 % 1015,7 hPa 0,0 l/m² 9,7 km/h (2 Bft) N 360 ° 0,000 mm 7,3 °C 12,4 °C 22,5 km/h (4 Bft) 91,30 %
10.05.2026 02:20 12,4 °C 13,9 °C 71 % 48 % 1015,8 hPa 0,0 l/m² 11,3 km/h (2 Bft) N 360 ° 0,000 mm 7,3 °C 12,4 °C 16,1 km/h (3 Bft) 100,00 %
10.05.2026 02:19 12,4 °C 13,9 °C 71 % 47 % 1015,8 hPa 0,0 l/m² 12,9 km/h (3 Bft) N 360 ° 0,000 mm 7,3 °C 12,4 °C 16,1 km/h (3 Bft) 95,65 %
10.05.2026 02:18 12,4 °C 13,9 °C 71 % 47 % 1015,7 hPa 0,0 l/m² 11,3 km/h (2 Bft) N 360 ° 0,000 mm 7,3 °C 12,4 °C 19,3 km/h (3 Bft) 95,65 %
10.05.2026 02:17 12,5 °C 14,4 °C 71 % 47 % 1015,8 hPa 0,0 l/m² 9,7 km/h (2 Bft) N 360 ° 0,000 mm 7,4 °C 12,5 °C 19,3 km/h (3 Bft) 95,65 %
10.05.2026 02:16 12,5 °C 14,4 °C 71 % 47 % 1015,8 hPa 0,0 l/m² 14,5 km/h (3 Bft) N 360 ° 0,000 mm 7,4 °C 12,5 °C 19,3 km/h (3 Bft) 95,65 %
10.05.2026 02:15 12,5 °C 14,4 °C 71 % 47 % 1015,8 hPa 0,0 l/m² 12,9 km/h (3 Bft) N 360 ° 0,000 mm 7,4 °C 12,5 °C 22,5 km/h (4 Bft) 95,65 %
10.05.2026 02:14 12,5 °C 14,4 °C 71 % 47 % 1015,7 hPa 0,0 l/m² 16,1 km/h (3 Bft) N 360 ° 0,000 mm 7,4 °C 12,5 °C 22,5 km/h (4 Bft) 95,65 %
10.05.2026 02:13 12,6 °C 14,4 °C 71 % 47 % 1015,8 hPa 0,0 l/m² 17,7 km/h (3 Bft) N 360 ° 0,000 mm 7,5 °C 12,6 °C 22,5 km/h (4 Bft) 100,00 %
10.05.2026 02:12 12,6 °C 14,4 °C 72 % 47 % 1015,8 hPa 0,0 l/m² 14,5 km/h (3 Bft) N 360 ° 0,000 mm 7,7 °C 12,6 °C 19,3 km/h (3 Bft) 95,65 %
10.05.2026 02:11 12,6 °C 14,4 °C 72 % 47 % 1015,9 hPa 0,0 l/m² 11,3 km/h (2 Bft) N 360 ° 0,000 mm 7,7 °C 12,6 °C 19,3 km/h (3 Bft) 100,00 %
10.05.2026 02:10 12,6 °C 14,4 °C 72 % 47 % 1015,8 hPa 0,0 l/m² 11,3 km/h (2 Bft) N 360 ° 0,000 mm 7,7 °C 12,6 °C 20,9 km/h (4 Bft) 91,30 %
10.05.2026 02:09 12,6 °C 14,4 °C 72 % 47 % 1015,9 hPa 0,0 l/m² 11,3 km/h (2 Bft) N 360 ° 0,000 mm 7,7 °C 12,6 °C 25,7 km/h (4 Bft) 100,00 %
10.05.2026 02:08 12,6 °C 14,4 °C 71 % 47 % 1015,9 hPa 0,0 l/m² 9,7 km/h (2 Bft) N 360 ° 0,000 mm 7,5 °C 12,6 °C 19,3 km/h (3 Bft) 95,65 %
10.05.2026 02:07 12,6 °C 14,4 °C 71 % 48 % 1015,9 hPa 0,0 l/m² 6,4 km/h (2 Bft) N 360 ° 0,000 mm 7,5 °C 12,6 °C 9,7 km/h (2 Bft) 100,00 %
10.05.2026 02:06 12,6 °C 14,4 °C 71 % 47 % 1015,9 hPa 0,0 l/m² 9,7 km/h (2 Bft) N 360 ° 0,000 mm 7,5 °C 12,6 °C 14,5 km/h (3 Bft) 91,30 %
10.05.2026 02:05 12,6 °C 14,4 °C 71 % 48 % 1015,9 hPa 0,0 l/m² 9,7 km/h (2 Bft) N 360 ° 0,000 mm 7,5 °C 12,6 °C 16,1 km/h (3 Bft) 100,00 %
10.05.2026 02:04 12,7 °C 14,4 °C 71 % 48 % 1015,9 hPa 0,0 l/m² 11,3 km/h (2 Bft) N 360 ° 0,000 mm 7,6 °C 12,7 °C 16,1 km/h (3 Bft) 91,30 %
10.05.2026 02:03 12,7 °C 14,4 °C 71 % 47 % 1015,9 hPa 0,0 l/m² 6,4 km/h (2 Bft) N 360 ° 0,000 mm 7,6 °C 12,7 °C 14,5 km/h (3 Bft) 91,30 %
10.05.2026 02:02 12,7 °C 14,4 °C 71 % 47 % 1015,8 hPa 0,0 l/m² 6,4 km/h (2 Bft) N 360 ° 0,000 mm 7,6 °C 12,7 °C 12,9 km/h (3 Bft) 95,65 %
10.05.2026 02:01 12,7 °C 14,4 °C 71 % 47 % 1015,9 hPa 0,0 l/m² 9,7 km/h (2 Bft) N 360 ° 0,000 mm 7,6 °C 12,7 °C 16,1 km/h (3 Bft) 95,65 %
10.05.2026 02:00 12,7 °C 14,4 °C 71 % 47 % 1015,9 hPa 0,0 l/m² 14,5 km/h (3 Bft) N 360 ° 0,000 mm 7,6 °C 12,7 °C 19,3 km/h (3 Bft) 95,65 %
10.05.2026 01:59 12,8 °C 14,4 °C 71 % 47 % 1015,9 hPa 0,0 l/m² 6,4 km/h (2 Bft) N 360 ° 0,000 mm 7,7 °C 12,8 °C 14,5 km/h (3 Bft) 91,30 %
10.05.2026 01:58 12,8 °C 14,4 °C 71 % 47 % 1016,0 hPa 0,0 l/m² 11,3 km/h (2 Bft) N 360 ° 0,000 mm 7,7 °C 12,8 °C 16,1 km/h (3 Bft) 100,00 %
10.05.2026 01:57 12,8 °C 14,4 °C 71 % 47 % 1016,0 hPa 0,0 l/m² 9,7 km/h (2 Bft) N 360 ° 0,000 mm 7,7 °C 12,8 °C 16,1 km/h (3 Bft) 91,30 %
10.05.2026 01:56 12,8 °C 14,4 °C 71 % 47 % 1016,2 hPa 0,0 l/m² 8,0 km/h (2 Bft) N 360 ° 0,000 mm 7,7 °C 12,8 °C 12,9 km/h (3 Bft) 95,65 %
10.05.2026 01:55 12,8 °C 14,4 °C 71 % 47 % 1016,1 hPa 0,0 l/m² 9,7 km/h (2 Bft) N 360 ° 0,000 mm 7,7 °C 12,8 °C 14,5 km/h (3 Bft) 91,30 %
10.05.2026 01:54 12,8 °C 14,4 °C 71 % 47 % 1016,1 hPa 0,0 l/m² 11,3 km/h (2 Bft) N 360 ° 0,000 mm 7,7 °C 12,8 °C 19,3 km/h (3 Bft) 100,00 %
10.05.2026 01:53 12,8 °C 14,4 °C 71 % 47 % 1016,1 hPa 0,0 l/m² 17,7 km/h (3 Bft) N 360 ° 0,000 mm 7,7 °C 12,8 °C 25,7 km/h (4 Bft) 95,65 %
10.05.2026 01:52 12,9 °C 14,4 °C 71 % 47 % 1016,1 hPa 0,0 l/m² 11,3 km/h (2 Bft) N 360 ° 0,000 mm 7,8 °C 12,9 °C 16,1 km/h (3 Bft) 95,65 %
10.05.2026 01:51 12,9 °C 14,4 °C 71 % 47 % 1016,1 hPa 0,0 l/m² 11,3 km/h (2 Bft) N 360 ° 0,000 mm 7,8 °C 12,9 °C 19,3 km/h (3 Bft) 91,30 %
10.05.2026 01:50 12,9 °C 14,4 °C 71 % 47 % 1016,2 hPa 0,0 l/m² 11,3 km/h (2 Bft) N 360 ° 0,000 mm 7,8 °C 12,9 °C 19,3 km/h (3 Bft) 95,65 %
10.05.2026 01:49 12,9 °C 14,4 °C 71 % 47 % 1016,0 hPa 0,0 l/m² 11,3 km/h (2 Bft) N 360 ° 0,000 mm 7,8 °C 12,9 °C 17,7 km/h (3 Bft) 91,30 %
10.05.2026 01:48 12,9 °C 14,4 °C 71 % 47 % 1016,2 hPa 0,0 l/m² 8,0 km/h (2 Bft) N 360 ° 0,000 mm 7,8 °C 12,9 °C 19,3 km/h (3 Bft) 95,65 %
10.05.2026 01:47 12,9 °C 14,4 °C 71 % 47 % 1016,2 hPa 0,0 l/m² 8,0 km/h (2 Bft) N 360 ° 0,000 mm 7,8 °C 12,9 °C 12,9 km/h (3 Bft) 95,65 %
10.05.2026 01:46 13,0 °C 14,4 °C 71 % 47 % 1016,2 hPa 0,0 l/m² 8,0 km/h (2 Bft) N 360 ° 0,000 mm 7,9 °C 13,0 °C 17,7 km/h (3 Bft) 91,30 %
10.05.2026 01:45 13,0 °C 14,4 °C 71 % 47 % 1016,4 hPa 0,0 l/m² 11,3 km/h (2 Bft) N 360 ° 0,000 mm 7,9 °C 13,0 °C 16,1 km/h (3 Bft) 100,00 %
10.05.2026 01:44 13,0 °C 14,4 °C 71 % 47 % 1016,3 hPa 0,0 l/m² 11,3 km/h (2 Bft) N 360 ° 0,000 mm 7,9 °C 13,0 °C 17,7 km/h (3 Bft) 91,30 %
10.05.2026 01:43 13,0 °C 14,4 °C 71 % 47 % 1016,4 hPa 0,0 l/m² 11,3 km/h (2 Bft) N 360 ° 0,000 mm 7,9 °C 13,0 °C 20,9 km/h (4 Bft) 95,65 %
10.05.2026 01:42 13,0 °C 14,4 °C 71 % 47 % 1016,3 hPa 0,0 l/m² 14,5 km/h (3 Bft) N 360 ° 0,000 mm 7,9 °C 13,0 °C 22,5 km/h (4 Bft) 86,96 %
10.05.2026 01:41 13,1 °C 14,4 °C 71 % 47 % 1016,3 hPa 0,0 l/m² 11,3 km/h (2 Bft) N 360 ° 0,000 mm 8,0 °C 13,1 °C 25,7 km/h (4 Bft) 95,65 %
10.05.2026 01:40 13,1 °C 14,4 °C 70 % 47 % 1016,2 hPa 0,0 l/m² 8,0 km/h (2 Bft) N 360 ° 0,000 mm 7,8 °C 13,1 °C 19,3 km/h (3 Bft) 95,65 %
10.05.2026 01:39 13,1 °C 14,4 °C 70 % 47 % 1016,4 hPa 0,0 l/m² 11,3 km/h (2 Bft) N 360 ° 0,000 mm 7,8 °C 13,1 °C 20,9 km/h (4 Bft) 95,65 %
10.05.2026 01:38 13,1 °C 14,4 °C 70 % 47 % 1016,2 hPa 0,0 l/m² 8,0 km/h (2 Bft) N 360 ° 0,000 mm 7,8 °C 13,1 °C 16,1 km/h (3 Bft) 95,65 %
10.05.2026 01:37 13,1 °C 14,4 °C 70 % 47 % 1016,3 hPa 0,0 l/m² 8,0 km/h (2 Bft) N 360 ° 0,000 mm 7,8 °C 13,1 °C 16,1 km/h (3 Bft) 100,00 %
10.05.2026 01:36 13,2 °C 14,4 °C 70 % 47 % 1016,3 hPa 0,0 l/m² 12,9 km/h (3 Bft) N 360 ° 0,000 mm 7,9 °C 13,2 °C 17,7 km/h (3 Bft) 95,65 %
10.05.2026 01:35 13,2 °C 15,0 °C 70 % 47 % 1016,3 hPa 0,0 l/m² 12,9 km/h (3 Bft) N 360 ° 0,000 mm 7,9 °C 13,2 °C 20,9 km/h (4 Bft) 95,65 %
10.05.2026 01:34 13,2 °C 15,0 °C 70 % 47 % 1016,3 hPa 0,0 l/m² 9,7 km/h (2 Bft) N 360 ° 0,000 mm 7,9 °C 13,2 °C 19,3 km/h (3 Bft) 91,30 %
10.05.2026 01:33 13,2 °C 15,0 °C 70 % 47 % 1016,2 hPa 0,0 l/m² 14,5 km/h (3 Bft) N 360 ° 0,000 mm 7,9 °C 13,2 °C 19,3 km/h (3 Bft) 100,00 %
10.05.2026 01:32 13,2 °C 15,0 °C 70 % 47 % 1016,2 hPa 0,0 l/m² 12,9 km/h (3 Bft) N 360 ° 0,000 mm 7,9 °C 13,2 °C 20,9 km/h (4 Bft) 95,65 %
10.05.2026 01:31 13,2 °C 15,0 °C 70 % 47 % 1016,2 hPa 0,0 l/m² 14,5 km/h (3 Bft) N 360 ° 0,000 mm 7,9 °C 13,2 °C 20,9 km/h (4 Bft) 95,65 %
10.05.2026 01:30 13,2 °C 15,0 °C 70 % 47 % 1016,2 hPa 0,0 l/m² 11,3 km/h (2 Bft) N 360 ° 0,000 mm 7,9 °C 13,2 °C 19,3 km/h (3 Bft) 100,00 %
10.05.2026 01:29 13,2 °C 15,0 °C 70 % 46 % 1016,2 hPa 0,0 l/m² 14,5 km/h (3 Bft) N 360 ° 0,000 mm 7,9 °C 13,2 °C 22,5 km/h (4 Bft) 91,30 %
10.05.2026 01:28 13,3 °C 15,0 °C 70 % 46 % 1016,1 hPa 0,0 l/m² 16,1 km/h (3 Bft) N 360 ° 0,000 mm 7,9 °C 13,3 °C 24,1 km/h (4 Bft) 95,65 %
10.05.2026 01:27 13,3 °C 15,0 °C 70 % 47 % 1016,3 hPa 0,0 l/m² 19,3 km/h (3 Bft) N 360 ° 0,000 mm 7,9 °C 13,3 °C 27,4 km/h (4 Bft) 95,65 %
10.05.2026 01:26 13,3 °C 15,0 °C 70 % 46 % 1016,2 hPa 0,0 l/m² 12,9 km/h (3 Bft) N 360 ° 0,000 mm 7,9 °C 13,3 °C 20,9 km/h (4 Bft) 95,65 %
10.05.2026 01:25 13,3 °C 15,0 °C 70 % 47 % 1016,2 hPa 0,0 l/m² 12,9 km/h (3 Bft) N 360 ° 0,000 mm 7,9 °C 13,3 °C 19,3 km/h (3 Bft) 95,65 %
10.05.2026 01:24 13,3 °C 15,0 °C 70 % 47 % 1016,2 hPa 0,0 l/m² 16,1 km/h (3 Bft) N 360 ° 0,000 mm 7,9 °C 13,3 °C 24,1 km/h (4 Bft) 95,65 %
10.05.2026 01:23 13,4 °C 15,0 °C 70 % 47 % 1016,3 hPa 0,0 l/m² 8,0 km/h (2 Bft) N 360 ° 0,000 mm 8,0 °C 13,4 °C 16,1 km/h (3 Bft) 95,65 %
10.05.2026 01:22 13,4 °C 15,0 °C 70 % 46 % 1016,2 hPa 0,0 l/m² 6,4 km/h (2 Bft) N 360 ° 0,000 mm 8,0 °C 13,4 °C 12,9 km/h (3 Bft) 100,00 %
10.05.2026 01:21 13,3 °C 15,0 °C 70 % 46 % 1016,2 hPa 0,0 l/m² 12,9 km/h (3 Bft) N 360 ° 0,000 mm 7,9 °C 13,3 °C 22,5 km/h (4 Bft) 86,96 %
10.05.2026 01:20 13,4 °C 15,0 °C 70 % 46 % 1016,2 hPa 0,0 l/m² 12,9 km/h (3 Bft) N 360 ° 0,000 mm 8,0 °C 13,4 °C 19,3 km/h (3 Bft) 100,00 %
10.05.2026 01:19 13,3 °C 15,0 °C 70 % 46 % 1016,2 hPa 0,0 l/m² 16,1 km/h (3 Bft) N 360 ° 0,000 mm 7,9 °C 13,3 °C 20,9 km/h (4 Bft) 95,65 %
10.05.2026 01:18 13,3 °C 15,0 °C 70 % 47 % 1016,3 hPa 0,0 l/m² 19,3 km/h (3 Bft) N 360 ° 0,000 mm 7,9 °C 13,3 °C 25,7 km/h (4 Bft) 95,65 %
10.05.2026 01:17 13,4 °C 15,0 °C 70 % 46 % 1016,3 hPa 0,0 l/m² 16,1 km/h (3 Bft) N 360 ° 0,000 mm 8,0 °C 13,4 °C 24,1 km/h (4 Bft) 95,65 %
10.05.2026 01:16 13,4 °C 15,0 °C 71 % 46 % 1016,3 hPa 0,0 l/m² 9,7 km/h (2 Bft) N 360 ° 0,000 mm 8,3 °C 13,4 °C 19,3 km/h (3 Bft) 95,65 %
10.05.2026 01:15 13,4 °C 15,0 °C 71 % 46 % 1016,2 hPa 0,0 l/m² 14,5 km/h (3 Bft) N 360 ° 0,000 mm 8,3 °C 13,4 °C 19,3 km/h (3 Bft) 100,00 %
10.05.2026 01:14 13,4 °C 15,0 °C 71 % 46 % 1016,3 hPa 0,0 l/m² 17,7 km/h (3 Bft) N 360 ° 0,000 mm 8,3 °C 13,4 °C 27,4 km/h (4 Bft) 86,96 %
10.05.2026 01:13 13,4 °C 15,0 °C 70 % 46 % 1016,2 hPa 0,0 l/m² 17,7 km/h (3 Bft) N 360 ° 0,000 mm 8,0 °C 13,4 °C 27,4 km/h (4 Bft) 100,00 %
10.05.2026 01:12 13,4 °C 15,0 °C 71 % 46 % 1016,2 hPa 0,0 l/m² 11,3 km/h (2 Bft) N 360 ° 0,000 mm 8,3 °C 13,4 °C 20,9 km/h (4 Bft) 95,65 %
10.05.2026 01:11 13,4 °C 15,0 °C 71 % 47 % 1016,2 hPa 0,0 l/m² 14,5 km/h (3 Bft) N 360 ° 0,000 mm 8,3 °C 13,4 °C 22,5 km/h (4 Bft) 100,00 %
10.05.2026 01:10 13,4 °C 15,0 °C 71 % 47 % 1016,2 hPa 0,0 l/m² 16,1 km/h (3 Bft) N 360 ° 0,000 mm 8,3 °C 13,4 °C 22,5 km/h (4 Bft) 95,65 %
10.05.2026 01:09 13,4 °C 15,0 °C 71 % 47 % 1016,2 hPa 0,0 l/m² 11,3 km/h (2 Bft) N 360 ° 0,000 mm 8,3 °C 13,4 °C 19,3 km/h (3 Bft) 100,00 %
10.05.2026 01:08 13,4 °C 15,0 °C 71 % 47 % 1016,2 hPa 0,0 l/m² 14,5 km/h (3 Bft) N 360 ° 0,000 mm 8,3 °C 13,4 °C 22,5 km/h (4 Bft) 95,65 %
10.05.2026 01:07 13,4 °C 15,0 °C 71 % 47 % 1016,2 hPa 0,0 l/m² 12,9 km/h (3 Bft) N 360 ° 0,000 mm 8,3 °C 13,4 °C 17,7 km/h (3 Bft) 95,65 %
10.05.2026 01:06 13,4 °C 15,0 °C 71 % 47 % 1016,3 hPa 0,0 l/m² 9,7 km/h (2 Bft) N 360 ° 0,000 mm 8,3 °C 13,4 °C 19,3 km/h (3 Bft) 95,65 %
10.05.2026 01:05 13,4 °C 15,6 °C 72 % 47 % 1016,1 hPa 0,0 l/m² 12,9 km/h (3 Bft) N 360 ° 0,000 mm 8,5 °C 13,4 °C 20,9 km/h (4 Bft) 100,00 %
10.05.2026 01:04 13,4 °C 15,6 °C 72 % 47 % 1016,2 hPa 0,0 l/m² 11,3 km/h (2 Bft) N 360 ° 0,000 mm 8,5 °C 13,4 °C 17,7 km/h (3 Bft) 91,30 %
10.05.2026 01:03 13,4 °C 15,6 °C 72 % 47 % 1016,2 hPa 0,0 l/m² 9,7 km/h (2 Bft) N 360 ° 0,000 mm 8,5 °C 13,4 °C 14,5 km/h (3 Bft) 100,00 %
10.05.2026 01:02 13,3 °C 15,6 °C 72 % 47 % 1016,2 hPa 0,0 l/m² 12,9 km/h (3 Bft) N 360 ° 0,000 mm 8,4 °C 13,3 °C 17,7 km/h (3 Bft) 95,65 %
10.05.2026 01:01 13,3 °C 15,6 °C 72 % 47 % 1016,3 hPa 0,0 l/m² 9,7 km/h (2 Bft) N 360 ° 0,000 mm 8,4 °C 13,3 °C 16,1 km/h (3 Bft) 100,00 %
10.05.2026 01:00 13,3 °C 15,6 °C 73 % 47 % 1016,2 hPa 0,0 l/m² 14,5 km/h (3 Bft) N 360 ° 0,000 mm 8,6 °C 13,3 °C 20,9 km/h (4 Bft) 91,30 %
10.05.2026 00:59 13,3 °C 15,6 °C 73 % 47 % 1016,1 hPa 0,0 l/m² 11,3 km/h (2 Bft) N 360 ° 0,000 mm 8,6 °C 13,3 °C 19,3 km/h (3 Bft) 91,30 %
10.05.2026 00:58 13,3 °C 15,6 °C 73 % 48 % 1016,2 hPa 0,0 l/m² 12,9 km/h (3 Bft) N 360 ° 0,000 mm 8,6 °C 13,3 °C 22,5 km/h (4 Bft) 100,00 %
10.05.2026 00:57 13,3 °C 15,6 °C 73 % 47 % 1016,2 hPa 0,0 l/m² 6,4 km/h (2 Bft) N 360 ° 0,000 mm 8,6 °C 13,3 °C 12,9 km/h (3 Bft) 100,00 %
10.05.2026 00:56 13,3 °C 15,6 °C 73 % 48 % 1016,2 hPa 0,0 l/m² 9,7 km/h (2 Bft) N 360 ° 0,000 mm 8,6 °C 13,3 °C 16,1 km/h (3 Bft) 100,00 %
10.05.2026 00:55 13,3 °C 15,6 °C 73 % 48 % 1016,3 hPa 0,0 l/m² 12,9 km/h (3 Bft) N 360 ° 0,000 mm 8,6 °C 13,3 °C 22,5 km/h (4 Bft) 95,65 %
10.05.2026 00:54 13,3 °C 15,6 °C 73 % 48 % 1016,3 hPa 0,0 l/m² 11,3 km/h (2 Bft) N 360 ° 0,000 mm 8,6 °C 13,3 °C 20,9 km/h (4 Bft) 100,00 %
10.05.2026 00:53 13,3 °C 15,6 °C 74 % 48 % 1016,3 hPa 0,0 l/m² 8,0 km/h (2 Bft) N 360 ° 0,000 mm 8,8 °C 13,3 °C 16,1 km/h (3 Bft) 91,30 %
10.05.2026 00:52 13,3 °C 15,6 °C 74 % 48 % 1016,3 hPa 0,0 l/m² 12,9 km/h (3 Bft) N 360 ° 0,000 mm 8,8 °C 13,3 °C 17,7 km/h (3 Bft) 100,00 %
10.05.2026 00:51 13,3 °C 15,6 °C 74 % 48 % 1016,4 hPa 0,0 l/m² 12,9 km/h (3 Bft) N 360 ° 0,000 mm 8,8 °C 13,3 °C 20,9 km/h (4 Bft) 100,00 %
10.05.2026 00:50 13,3 °C 15,6 °C 75 % 48 % 1016,3 hPa 0,0 l/m² 14,5 km/h (3 Bft) N 360 ° 0,000 mm 9,0 °C 13,3 °C 20,9 km/h (4 Bft) 100,00 %
10.05.2026 00:49 13,3 °C 15,6 °C 75 % 48 % 1016,3 hPa 0,0 l/m² 9,7 km/h (2 Bft) N 360 ° 0,000 mm 9,0 °C 13,3 °C 17,7 km/h (3 Bft) 95,65 %
10.05.2026 00:48 13,3 °C 15,6 °C 75 % 48 % 1016,3 hPa 0,0 l/m² 8,0 km/h (2 Bft) N 360 ° 0,000 mm 9,0 °C 13,3 °C 16,1 km/h (3 Bft) 100,00 %
10.05.2026 00:47 13,3 °C 15,6 °C 75 % 48 % 1016,3 hPa 0,0 l/m² 9,7 km/h (2 Bft) N 360 ° 0,000 mm 9,0 °C 13,3 °C 16,1 km/h (3 Bft) 100,00 %
10.05.2026 00:46 13,3 °C 15,6 °C 75 % 49 % 1016,3 hPa 0,0 l/m² 11,3 km/h (2 Bft) N 360 ° 0,000 mm 9,0 °C 13,3 °C 19,3 km/h (3 Bft) 91,30 %
10.05.2026 00:45 13,3 °C 15,6 °C 76 % 49 % 1016,3 hPa 0,0 l/m² 9,7 km/h (2 Bft) N 360 ° 0,000 mm 9,2 °C 13,3 °C 12,9 km/h (3 Bft) 100,00 %
10.05.2026 00:44 13,3 °C 15,6 °C 76 % 48 % 1016,3 hPa 0,0 l/m² 11,3 km/h (2 Bft) N 360 ° 0,000 mm 9,2 °C 13,3 °C 17,7 km/h (3 Bft) 100,00 %
10.05.2026 00:43 13,2 °C 15,6 °C 76 % 49 % 1016,3 hPa 0,0 l/m² 8,0 km/h (2 Bft) N 360 ° 0,000 mm 9,1 °C 13,2 °C 14,5 km/h (3 Bft) 95,65 %
10.05.2026 00:42 13,2 °C 15,6 °C 76 % 49 % 1016,3 hPa 0,0 l/m² 12,9 km/h (3 Bft) N 360 ° 0,000 mm 9,1 °C 13,2 °C 17,7 km/h (3 Bft) 100,00 %
10.05.2026 00:41 13,2 °C 15,6 °C 76 % 49 % 1016,3 hPa 0,0 l/m² 12,9 km/h (3 Bft) N 360 ° 0,000 mm 9,1 °C 13,2 °C 24,1 km/h (4 Bft) 100,00 %
10.05.2026 00:40 13,2 °C 15,6 °C 77 % 49 % 1016,4 hPa 0,0 l/m² 12,9 km/h (3 Bft) N 360 ° 0,000 mm 9,3 °C 13,2 °C 24,1 km/h (4 Bft) 95,65 %
10.05.2026 00:39 13,2 °C 15,6 °C 77 % 49 % 1016,4 hPa 0,0 l/m² 14,5 km/h (3 Bft) N 360 ° 0,000 mm 9,3 °C 13,2 °C 20,9 km/h (4 Bft) 91,30 %
10.05.2026 00:38 13,2 °C 16,1 °C 77 % 50 % 1016,4 hPa 0,0 l/m² 12,9 km/h (3 Bft) N 360 ° 0,000 mm 9,3 °C 13,2 °C 20,9 km/h (4 Bft) 100,00 %
10.05.2026 00:37 13,3 °C 16,1 °C 77 % 49 % 1016,5 hPa 0,0 l/m² 8,0 km/h (2 Bft) N 360 ° 0,000 mm 9,4 °C 13,3 °C 17,7 km/h (3 Bft) 95,65 %
10.05.2026 00:36 13,2 °C 16,1 °C 77 % 50 % 1016,5 hPa 0,0 l/m² 9,7 km/h (2 Bft) N 360 ° 0,000 mm 9,3 °C 13,2 °C 17,7 km/h (3 Bft) 95,65 %
10.05.2026 00:35 13,3 °C 16,1 °C 77 % 50 % 1016,5 hPa 0,0 l/m² 11,3 km/h (2 Bft) N 360 ° 0,000 mm 9,4 °C 13,3 °C 16,1 km/h (3 Bft) 100,00 %
10.05.2026 00:34 13,2 °C 16,1 °C 77 % 50 % 1016,5 hPa 0,0 l/m² 8,0 km/h (2 Bft) N 360 ° 0,000 mm 9,3 °C 13,2 °C 14,5 km/h (3 Bft) 100,00 %
10.05.2026 00:33 13,3 °C 16,1 °C 77 % 50 % 1016,5 hPa 0,0 l/m² 9,7 km/h (2 Bft) N 360 ° 0,000 mm 9,4 °C 13,3 °C 16,1 km/h (3 Bft) 100,00 %
10.05.2026 00:32 13,3 °C 16,1 °C 77 % 50 % 1016,6 hPa 0,0 l/m² 6,4 km/h (2 Bft) N 360 ° 0,000 mm 9,4 °C 13,3 °C 9,7 km/h (2 Bft) 91,30 %
10.05.2026 00:31 13,3 °C 16,1 °C 77 % 50 % 1016,6 hPa 0,0 l/m² 9,7 km/h (2 Bft) N 360 ° 0,000 mm 9,4 °C 13,3 °C 14,5 km/h (3 Bft) 91,30 %
10.05.2026 00:30 13,3 °C 16,1 °C 77 % 50 % 1016,5 hPa 0,0 l/m² 6,4 km/h (2 Bft) N 360 ° 0,000 mm 9,4 °C 13,3 °C 9,7 km/h (2 Bft) 100,00 %
10.05.2026 00:29 13,3 °C 16,1 °C 77 % 50 % 1016,6 hPa 0,0 l/m² 8,0 km/h (2 Bft) N 360 ° 0,000 mm 9,4 °C 13,3 °C 12,9 km/h (3 Bft) 95,65 %
10.05.2026 00:28 13,3 °C 16,1 °C 77 % 50 % 1016,6 hPa 0,0 l/m² 4,8 km/h (1 Bft) N 360 ° 0,000 mm 9,4 °C 13,3 °C 8,0 km/h (2 Bft) 95,65 %
10.05.2026 00:27 13,3 °C 16,1 °C 77 % 49 % 1016,5 hPa 0,0 l/m² 6,4 km/h (2 Bft) N 360 ° 0,000 mm 9,4 °C 13,3 °C 12,9 km/h (3 Bft) 95,65 %
10.05.2026 00:26 13,3 °C 16,1 °C 77 % 49 % 1016,5 hPa 0,0 l/m² 3,2 km/h (1 Bft) N 360 ° 0,000 mm 9,4 °C 13,3 °C 8,0 km/h (2 Bft) 100,00 %
10.05.2026 00:25 13,3 °C 16,1 °C 77 % 49 % 1016,5 hPa 0,0 l/m² 6,4 km/h (2 Bft) N 360 ° 0,000 mm 9,4 °C 13,3 °C 8,0 km/h (2 Bft) 86,96 %
10.05.2026 00:24 13,3 °C 16,1 °C 77 % 49 % 1016,6 hPa 0,0 l/m² 8,0 km/h (2 Bft) N 360 ° 0,000 mm 9,4 °C 13,3 °C 12,9 km/h (3 Bft) 100,00 %
10.05.2026 00:23 13,3 °C 16,1 °C 77 % 49 % 1016,5 hPa 0,0 l/m² 4,8 km/h (1 Bft) N 360 ° 0,000 mm 9,4 °C 13,3 °C 8,0 km/h (2 Bft) 95,65 %
10.05.2026 00:22 13,3 °C 16,1 °C 77 % 49 % 1016,6 hPa 0,0 l/m² 6,4 km/h (2 Bft) N 360 ° 0,000 mm 9,4 °C 13,3 °C 9,7 km/h (2 Bft) 91,30 %
10.05.2026 00:21 13,3 °C 16,1 °C 77 % 49 % 1016,6 hPa 0,0 l/m² 6,4 km/h (2 Bft) N 360 ° 0,000 mm 9,4 °C 13,3 °C 12,9 km/h (3 Bft) 100,00 %
10.05.2026 00:20 13,3 °C 16,1 °C 77 % 49 % 1016,7 hPa 0,0 l/m² 8,0 km/h (2 Bft) N 360 ° 0,000 mm 9,4 °C 13,3 °C 12,9 km/h (3 Bft) 95,65 %
10.05.2026 00:19 13,3 °C 16,1 °C 77 % 49 % 1016,5 hPa 0,0 l/m² 4,8 km/h (1 Bft) N 360 ° 0,000 mm 9,4 °C 13,3 °C 9,7 km/h (2 Bft) 100,00 %
10.05.2026 00:18 13,3 °C 16,1 °C 77 % 49 % 1016,6 hPa 0,0 l/m² 8,0 km/h (2 Bft) N 360 ° 0,000 mm 9,4 °C 13,3 °C 16,1 km/h (3 Bft) 86,96 %
10.05.2026 00:17 13,4 °C 16,1 °C 77 % 49 % 1016,5 hPa 0,0 l/m² 8,0 km/h (2 Bft) N 360 ° 0,000 mm 9,5 °C 13,4 °C 16,1 km/h (3 Bft) 100,00 %
10.05.2026 00:16 13,4 °C 16,1 °C 77 % 49 % 1016,5 hPa 0,0 l/m² 6,4 km/h (2 Bft) N 360 ° 0,000 mm 9,5 °C 13,4 °C 12,9 km/h (3 Bft) 91,30 %
10.05.2026 00:15 13,4 °C 16,1 °C 77 % 49 % 1016,5 hPa 0,0 l/m² 8,0 km/h (2 Bft) N 360 ° 0,000 mm 9,5 °C 13,4 °C 12,9 km/h (3 Bft) 100,00 %
10.05.2026 00:14 13,4 °C 16,1 °C 77 % 49 % 1016,4 hPa 0,0 l/m² 8,0 km/h (2 Bft) N 360 ° 0,000 mm 9,5 °C 13,4 °C 9,7 km/h (2 Bft) 95,65 %
10.05.2026 00:13 13,4 °C 16,1 °C 77 % 49 % 1016,5 hPa 0,0 l/m² 6,4 km/h (2 Bft) N 360 ° 0,000 mm 9,5 °C 13,4 °C 12,9 km/h (3 Bft) 91,30 %
10.05.2026 00:12 13,4 °C 16,1 °C 77 % 49 % 1016,5 hPa 0,0 l/m² 4,8 km/h (1 Bft) N 360 ° 0,000 mm 9,5 °C 13,4 °C 8,0 km/h (2 Bft) 100,00 %
10.05.2026 00:11 13,4 °C 16,1 °C 77 % 48 % 1016,5 hPa 0,0 l/m² 6,4 km/h (2 Bft) N 360 ° 0,000 mm 9,5 °C 13,4 °C 8,0 km/h (2 Bft) 91,30 %
10.05.2026 00:10 13,4 °C 16,1 °C 76 % 48 % 1016,6 hPa 0,0 l/m² 6,4 km/h (2 Bft) N 360 ° 0,000 mm 9,3 °C 13,4 °C 9,7 km/h (2 Bft) 100,00 %
10.05.2026 00:09 13,4 °C 16,1 °C 77 % 48 % 1016,6 hPa 0,0 l/m² 4,8 km/h (1 Bft) N 360 ° 0,000 mm 9,5 °C 13,4 °C 8,0 km/h (2 Bft) 95,65 %
10.05.2026 00:08 13,4 °C 16,1 °C 77 % 48 % 1016,5 hPa 0,0 l/m² 3,2 km/h (1 Bft) N 360 ° 0,000 mm 9,5 °C 13,4 °C 6,4 km/h (2 Bft) 100,00 %
10.05.2026 00:07 13,4 °C 16,1 °C 77 % 48 % 1016,6 hPa 0,0 l/m² 4,8 km/h (1 Bft) N 360 ° 0,000 mm 9,5 °C 13,4 °C 6,4 km/h (2 Bft) 95,65 %
10.05.2026 00:06 13,5 °C 16,7 °C 77 % 48 % 1016,5 hPa 0,0 l/m² 6,4 km/h (2 Bft) N 360 ° 0,000 mm 9,5 °C 13,5 °C 8,0 km/h (2 Bft) 100,00 %
10.05.2026 00:05 13,5 °C 16,7 °C 77 % 48 % 1016,5 hPa 0,0 l/m² 6,4 km/h (2 Bft) N 360 ° 0,000 mm 9,5 °C 13,5 °C 8,0 km/h (2 Bft) 100,00 %
10.05.2026 00:04 13,5 °C 16,7 °C 77 % 48 % 1016,6 hPa 0,0 l/m² 8,0 km/h (2 Bft) N 360 ° 0,000 mm 9,5 °C 13,5 °C 12,9 km/h (3 Bft) 95,65 %
10.05.2026 00:03 13,5 °C 16,7 °C 77 % 48 % 1016,6 hPa 0,0 l/m² 6,4 km/h (2 Bft) N 360 ° 0,000 mm 9,5 °C 13,5 °C 9,7 km/h (2 Bft) 100,00 %
10.05.2026 00:02 13,5 °C 16,7 °C 76 % 48 % 1016,6 hPa 0,0 l/m² 8,0 km/h (2 Bft) N 360 ° 0,000 mm 9,4 °C 13,5 °C 9,7 km/h (2 Bft) 100,00 %
10.05.2026 00:01 13,5 °C 16,7 °C 76 % 48 % 1016,6 hPa 0,0 l/m² 6,4 km/h (2 Bft) N 360 ° 0,000 mm 9,4 °C 13,5 °C 9,7 km/h (2 Bft) 95,65 %
10.05.2026 00:00 13,5 °C 16,7 °C 76 % 49 % 1016,6 hPa 0,0 l/m² 8,0 km/h (2 Bft) N 360 ° 0,000 mm 9,4 °C 13,5 °C 12,9 km/h (3 Bft) 95,65 %
09.05.2026 23:59 13,6 °C 16,7 °C 76 % 48 % 1016,6 hPa 0,0 l/m² 4,8 km/h (1 Bft) N 360 ° 0,000 mm 9,4 °C 13,6 °C 9,7 km/h (2 Bft) 100,00 %
09.05.2026 23:58 13,6 °C 16,7 °C 76 % 48 % 1016,7 hPa 0,0 l/m² 6,4 km/h (2 Bft) N 360 ° 0,000 mm 9,4 °C 13,6 °C 9,7 km/h (2 Bft) 91,30 %
09.05.2026 23:57 13,6 °C 16,7 °C 76 % 48 % 1016,6 hPa 0,0 l/m² 4,8 km/h (1 Bft) N 360 ° 0,000 mm 9,4 °C 13,6 °C 6,4 km/h (2 Bft) 100,00 %
09.05.2026 23:56 13,6 °C 16,7 °C 76 % 48 % 1016,6 hPa 0,0 l/m² 3,2 km/h (1 Bft) N 360 ° 0,000 mm 9,4 °C 13,6 °C 6,4 km/h (2 Bft) 100,00 %
09.05.2026 23:55 13,6 °C 16,7 °C 76 % 48 % 1016,7 hPa 0,0 l/m² 4,8 km/h (1 Bft) N 360 ° 0,000 mm 9,4 °C 13,6 °C 8,0 km/h (2 Bft) 100,00 %
09.05.2026 23:54 13,6 °C 16,7 °C 76 % 48 % 1016,6 hPa 0,0 l/m² 6,4 km/h (2 Bft) N 360 ° 0,000 mm 9,4 °C 13,6 °C 9,7 km/h (2 Bft) 100,00 %
09.05.2026 23:53 13,6 °C 16,7 °C 76 % 48 % 1016,7 hPa 0,0 l/m² 4,8 km/h (1 Bft) N 360 ° 0,000 mm 9,4 °C 13,6 °C 6,4 km/h (2 Bft) 100,00 %
09.05.2026 23:52 13,6 °C 16,7 °C 76 % 48 % 1016,5 hPa 0,0 l/m² 3,2 km/h (1 Bft) N 360 ° 0,000 mm 9,4 °C 13,6 °C 8,0 km/h (2 Bft) 95,65 %
09.05.2026 23:51 13,6 °C 16,7 °C 76 % 48 % 1016,5 hPa 0,0 l/m² 4,8 km/h (1 Bft) N 360 ° 0,000 mm 9,4 °C 13,6 °C 6,4 km/h (2 Bft) 95,65 %
09.05.2026 23:50 13,6 °C 16,7 °C 76 % 48 % 1016,5 hPa 0,0 l/m² 6,4 km/h (2 Bft) N 360 ° 0,000 mm 9,4 °C 13,6 °C 9,7 km/h (2 Bft) 100,00 %
09.05.2026 23:49 13,6 °C 16,7 °C 76 % 48 % 1016,5 hPa 0,0 l/m² 6,4 km/h (2 Bft) N 360 ° 0,000 mm 9,4 °C 13,6 °C 9,7 km/h (2 Bft) 100,00 %
09.05.2026 23:48 13,6 °C 16,7 °C 76 % 48 % 1016,6 hPa 0,0 l/m² 4,8 km/h (1 Bft) N 360 ° 0,000 mm 9,4 °C 13,6 °C 6,4 km/h (2 Bft) 100,00 %
09.05.2026 23:47 13,7 °C 16,7 °C 76 % 48 % 1016,6 hPa 0,0 l/m² 4,8 km/h (1 Bft) N 360 ° 0,000 mm 9,5 °C 13,7 °C 8,0 km/h (2 Bft) 95,65 %
09.05.2026 23:46 13,7 °C 16,7 °C 76 % 48 % 1016,6 hPa 0,0 l/m² 4,8 km/h (1 Bft) N 360 ° 0,000 mm 9,5 °C 13,7 °C 9,7 km/h (2 Bft) 100,00 %
09.05.2026 23:45 13,7 °C 16,7 °C 76 % 48 % 1016,6 hPa 0,0 l/m² 4,8 km/h (1 Bft) N 360 ° 0,000 mm 9,5 °C 13,7 °C 8,0 km/h (2 Bft) 95,65 %
09.05.2026 23:44 13,7 °C 16,7 °C 76 % 48 % 1016,6 hPa 0,0 l/m² 3,2 km/h (1 Bft) N 360 ° 0,000 mm 9,5 °C 13,7 °C 6,4 km/h (2 Bft) 95,65 %
09.05.2026 23:43 13,7 °C 16,7 °C 76 % 48 % 1016,6 hPa 0,0 l/m² 4,8 km/h (1 Bft) N 360 ° 0,000 mm 9,5 °C 13,7 °C 8,0 km/h (2 Bft) 100,00 %
09.05.2026 23:42 13,7 °C 16,7 °C 76 % 48 % 1016,6 hPa 0,0 l/m² 4,8 km/h (1 Bft) N 360 ° 0,000 mm 9,5 °C 13,7 °C 6,4 km/h (2 Bft) 100,00 %
09.05.2026 23:41 13,7 °C 16,7 °C 76 % 48 % 1016,7 hPa 0,0 l/m² 4,8 km/h (1 Bft) N 360 ° 0,000 mm 9,5 °C 13,7 °C 6,4 km/h (2 Bft) 100,00 %
09.05.2026 23:40 13,7 °C 16,7 °C 76 % 48 % 1016,6 hPa 0,0 l/m² 4,8 km/h (1 Bft) N 360 ° 0,000 mm 9,5 °C 13,7 °C 9,7 km/h (2 Bft) 100,00 %
09.05.2026 23:39 13,7 °C 16,7 °C 76 % 47 % 1016,5 hPa 0,0 l/m² 3,2 km/h (1 Bft) N 360 ° 0,000 mm 9,5 °C 13,7 °C 4,8 km/h (1 Bft) 100,00 %
09.05.2026 23:38 13,7 °C 16,7 °C 76 % 47 % 1016,6 hPa 0,0 l/m² 4,8 km/h (1 Bft) N 360 ° 0,000 mm 9,5 °C 13,7 °C 8,0 km/h (2 Bft) 100,00 %
09.05.2026 23:37 13,7 °C 16,7 °C 76 % 47 % 1016,6 hPa 0,0 l/m² 6,4 km/h (2 Bft) N 360 ° 0,000 mm 9,5 °C 13,7 °C 9,7 km/h (2 Bft) 95,65 %
09.05.2026 23:36 13,8 °C 17,2 °C 76 % 47 % 1016,6 hPa 0,0 l/m² 6,4 km/h (2 Bft) N 360 ° 0,000 mm 9,6 °C 13,8 °C 9,7 km/h (2 Bft) 100,00 %
09.05.2026 23:35 13,8 °C 17,2 °C 76 % 47 % 1016,5 hPa 0,0 l/m² 6,4 km/h (2 Bft) N 360 ° 0,000 mm 9,6 °C 13,8 °C 9,7 km/h (2 Bft) 100,00 %
09.05.2026 23:34 13,8 °C 17,2 °C 76 % 47 % 1016,6 hPa 0,0 l/m² 4,8 km/h (1 Bft) N 360 ° 0,000 mm 9,6 °C 13,8 °C 8,0 km/h (2 Bft) 100,00 %
09.05.2026 23:33 13,8 °C 17,2 °C 76 % 47 % 1016,5 hPa 0,0 l/m² 3,2 km/h (1 Bft) N 360 ° 0,000 mm 9,6 °C 13,8 °C 6,4 km/h (2 Bft) 100,00 %
09.05.2026 23:32 13,8 °C 17,2 °C 75 % 47 % 1016,7 hPa 0,0 l/m² 3,2 km/h (1 Bft) N 360 ° 0,000 mm 9,4 °C 13,8 °C 6,4 km/h (2 Bft) 100,00 %
09.05.2026 23:31 13,8 °C 17,2 °C 76 % 47 % 1016,6 hPa 0,0 l/m² 3,2 km/h (1 Bft) N 360 ° 0,000 mm 9,6 °C 13,8 °C 6,4 km/h (2 Bft) 100,00 %
09.05.2026 23:30 13,8 °C 17,2 °C 75 % 47 % 1016,7 hPa 0,0 l/m² 4,8 km/h (1 Bft) N 360 ° 0,000 mm 9,4 °C 13,8 °C 6,4 km/h (2 Bft) 95,65 %
09.05.2026 23:29 13,8 °C 17,2 °C 75 % 47 % 1016,7 hPa 0,0 l/m² 3,2 km/h (1 Bft) N 360 ° 0,000 mm 9,4 °C 13,8 °C 4,8 km/h (1 Bft) 100,00 %
09.05.2026 23:28 13,8 °C 17,2 °C 75 % 47 % 1016,6 hPa 0,0 l/m² 3,2 km/h (1 Bft) N 360 ° 0,000 mm 9,4 °C 13,8 °C 4,8 km/h (1 Bft) 95,65 %
09.05.2026 23:27 13,8 °C 17,2 °C 75 % 48 % 1016,7 hPa 0,0 l/m² 4,8 km/h (1 Bft) N 360 ° 0,000 mm 9,4 °C 13,8 °C 8,0 km/h (2 Bft) 95,65 %
09.05.2026 23:26 13,9 °C 17,2 °C 75 % 47 % 1016,7 hPa 0,0 l/m² 3,2 km/h (1 Bft) N 360 ° 0,000 mm 9,5 °C 13,9 °C 6,4 km/h (2 Bft) 100,00 %
09.05.2026 23:25 13,9 °C 17,2 °C 75 % 47 % 1016,7 hPa 0,0 l/m² 3,2 km/h (1 Bft) N 360 ° 0,000 mm 9,5 °C 13,9 °C 4,8 km/h (1 Bft) 95,65 %
09.05.2026 23:24 13,9 °C 17,2 °C 75 % 47 % 1016,8 hPa 0,0 l/m² 3,2 km/h (1 Bft) N 360 ° 0,000 mm 9,5 °C 13,9 °C 4,8 km/h (1 Bft) 100,00 %
09.05.2026 23:23 13,9 °C 17,2 °C 75 % 47 % 1016,7 hPa 0,0 l/m² 3,2 km/h (1 Bft) N 360 ° 0,000 mm 9,5 °C 13,9 °C 4,8 km/h (1 Bft) 95,65 %
09.05.2026 23:22 13,9 °C 17,2 °C 75 % 47 % 1016,6 hPa 0,0 l/m² 4,8 km/h (1 Bft) N 360 ° 0,000 mm 9,5 °C 13,9 °C 8,0 km/h (2 Bft) 100,00 %
09.05.2026 23:21 13,9 °C 17,2 °C 75 % 47 % 1016,6 hPa 0,0 l/m² 4,8 km/h (1 Bft) N 360 ° 0,000 mm 9,5 °C 13,9 °C 8,0 km/h (2 Bft) 100,00 %
09.05.2026 23:20 13,9 °C 17,2 °C 75 % 47 % 1016,6 hPa 0,0 l/m² 4,8 km/h (1 Bft) N 360 ° 0,000 mm 9,5 °C 13,9 °C 8,0 km/h (2 Bft) 100,00 %
09.05.2026 23:19 13,9 °C 17,2 °C 75 % 47 % 1016,6 hPa 0,0 l/m² 3,2 km/h (1 Bft) N 360 ° 0,000 mm 9,5 °C 13,9 °C 4,8 km/h (1 Bft) 100,00 %
09.05.2026 23:18 13,9 °C 17,2 °C 75 % 47 % 1016,7 hPa 0,0 l/m² 3,2 km/h (1 Bft) N 360 ° 0,000 mm 9,5 °C 13,9 °C 4,8 km/h (1 Bft) 95,65 %
09.05.2026 23:17 14,0 °C 17,2 °C 75 % 47 % 1016,6 hPa 0,0 l/m² 3,2 km/h (1 Bft) N 360 ° 0,000 mm 9,6 °C 14,0 °C 4,8 km/h (1 Bft) 100,00 %
09.05.2026 23:16 14,0 °C 17,2 °C 75 % 47 % 1016,6 hPa 0,0 l/m² 3,2 km/h (1 Bft) N 360 ° 0,000 mm 9,6 °C 14,0 °C 8,0 km/h (2 Bft) 95,65 %
09.05.2026 23:15 14,0 °C 17,2 °C 75 % 47 % 1016,6 hPa 0,0 l/m² 1,6 km/h (1 Bft) N 360 ° 0,000 mm 9,6 °C 14,0 °C 4,8 km/h (1 Bft) 95,65 %
09.05.2026 23:14 14,0 °C 17,2 °C 75 % 47 % 1016,6 hPa 0,0 l/m² 1,6 km/h (1 Bft) N 360 ° 0,000 mm 9,6 °C 14,0 °C 6,4 km/h (2 Bft) 95,65 %
09.05.2026 23:13 14,1 °C 17,2 °C 75 % 47 % 1016,6 hPa 0,0 l/m² 4,8 km/h (1 Bft) N 360 ° 0,000 mm 9,7 °C 14,1 °C 8,0 km/h (2 Bft) 100,00 %
09.05.2026 23:12 14,1 °C 17,2 °C 74 % 47 % 1016,6 hPa 0,0 l/m² 3,2 km/h (1 Bft) N 360 ° 0,000 mm 9,5 °C 14,1 °C 4,8 km/h (1 Bft) 100,00 %
09.05.2026 23:11 14,1 °C 17,2 °C 74 % 47 % 1016,6 hPa 0,0 l/m² 3,2 km/h (1 Bft) N 360 ° 0,000 mm 9,5 °C 14,1 °C 4,8 km/h (1 Bft) 95,65 %
09.05.2026 23:10 14,1 °C 17,2 °C 74 % 47 % 1016,5 hPa 0,0 l/m² 3,2 km/h (1 Bft) N 360 ° 0,000 mm 9,5 °C 14,1 °C 4,8 km/h (1 Bft) 100,00 %
09.05.2026 23:09 14,1 °C 17,2 °C 74 % 47 % 1016,5 hPa 0,0 l/m² 4,8 km/h (1 Bft) N 360 ° 0,000 mm 9,5 °C 14,1 °C 4,8 km/h (1 Bft) 95,65 %
09.05.2026 23:08 14,2 °C 17,8 °C 74 % 47 % 1016,5 hPa 0,0 l/m² 4,8 km/h (1 Bft) N 360 ° 0,000 mm 9,6 °C 14,2 °C 6,4 km/h (2 Bft) 100,00 %
09.05.2026 23:07 14,2 °C 17,8 °C 74 % 47 % 1016,6 hPa 0,0 l/m² 4,8 km/h (1 Bft) N 360 ° 0,000 mm 9,6 °C 14,2 °C 6,4 km/h (2 Bft) 100,00 %
09.05.2026 23:06 14,2 °C 17,8 °C 74 % 47 % 1016,6 hPa 0,0 l/m² 3,2 km/h (1 Bft) N 360 ° 0,000 mm 9,6 °C 14,2 °C 6,4 km/h (2 Bft) 95,65 %
09.05.2026 23:05 14,2 °C 17,8 °C 74 % 47 % 1016,6 hPa 0,0 l/m² 4,8 km/h (1 Bft) N 360 ° 0,000 mm 9,6 °C 14,2 °C 6,4 km/h (2 Bft) 100,00 %
09.05.2026 23:04 14,3 °C 17,8 °C 74 % 47 % 1016,7 hPa 0,0 l/m² 4,8 km/h (1 Bft) N 360 ° 0,000 mm 9,7 °C 14,3 °C 6,4 km/h (2 Bft) 91,30 %
09.05.2026 23:03 14,3 °C 17,8 °C 74 % 46 % 1016,6 hPa 0,0 l/m² 4,8 km/h (1 Bft) N 360 ° 0,000 mm 9,7 °C 14,3 °C 8,0 km/h (2 Bft) 91,30 %
09.05.2026 23:02 14,3 °C 17,8 °C 73 % 46 % 1016,7 hPa 0,0 l/m² 4,8 km/h (1 Bft) N 360 ° 0,000 mm 9,5 °C 14,3 °C 6,4 km/h (2 Bft) 95,65 %
09.05.2026 23:01 14,3 °C 17,8 °C 73 % 46 % 1016,6 hPa 0,0 l/m² 3,2 km/h (1 Bft) N 360 ° 0,000 mm 9,5 °C 14,3 °C 4,8 km/h (1 Bft) 95,65 %
09.05.2026 23:00 14,3 °C 17,8 °C 73 % 46 % 1016,6 hPa 0,0 l/m² 3,2 km/h (1 Bft) N 360 ° 0,000 mm 9,5 °C 14,3 °C 4,8 km/h (1 Bft) 100,00 %
09.05.2026 22:59 14,4 °C 17,8 °C 73 % 46 % 1016,6 hPa 0,0 l/m² 3,2 km/h (1 Bft) N 360 ° 0,000 mm 9,6 °C 14,4 °C 4,8 km/h (1 Bft) 91,30 %
09.05.2026 22:58 14,4 °C 17,8 °C 73 % 46 % 1016,6 hPa 0,0 l/m² 3,2 km/h (1 Bft) N 360 ° 0,000 mm 9,6 °C 14,4 °C 4,8 km/h (1 Bft) 100,00 %
09.05.2026 22:57 14,4 °C 17,8 °C 73 % 46 % 1016,6 hPa 0,0 l/m² 3,2 km/h (1 Bft) N 360 ° 0,000 mm 9,6 °C 14,4 °C 4,8 km/h (1 Bft) 95,65 %
09.05.2026 22:56 14,4 °C 17,8 °C 73 % 46 % 1016,7 hPa 0,0 l/m² 3,2 km/h (1 Bft) N 360 ° 0,000 mm 9,6 °C 14,4 °C 4,8 km/h (1 Bft) 95,65 %
09.05.2026 22:55 14,5 °C 17,8 °C 73 % 46 % 1016,6 hPa 0,0 l/m² 3,2 km/h (1 Bft) N 360 ° 0,000 mm 9,7 °C 14,5 °C 6,4 km/h (2 Bft) 86,96 %
09.05.2026 22:54 14,5 °C 17,8 °C 73 % 46 % 1016,6 hPa 0,0 l/m² 3,2 km/h (1 Bft) N 360 ° 0,000 mm 9,7 °C 14,5 °C 4,8 km/h (1 Bft) 95,65 %
09.05.2026 22:53 14,5 °C 17,8 °C 73 % 46 % 1016,6 hPa 0,0 l/m² 4,8 km/h (1 Bft) N 360 ° 0,000 mm 9,7 °C 14,5 °C 6,4 km/h (2 Bft) 95,65 %
09.05.2026 22:52 14,6 °C 17,8 °C 73 % 46 % 1016,6 hPa 0,0 l/m² 3,2 km/h (1 Bft) N 360 ° 0,000 mm 9,8 °C 14,6 °C 4,8 km/h (1 Bft) 95,65 %
09.05.2026 22:51 14,6 °C 17,8 °C 73 % 45 % 1016,6 hPa 0,0 l/m² 3,2 km/h (1 Bft) N 360 ° 0,000 mm 9,8 °C 14,6 °C 4,8 km/h (1 Bft) 95,65 %
09.05.2026 22:50 14,6 °C 17,8 °C 73 % 45 % 1016,6 hPa 0,0 l/m² 3,2 km/h (1 Bft) N 360 ° 0,000 mm 9,8 °C 14,6 °C 6,4 km/h (2 Bft) 91,30 %
09.05.2026 22:49 14,6 °C 17,8 °C 73 % 45 % 1016,6 hPa 0,0 l/m² 3,2 km/h (1 Bft) N 360 ° 0,000 mm 9,8 °C 14,6 °C 6,4 km/h (2 Bft) 100,00 %
09.05.2026 22:48 14,7 °C 17,8 °C 73 % 45 % 1016,6 hPa 0,0 l/m² 4,8 km/h (1 Bft) N 360 ° 0,000 mm 9,9 °C 14,7 °C 8,0 km/h (2 Bft) 91,30 %
09.05.2026 22:47 14,7 °C 17,8 °C 72 % 45 % 1016,5 hPa 0,0 l/m² 4,8 km/h (1 Bft) N 360 ° 0,000 mm 9,7 °C 14,7 °C 8,0 km/h (2 Bft) 100,00 %
09.05.2026 22:46 14,7 °C 17,8 °C 72 % 45 % 1016,6 hPa 0,0 l/m² 3,2 km/h (1 Bft) N 360 ° 0,000 mm 9,7 °C 14,7 °C 3,2 km/h (1 Bft) 95,65 %
09.05.2026 22:45 14,7 °C 17,8 °C 73 % 44 % 1016,6 hPa 0,0 l/m² 6,4 km/h (2 Bft) N 360 ° 0,000 mm 9,9 °C 14,7 °C 9,7 km/h (2 Bft) 95,65 %
09.05.2026 22:44 14,7 °C 17,8 °C 72 % 44 % 1016,5 hPa 0,0 l/m² 4,8 km/h (1 Bft) N 360 ° 0,000 mm 9,7 °C 14,7 °C 8,0 km/h (2 Bft) 100,00 %
09.05.2026 22:43 14,8 °C 17,8 °C 72 % 44 % 1016,6 hPa 0,0 l/m² 4,8 km/h (1 Bft) N 360 ° 0,000 mm 9,8 °C 14,8 °C 8,0 km/h (2 Bft) 95,65 %
09.05.2026 22:42 14,8 °C 17,8 °C 72 % 44 % 1016,5 hPa 0,0 l/m² 6,4 km/h (2 Bft) N 360 ° 0,000 mm 9,8 °C 14,8 °C 9,7 km/h (2 Bft) 100,00 %
09.05.2026 22:41 14,8 °C 18,3 °C 72 % 44 % 1016,5 hPa 0,0 l/m² 4,8 km/h (1 Bft) N 360 ° 0,000 mm 9,8 °C 14,8 °C 6,4 km/h (2 Bft) 95,65 %
09.05.2026 22:40 14,8 °C 18,3 °C 72 % 44 % 1016,6 hPa 0,0 l/m² 4,8 km/h (1 Bft) N 360 ° 0,000 mm 9,8 °C 14,8 °C 8,0 km/h (2 Bft) 100,00 %
09.05.2026 22:39 14,8 °C 18,3 °C 72 % 44 % 1016,5 hPa 0,0 l/m² 4,8 km/h (1 Bft) N 360 ° 0,000 mm 9,8 °C 14,8 °C 6,4 km/h (2 Bft) 100,00 %
09.05.2026 22:38 14,9 °C 18,3 °C 72 % 44 % 1016,5 hPa 0,0 l/m² 4,8 km/h (1 Bft) N 360 ° 0,000 mm 9,9 °C 14,9 °C 8,0 km/h (2 Bft) 100,00 %
09.05.2026 22:37 14,9 °C 18,3 °C 72 % 44 % 1016,5 hPa 0,0 l/m² 4,8 km/h (1 Bft) N 360 ° 0,000 mm 9,9 °C 14,9 °C 6,4 km/h (2 Bft) 100,00 %
09.05.2026 22:36 14,9 °C 18,3 °C 71 % 44 % 1016,5 hPa 0,0 l/m² 4,8 km/h (1 Bft) N 360 ° 0,000 mm 9,7 °C 14,9 °C 6,4 km/h (2 Bft) 100,00 %
09.05.2026 22:35 14,9 °C 18,3 °C 71 % 44 % 1016,4 hPa 0,0 l/m² 4,8 km/h (1 Bft) N 360 ° 0,000 mm 9,7 °C 14,9 °C 8,0 km/h (2 Bft) 100,00 %
09.05.2026 22:34 15,0 °C 18,3 °C 71 % 44 % 1016,5 hPa 0,0 l/m² 3,2 km/h (1 Bft) N 360 ° 0,000 mm 9,8 °C 15,0 °C 4,8 km/h (1 Bft) 95,65 %
09.05.2026 22:33 15,0 °C 18,3 °C 71 % 44 % 1016,6 hPa 0,0 l/m² 4,8 km/h (1 Bft) N 360 ° 0,000 mm 9,8 °C 15,0 °C 6,4 km/h (2 Bft) 95,65 %
09.05.2026 22:32 15,0 °C 18,3 °C 71 % 44 % 1016,6 hPa 0,0 l/m² 4,8 km/h (1 Bft) N 360 ° 0,000 mm 9,8 °C 15,0 °C 8,0 km/h (2 Bft) 100,00 %
09.05.2026 22:31 15,1 °C 18,3 °C 71 % 44 % 1016,5 hPa 0,0 l/m² 3,2 km/h (1 Bft) N 360 ° 0,000 mm 9,9 °C 15,1 °C 4,8 km/h (1 Bft) 100,00 %
09.05.2026 22:30 15,1 °C 18,3 °C 71 % 44 % 1016,7 hPa 0,0 l/m² 4,8 km/h (1 Bft) N 360 ° 0,000 mm 9,9 °C 15,1 °C 6,4 km/h (2 Bft) 100,00 %
09.05.2026 22:29 15,1 °C 18,3 °C 71 % 44 % 1016,6 hPa 0,0 l/m² 4,8 km/h (1 Bft) N 360 ° 0,000 mm 9,9 °C 15,1 °C 8,0 km/h (2 Bft) 100,00 %
09.05.2026 22:28 15,2 °C 18,3 °C 71 % 44 % 1016,5 hPa 0,0 l/m² 3,2 km/h (1 Bft) N 360 ° 0,000 mm 10,0 °C 15,2 °C 6,4 km/h (2 Bft) 100,00 %
09.05.2026 22:27 15,1 °C 18,3 °C 71 % 44 % 1016,5 hPa 0,0 l/m² 3,2 km/h (1 Bft) N 360 ° 0,000 mm 9,9 °C 15,1 °C 4,8 km/h (1 Bft) 95,65 %
09.05.2026 22:26 15,2 °C 18,3 °C 71 % 44 % 1016,5 hPa 0,0 l/m² 3,2 km/h (1 Bft) N 360 ° 0,000 mm 10,0 °C 15,2 °C 6,4 km/h (2 Bft) 95,65 %
09.05.2026 22:25 15,2 °C 18,3 °C 71 % 44 % 1016,6 hPa 0,0 l/m² 3,2 km/h (1 Bft) N 360 ° 0,000 mm 10,0 °C 15,2 °C 8,0 km/h (2 Bft) 95,65 %
09.05.2026 22:24 15,2 °C 18,3 °C 71 % 44 % 1016,5 hPa 0,0 l/m² 4,8 km/h (1 Bft) N 360 ° 0,000 mm 10,0 °C 15,2 °C 8,0 km/h (2 Bft) 100,00 %
09.05.2026 22:23 15,2 °C 18,3 °C 71 % 44 % 1016,6 hPa 0,0 l/m² 4,8 km/h (1 Bft) N 360 ° 0,000 mm 10,0 °C 15,2 °C 6,4 km/h (2 Bft) 100,00 %
09.05.2026 22:22 15,3 °C 18,3 °C 71 % 44 % 1016,6 hPa 0,0 l/m² 3,2 km/h (1 Bft) N 360 ° 0,000 mm 10,1 °C 15,3 °C 6,4 km/h (2 Bft) 95,65 %
09.05.2026 22:21 15,3 °C 18,3 °C 71 % 44 % 1016,5 hPa 0,0 l/m² 4,8 km/h (1 Bft) N 360 ° 0,000 mm 10,1 °C 15,3 °C 8,0 km/h (2 Bft) 100,00 %
09.05.2026 22:20 15,3 °C 18,3 °C 71 % 44 % 1016,5 hPa 0,0 l/m² 3,2 km/h (1 Bft) N 360 ° 0,000 mm 10,1 °C 15,3 °C 6,4 km/h (2 Bft) 100,00 %
09.05.2026 22:19 15,3 °C 18,3 °C 71 % 44 % 1016,5 hPa 0,0 l/m² 4,8 km/h (1 Bft) N 360 ° 0,000 mm 10,1 °C 15,3 °C 8,0 km/h (2 Bft) 91,30 %
09.05.2026 22:18 15,3 °C 18,3 °C 71 % 44 % 1016,5 hPa 0,0 l/m² 4,8 km/h (1 Bft) N 360 ° 0,000 mm 10,1 °C 15,3 °C 8,0 km/h (2 Bft) 100,00 %
09.05.2026 22:17 15,3 °C 18,3 °C 71 % 44 % 1016,5 hPa 0,0 l/m² 4,8 km/h (1 Bft) N 360 ° 0,000 mm 10,1 °C 15,3 °C 4,8 km/h (1 Bft) 95,65 %
09.05.2026 22:16 15,3 °C 18,9 °C 70 % 43 % 1016,5 hPa 0,0 l/m² 1,6 km/h (1 Bft) N 360 ° 0,000 mm 9,9 °C 15,3 °C 4,8 km/h (1 Bft) 100,00 %
09.05.2026 22:15 15,3 °C 18,9 °C 70 % 43 % 1016,5 hPa 0,0 l/m² 4,8 km/h (1 Bft) N 360 ° 0,000 mm 9,9 °C 15,3 °C 4,8 km/h (1 Bft) 100,00 %
09.05.2026 22:14 15,3 °C 18,9 °C 70 % 43 % 1016,5 hPa 0,0 l/m² 6,4 km/h (2 Bft) N 360 ° 0,000 mm 9,9 °C 15,3 °C 8,0 km/h (2 Bft) 100,00 %
09.05.2026 22:13 15,3 °C 18,9 °C 70 % 43 % 1016,5 hPa 0,0 l/m² 4,8 km/h (1 Bft) N 360 ° 0,000 mm 9,9 °C 15,3 °C 8,0 km/h (2 Bft) 100,00 %
09.05.2026 22:12 15,3 °C 18,9 °C 70 % 43 % 1016,5 hPa 0,0 l/m² 4,8 km/h (1 Bft) N 360 ° 0,000 mm 9,9 °C 15,3 °C 8,0 km/h (2 Bft) 91,30 %
09.05.2026 22:11 15,4 °C 18,9 °C 70 % 43 % 1016,4 hPa 0,0 l/m² 6,4 km/h (2 Bft) N 360 ° 0,000 mm 10,0 °C 15,4 °C 8,0 km/h (2 Bft) 100,00 %
09.05.2026 22:10 15,3 °C 18,9 °C 70 % 43 % 1016,4 hPa 0,0 l/m² 4,8 km/h (1 Bft) N 360 ° 0,000 mm 9,9 °C 15,3 °C 8,0 km/h (2 Bft) 100,00 %
09.05.2026 22:09 15,4 °C 18,9 °C 70 % 43 % 1016,4 hPa 0,0 l/m² 6,4 km/h (2 Bft) N 360 ° 0,000 mm 10,0 °C 15,4 °C 12,9 km/h (3 Bft) 100,00 %
09.05.2026 22:08 15,4 °C 18,9 °C 70 % 43 % 1016,4 hPa 0,0 l/m² 6,4 km/h (2 Bft) N 360 ° 0,000 mm 10,0 °C 15,4 °C 9,7 km/h (2 Bft) 95,65 %
09.05.2026 22:07 15,4 °C 18,9 °C 70 % 43 % 1016,4 hPa 0,0 l/m² 6,4 km/h (2 Bft) N 360 ° 0,000 mm 10,0 °C 15,4 °C 8,0 km/h (2 Bft) 100,00 %
09.05.2026 22:06 15,4 °C 18,9 °C 70 % 43 % 1016,4 hPa 0,0 l/m² 6,4 km/h (2 Bft) N 360 ° 0,000 mm 10,0 °C 15,4 °C 8,0 km/h (2 Bft) 95,65 %
09.05.2026 22:05 15,4 °C 18,9 °C 70 % 43 % 1016,4 hPa 0,0 l/m² 6,4 km/h (2 Bft) N 360 ° 0,000 mm 10,0 °C 15,4 °C 8,0 km/h (2 Bft) 86,96 %
09.05.2026 22:04 15,5 °C 18,9 °C 70 % 43 % 1016,5 hPa 0,0 l/m² 6,4 km/h (2 Bft) N 360 ° 0,000 mm 10,1 °C 15,5 °C 9,7 km/h (2 Bft) 100,00 %
09.05.2026 22:03 15,5 °C 18,9 °C 70 % 42 % 1016,5 hPa 0,0 l/m² 4,8 km/h (1 Bft) N 360 ° 0,000 mm 10,1 °C 15,5 °C 4,8 km/h (1 Bft) 95,65 %
09.05.2026 22:02 15,6 °C 18,9 °C 70 % 42 % 1016,5 hPa 0,0 l/m² 4,8 km/h (1 Bft) N 360 ° 0,000 mm 10,1 °C 15,6 °C 8,0 km/h (2 Bft) 100,00 %
09.05.2026 22:01 15,6 °C 18,9 °C 69 % 42 % 1016,5 hPa 0,0 l/m² 4,8 km/h (1 Bft) N 360 ° 0,000 mm 9,9 °C 15,6 °C 6,4 km/h (2 Bft) 100,00 %
09.05.2026 22:00 15,6 °C 18,9 °C 69 % 42 % 1016,5 hPa 0,0 l/m² 4,8 km/h (1 Bft) N 360 ° 0,000 mm 9,9 °C 15,6 °C 6,4 km/h (2 Bft) 95,65 %
09.05.2026 21:59 15,6 °C 18,9 °C 69 % 42 % 1016,5 hPa 0,0 l/m² 6,4 km/h (2 Bft) N 360 ° 0,000 mm 9,9 °C 15,6 °C 9,7 km/h (2 Bft) 100,00 %
09.05.2026 21:58 15,7 °C 18,9 °C 69 % 42 % 1016,6 hPa 0,0 l/m² 4,8 km/h (1 Bft) N 360 ° 0,000 mm 10,0 °C 15,7 °C 6,4 km/h (2 Bft) 95,65 %
09.05.2026 21:57 15,7 °C 18,9 °C 69 % 42 % 1016,6 hPa 0,0 l/m² 6,4 km/h (2 Bft) N 360 ° 0,000 mm 10,0 °C 15,7 °C 12,9 km/h (3 Bft) 95,65 %
09.05.2026 21:56 15,7 °C 18,9 °C 69 % 42 % 1016,6 hPa 0,0 l/m² 6,4 km/h (2 Bft) N 360 ° 0,000 mm 10,0 °C 15,7 °C 12,9 km/h (3 Bft) 100,00 %
09.05.2026 21:55 15,7 °C 18,9 °C 69 % 42 % 1016,5 hPa 0,0 l/m² 4,8 km/h (1 Bft) N 360 ° 0,000 mm 10,0 °C 15,7 °C 6,4 km/h (2 Bft) 100,00 %
09.05.2026 21:54 15,7 °C 18,9 °C 69 % 42 % 1016,6 hPa 0,0 l/m² 6,4 km/h (2 Bft) N 360 ° 0,000 mm 10,0 °C 15,7 °C 8,0 km/h (2 Bft) 100,00 %
09.05.2026 21:53 15,8 °C 18,9 °C 69 % 42 % 1016,6 hPa 0,0 l/m² 4,8 km/h (1 Bft) N 360 ° 0,000 mm 10,1 °C 15,8 °C 6,4 km/h (2 Bft) 100,00 %
09.05.2026 21:52 15,8 °C 19,4 °C 69 % 42 % 1016,5 hPa 0,0 l/m² 4,8 km/h (1 Bft) N 360 ° 0,000 mm 10,1 °C 15,8 °C 8,0 km/h (2 Bft) 95,65 %
09.05.2026 21:51 15,8 °C 19,4 °C 69 % 41 % 1016,5 hPa 0,0 l/m² 4,8 km/h (1 Bft) N 360 ° 0,000 mm 10,1 °C 15,8 °C 8,0 km/h (2 Bft) 95,65 %
09.05.2026 21:50 15,8 °C 19,4 °C 69 % 41 % 1016,5 hPa 0,0 l/m² 6,4 km/h (2 Bft) N 360 ° 0,000 mm 10,1 °C 15,8 °C 9,7 km/h (2 Bft) 100,00 %
09.05.2026 21:49 15,8 °C 19,4 °C 69 % 41 % 1016,5 hPa 0,0 l/m² 4,8 km/h (1 Bft) N 360 ° 0,000 mm 10,1 °C 15,8 °C 6,4 km/h (2 Bft) 100,00 %
09.05.2026 21:48 15,8 °C 19,4 °C 69 % 41 % 1016,5 hPa 0,0 l/m² 6,4 km/h (2 Bft) N 360 ° 0,000 mm 10,1 °C 15,8 °C 9,7 km/h (2 Bft) 100,00 %
09.05.2026 21:47 15,9 °C 19,4 °C 69 % 41 % 1016,6 hPa 0,0 l/m² 6,4 km/h (2 Bft) N 360 ° 0,000 mm 10,2 °C 15,9 °C 8,0 km/h (2 Bft) 100,00 %
09.05.2026 21:46 15,9 °C 19,4 °C 68 % 41 % 1016,5 hPa 0,0 l/m² 3,2 km/h (1 Bft) N 360 ° 0,000 mm 10,0 °C 15,9 °C 6,4 km/h (2 Bft) 100,00 %
09.05.2026 21:45 15,9 °C 19,4 °C 68 % 41 % 1016,5 hPa 0,0 l/m² 4,8 km/h (1 Bft) N 360 ° 0,000 mm 10,0 °C 15,9 °C 9,7 km/h (2 Bft) 95,65 %
09.05.2026 21:44 15,9 °C 19,4 °C 68 % 41 % 1016,6 hPa 0,0 l/m² 4,8 km/h (1 Bft) N 360 ° 0,000 mm 10,0 °C 15,9 °C 6,4 km/h (2 Bft) 95,65 %
09.05.2026 21:43 15,9 °C 19,4 °C 68 % 41 % 1016,5 hPa 0,0 l/m² 4,8 km/h (1 Bft) N 360 ° 0,000 mm 10,0 °C 15,9 °C 6,4 km/h (2 Bft) 100,00 %
09.05.2026 21:42 15,9 °C 19,4 °C 68 % 41 % 1016,5 hPa 0,0 l/m² 4,8 km/h (1 Bft) N 360 ° 0,000 mm 10,0 °C 15,9 °C 6,4 km/h (2 Bft) 100,00 %
09.05.2026 21:41 16,0 °C 19,4 °C 68 % 40 % 1016,6 hPa 0,0 l/m² 4,8 km/h (1 Bft) N 360 ° 0,000 mm 10,1 °C 16,0 °C 8,0 km/h (2 Bft) 95,65 %
09.05.2026 21:40 16,0 °C 19,4 °C 68 % 41 % 1016,5 hPa 0,0 l/m² 6,4 km/h (2 Bft) N 360 ° 0,000 mm 10,1 °C 16,0 °C 12,9 km/h (3 Bft) 95,65 %
09.05.2026 21:39 16,0 °C 19,4 °C 68 % 40 % 1016,5 hPa 0,0 l/m² 4,8 km/h (1 Bft) N 360 ° 0,000 mm 10,1 °C 16,0 °C 8,0 km/h (2 Bft) 100,00 %
09.05.2026 21:38 16,1 °C 19,4 °C 68 % 40 % 1016,5 hPa 0,0 l/m² 6,4 km/h (2 Bft) N 360 ° 0,000 mm 10,2 °C 16,1 °C 9,7 km/h (2 Bft) 95,65 %
09.05.2026 21:37 16,1 °C 19,4 °C 68 % 40 % 1016,5 hPa 0,0 l/m² 8,0 km/h (2 Bft) N 360 ° 0,000 mm 10,2 °C 16,1 °C 12,9 km/h (3 Bft) 95,65 %
09.05.2026 21:36 16,1 °C 19,4 °C 68 % 40 % 1016,5 hPa 0,0 l/m² 6,4 km/h (2 Bft) N 360 ° 0,000 mm 10,2 °C 16,1 °C 8,0 km/h (2 Bft) 95,65 %
09.05.2026 21:35 16,1 °C 19,4 °C 68 % 40 % 1016,4 hPa 0,0 l/m² 4,8 km/h (1 Bft) N 360 ° 0,000 mm 10,2 °C 16,1 °C 8,0 km/h (2 Bft) 95,65 %
09.05.2026 21:34 16,1 °C 19,4 °C 67 % 40 % 1016,6 hPa 0,0 l/m² 6,4 km/h (2 Bft) N 360 ° 0,000 mm 10,0 °C 16,1 °C 8,0 km/h (2 Bft) 100,00 %
09.05.2026 21:33 16,2 °C 19,4 °C 67 % 40 % 1016,5 hPa 0,0 l/m² 4,8 km/h (1 Bft) N 360 ° 0,000 mm 10,1 °C 16,2 °C 9,7 km/h (2 Bft) 91,30 %
09.05.2026 21:32 16,2 °C 19,4 °C 67 % 40 % 1016,6 hPa 0,0 l/m² 4,8 km/h (1 Bft) N 360 ° 0,000 mm 10,1 °C 16,2 °C 8,0 km/h (2 Bft) 100,00 %
09.05.2026 21:31 16,2 °C 19,4 °C 67 % 40 % 1016,5 hPa 0,0 l/m² 4,8 km/h (1 Bft) N 360 ° 0,000 mm 10,1 °C 16,2 °C 6,4 km/h (2 Bft) 95,65 %
09.05.2026 21:30 16,2 °C 19,4 °C 67 % 40 % 1016,5 hPa 0,0 l/m² 4,8 km/h (1 Bft) N 360 ° 0,000 mm 10,1 °C 16,2 °C 6,4 km/h (2 Bft) 95,65 %
09.05.2026 21:29 16,3 °C 19,4 °C 67 % 40 % 1016,6 hPa 0,0 l/m² 4,8 km/h (1 Bft) N 360 ° 0,000 mm 10,2 °C 16,3 °C 8,0 km/h (2 Bft) 95,65 %
09.05.2026 21:28 16,3 °C 20,0 °C 67 % 40 % 1016,5 hPa 0,0 l/m² 4,8 km/h (1 Bft) N 360 ° 0,000 mm 10,2 °C 16,3 °C 8,0 km/h (2 Bft) 95,65 %
09.05.2026 21:27 16,3 °C 20,0 °C 67 % 39 % 1016,5 hPa 0,0 l/m² 4,8 km/h (1 Bft) N 360 ° 0,000 mm 10,2 °C 16,3 °C 8,0 km/h (2 Bft) 91,30 %
09.05.2026 21:26 16,3 °C 20,0 °C 66 % 39 % 1016,5 hPa 0,0 l/m² 3,2 km/h (1 Bft) N 360 ° 0,000 mm 9,9 °C 16,3 °C 8,0 km/h (2 Bft) 95,65 %
09.05.2026 21:25 16,3 °C 20,0 °C 66 % 39 % 1016,5 hPa 0,0 l/m² 4,8 km/h (1 Bft) N 360 ° 0,000 mm 9,9 °C 16,3 °C 6,4 km/h (2 Bft) 100,00 %
09.05.2026 21:24 16,4 °C 20,0 °C 66 % 39 % 1016,4 hPa 0,0 l/m² 4,8 km/h (1 Bft) N 360 ° 0,000 mm 10,0 °C 16,4 °C 8,0 km/h (2 Bft) 95,65 %
09.05.2026 21:23 16,4 °C 20,0 °C 66 % 39 % 1016,5 hPa 0,0 l/m² 4,8 km/h (1 Bft) N 360 ° 0,000 mm 10,0 °C 16,4 °C 6,4 km/h (2 Bft) 95,65 %
09.05.2026 21:22 16,4 °C 20,0 °C 66 % 39 % 1016,5 hPa 0,0 l/m² 4,8 km/h (1 Bft) N 360 ° 0,000 mm 10,0 °C 16,4 °C 8,0 km/h (2 Bft) 95,65 %
09.05.2026 21:21 16,5 °C 20,0 °C 66 % 39 % 1016,5 hPa 0,0 l/m² 4,8 km/h (1 Bft) N 360 ° 0,000 mm 10,1 °C 16,5 °C 8,0 km/h (2 Bft) 100,00 %
09.05.2026 21:20 16,5 °C 20,0 °C 66 % 39 % 1016,5 hPa 0,0 l/m² 6,4 km/h (2 Bft) N 360 ° 0,000 mm 10,1 °C 16,5 °C 8,0 km/h (2 Bft) 95,65 %
09.05.2026 21:19 16,6 °C 20,0 °C 66 % 39 % 1016,5 hPa 0,0 l/m² 6,4 km/h (2 Bft) N 360 ° 0,000 mm 10,2 °C 16,6 °C 8,0 km/h (2 Bft) 95,65 %
09.05.2026 21:18 16,6 °C 20,0 °C 66 % 39 % 1016,5 hPa 0,0 l/m² 4,8 km/h (1 Bft) N 360 ° 0,000 mm 10,2 °C 16,6 °C 6,4 km/h (2 Bft) 100,00 %
09.05.2026 21:17 16,6 °C 20,0 °C 66 % 39 % 1016,5 hPa 0,0 l/m² 6,4 km/h (2 Bft) N 360 ° 0,000 mm 10,2 °C 16,6 °C 12,9 km/h (3 Bft) 95,65 %
09.05.2026 21:16 16,6 °C 20,0 °C 65 % 38 % 1016,5 hPa 0,0 l/m² 6,4 km/h (2 Bft) N 360 ° 0,000 mm 10,0 °C 16,6 °C 12,9 km/h (3 Bft) 95,65 %
09.05.2026 21:15 16,6 °C 20,0 °C 65 % 38 % 1016,4 hPa 0,0 l/m² 8,0 km/h (2 Bft) N 360 ° 0,000 mm 10,0 °C 16,6 °C 12,9 km/h (3 Bft) 95,65 %
09.05.2026 21:14 16,7 °C 20,0 °C 65 % 38 % 1016,3 hPa 0,0 l/m² 6,4 km/h (2 Bft) N 360 ° 0,000 mm 10,1 °C 16,7 °C 8,0 km/h (2 Bft) 95,65 %
09.05.2026 21:13 16,7 °C 20,0 °C 65 % 38 % 1016,3 hPa 0,0 l/m² 6,4 km/h (2 Bft) N 360 ° 0,000 mm 10,1 °C 16,7 °C 12,9 km/h (3 Bft) 95,65 %
09.05.2026 21:12 16,7 °C 20,0 °C 65 % 38 % 1016,3 hPa 0,0 l/m² 6,4 km/h (2 Bft) N 360 ° 0,000 mm 10,1 °C 16,7 °C 9,7 km/h (2 Bft) 95,65 %
09.05.2026 21:11 16,7 °C 20,0 °C 65 % 38 % 1016,3 hPa 0,0 l/m² 6,4 km/h (2 Bft) N 360 ° 0,000 mm 10,1 °C 16,7 °C 9,7 km/h (2 Bft) 95,65 %
09.05.2026 21:10 16,8 °C 20,0 °C 65 % 38 % 1016,3 hPa 0,0 l/m² 6,4 km/h (2 Bft) N 360 ° 0,000 mm 10,2 °C 16,8 °C 9,7 km/h (2 Bft) 95,65 %
09.05.2026 21:09 16,8 °C 20,0 °C 65 % 38 % 1016,3 hPa 0,0 l/m² 6,4 km/h (2 Bft) N 360 ° 0,000 mm 10,2 °C 16,8 °C 9,7 km/h (2 Bft) 95,65 %
09.05.2026 21:08 16,8 °C 20,0 °C 65 % 38 % 1016,3 hPa 0,0 l/m² 6,4 km/h (2 Bft) N 360 ° 0,000 mm 10,2 °C 16,8 °C 9,7 km/h (2 Bft) 100,00 %
09.05.2026 21:07 16,8 °C 20,6 °C 65 % 38 % 1016,4 hPa 0,0 l/m² 6,4 km/h (2 Bft) N 360 ° 0,000 mm 10,2 °C 16,8 °C 8,0 km/h (2 Bft) 100,00 %
09.05.2026 21:06 16,9 °C 20,6 °C 65 % 38 % 1016,4 hPa 0,0 l/m² 8,0 km/h (2 Bft) N 360 ° 0,000 mm 10,3 °C 16,9 °C 12,9 km/h (3 Bft) 100,00 %
09.05.2026 21:05 16,9 °C 20,6 °C 65 % 38 % 1016,3 hPa 0,0 l/m² 6,4 km/h (2 Bft) N 360 ° 0,000 mm 10,3 °C 16,9 °C 9,7 km/h (2 Bft) 95,65 %
09.05.2026 21:04 16,9 °C 20,6 °C 64 % 38 % 1016,3 hPa 0,0 l/m² 6,4 km/h (2 Bft) N 360 ° 0,000 mm 10,0 °C 16,9 °C 12,9 km/h (3 Bft) 100,00 %
09.05.2026 21:03 16,9 °C 20,6 °C 64 % 38 % 1016,2 hPa 0,0 l/m² 6,4 km/h (2 Bft) N 360 ° 0,000 mm 10,0 °C 16,9 °C 8,0 km/h (2 Bft) 100,00 %
09.05.2026 21:02 16,9 °C 20,6 °C 64 % 38 % 1016,3 hPa 0,0 l/m² 6,4 km/h (2 Bft) N 360 ° 0,000 mm 10,0 °C 16,9 °C 8,0 km/h (2 Bft) 95,65 %
09.05.2026 21:01 17,0 °C 20,6 °C 64 % 37 % 1016,3 hPa 0,0 l/m² 4,8 km/h (1 Bft) N 360 ° 0,000 mm 10,1 °C 17,0 °C 9,7 km/h (2 Bft) 95,65 %
09.05.2026 21:00 17,0 °C 20,6 °C 64 % 37 % 1016,2 hPa 0,0 l/m² 8,0 km/h (2 Bft) N 360 ° 0,000 mm 10,1 °C 17,0 °C 9,7 km/h (2 Bft) 100,00 %
09.05.2026 20:59 17,1 °C 20,6 °C 64 % 37 % 1016,3 hPa 0,0 l/m² 8,0 km/h (2 Bft) N 360 ° 0,000 mm 10,2 °C 17,1 °C 14,5 km/h (3 Bft) 100,00 %
09.05.2026 20:58 17,1 °C 20,6 °C 64 % 37 % 1016,2 hPa 0,0 l/m² 8,0 km/h (2 Bft) N 360 ° 0,000 mm 10,2 °C 17,1 °C 12,9 km/h (3 Bft) 100,00 %
09.05.2026 20:57 17,1 °C 20,6 °C 64 % 37 % 1016,2 hPa 0,0 l/m² 8,0 km/h (2 Bft) N 360 ° 0,000 mm 10,2 °C 17,1 °C 12,9 km/h (3 Bft) 95,65 %
09.05.2026 20:56 17,1 °C 20,6 °C 64 % 37 % 1016,2 hPa 0,0 l/m² 6,4 km/h (2 Bft) N 360 ° 0,000 mm 10,2 °C 17,1 °C 9,7 km/h (2 Bft) 95,65 %
09.05.2026 20:55 17,2 °C 20,6 °C 63 % 37 % 1016,2 hPa 0,0 l/m² 8,0 km/h (2 Bft) N 360 ° 0,000 mm 10,1 °C 17,2 °C 12,9 km/h (3 Bft) 95,65 %
09.05.2026 20:54 17,2 °C 20,6 °C 63 % 37 % 1016,3 hPa 0,0 l/m² 6,4 km/h (2 Bft) N 360 ° 0,000 mm 10,1 °C 17,2 °C 9,7 km/h (2 Bft) 100,00 %
09.05.2026 20:53 17,2 °C 20,6 °C 63 % 37 % 1016,3 hPa 0,0 l/m² 9,7 km/h (2 Bft) N 360 ° 0,000 mm 10,1 °C 17,2 °C 14,5 km/h (3 Bft) 100,00 %
09.05.2026 20:52 17,2 °C 20,6 °C 63 % 36 % 1016,4 hPa 0,0 l/m² 4,8 km/h (1 Bft) N 360 ° 0,000 mm 10,1 °C 17,2 °C 8,0 km/h (2 Bft) 100,00 %
09.05.2026 20:51 17,3 °C 20,6 °C 63 % 36 % 1016,3 hPa 0,0 l/m² 8,0 km/h (2 Bft) N 360 ° 0,000 mm 10,2 °C 17,3 °C 12,9 km/h (3 Bft) 100,00 %
09.05.2026 20:50 17,3 °C 20,6 °C 63 % 36 % 1016,4 hPa 0,0 l/m² 8,0 km/h (2 Bft) N 360 ° 0,000 mm 10,2 °C 17,3 °C 14,5 km/h (3 Bft) 100,00 %
09.05.2026 20:49 17,3 °C 21,1 °C 63 % 36 % 1016,3 hPa 0,0 l/m² 8,0 km/h (2 Bft) N 360 ° 0,000 mm 10,2 °C 17,3 °C 12,9 km/h (3 Bft) 95,65 %
09.05.2026 20:48 17,4 °C 21,1 °C 63 % 36 % 1016,3 hPa 0,0 l/m² 9,7 km/h (2 Bft) N 360 ° 0,000 mm 10,3 °C 17,4 °C 17,7 km/h (3 Bft) 95,65 %
09.05.2026 20:47 17,4 °C 21,1 °C 63 % 36 % 1016,4 hPa 0,0 l/m² 9,7 km/h (2 Bft) N 360 ° 0,000 mm 10,3 °C 17,4 °C 14,5 km/h (3 Bft) 100,00 %
09.05.2026 20:46 17,4 °C 21,1 °C 62 % 36 % 1016,3 hPa 0,0 l/m² 9,7 km/h (2 Bft) N 360 ° 0,000 mm 10,0 °C 17,4 °C 14,5 km/h (3 Bft) 100,00 %
09.05.2026 20:45 17,4 °C 21,1 °C 62 % 36 % 1016,2 hPa 0,0 l/m² 8,0 km/h (2 Bft) N 360 ° 0,000 mm 10,0 °C 17,4 °C 12,9 km/h (3 Bft) 100,00 %
09.05.2026 20:44 17,5 °C 21,1 °C 62 % 36 % 1016,2 hPa 0,0 l/m² 8,0 km/h (2 Bft) N 360 ° 0,000 mm 10,1 °C 17,5 °C 12,9 km/h (3 Bft) 95,65 %
09.05.2026 20:43 17,5 °C 21,1 °C 62 % 36 % 1016,2 hPa 0,0 l/m² 9,7 km/h (2 Bft) N 360 ° 0,000 mm 10,1 °C 17,5 °C 16,1 km/h (3 Bft) 100,00 %
09.05.2026 20:42 17,6 °C 21,1 °C 62 % 36 % 1016,2 hPa 0,0 l/m² 9,7 km/h (2 Bft) N 360 ° 0,000 mm 10,2 °C 17,6 °C 16,1 km/h (3 Bft) 95,65 %
09.05.2026 20:41 17,6 °C 21,1 °C 62 % 36 % 1016,2 hPa 0,0 l/m² 9,7 km/h (2 Bft) N 360 ° 0,000 mm 10,2 °C 17,6 °C 16,1 km/h (3 Bft) 91,30 %
09.05.2026 20:40 17,6 °C 21,1 °C 61 % 36 % 1016,3 hPa 0,0 l/m² 11,3 km/h (2 Bft) N 360 ° 0,000 mm 10,0 °C 17,6 °C 16,1 km/h (3 Bft) 95,65 %
09.05.2026 20:39 17,7 °C 21,1 °C 61 % 36 % 1016,2 hPa 0,0 l/m² 6,4 km/h (2 Bft) N 360 ° 0,000 mm 10,1 °C 17,7 °C 9,7 km/h (2 Bft) 95,65 %
09.05.2026 20:38 17,7 °C 21,1 °C 61 % 35 % 1016,2 hPa 0,0 l/m² 6,4 km/h (2 Bft) N 360 ° 0,000 mm 10,1 °C 17,7 °C 9,7 km/h (2 Bft) 100,00 %
09.05.2026 20:37 17,7 °C 21,1 °C 61 % 35 % 1016,3 hPa 0,0 l/m² 6,4 km/h (2 Bft) N 360 ° 0,000 mm 10,1 °C 17,7 °C 12,9 km/h (3 Bft) 100,00 %
09.05.2026 20:36 17,7 °C 21,1 °C 61 % 35 % 1016,3 hPa 0,0 l/m² 8,0 km/h (2 Bft) N 360 ° 0,000 mm 10,1 °C 17,7 °C 12,9 km/h (3 Bft) 100,00 %
09.05.2026 20:35 17,8 °C 21,1 °C 61 % 35 % 1016,3 hPa 0,0 l/m² 6,4 km/h (2 Bft) N 360 ° 0,000 mm 10,2 °C 17,8 °C 12,9 km/h (3 Bft) 100,00 %
09.05.2026 20:34 17,8 °C 21,1 °C 60 % 34 % 1016,3 hPa 0,0 l/m² 6,4 km/h (2 Bft) N 360 ° 0,000 mm 9,9 °C 17,8 °C 12,9 km/h (3 Bft) 91,30 %
09.05.2026 20:33 17,8 °C 21,1 °C 60 % 34 % 1016,3 hPa 0,0 l/m² 6,4 km/h (2 Bft) N 360 ° 0,000 mm 9,9 °C 17,8 °C 9,7 km/h (2 Bft) 100,00 %
09.05.2026 20:32 17,9 °C 21,1 °C 60 % 34 % 1016,2 hPa 0,0 l/m² 11,3 km/h (2 Bft) N 360 ° 0,000 mm 10,0 °C 17,9 °C 17,7 km/h (3 Bft) 95,65 %
09.05.2026 20:31 17,9 °C 21,7 °C 60 % 34 % 1016,2 hPa 0,0 l/m² 9,7 km/h (2 Bft) N 360 ° 0,000 mm 10,0 °C 17,9 °C 12,9 km/h (3 Bft) 100,00 %
09.05.2026 20:30 17,9 °C 21,7 °C 60 % 34 % 1016,2 hPa 0,0 l/m² 8,0 km/h (2 Bft) N 360 ° 0,000 mm 10,0 °C 17,9 °C 16,1 km/h (3 Bft) 95,65 %
09.05.2026 20:29 17,9 °C 21,7 °C 60 % 34 % 1016,2 hPa 0,0 l/m² 8,0 km/h (2 Bft) N 360 ° 0,000 mm 10,0 °C 17,9 °C 14,5 km/h (3 Bft) 95,65 %
09.05.2026 20:28 18,0 °C 21,7 °C 60 % 34 % 1016,2 hPa 0,0 l/m² 4,8 km/h (1 Bft) N 360 ° 0,000 mm 10,1 °C 18,0 °C 6,4 km/h (2 Bft) 100,00 %
09.05.2026 20:27 18,1 °C 21,7 °C 59 % 34 % 1016,2 hPa 0,0 l/m² 6,4 km/h (2 Bft) N 360 ° 0,000 mm 10,0 °C 18,1 °C 9,7 km/h (2 Bft) 91,30 %
09.05.2026 20:26 18,1 °C 21,7 °C 59 % 34 % 1016,1 hPa 0,0 l/m² 8,0 km/h (2 Bft) N 360 ° 0,000 mm 10,0 °C 18,1 °C 12,9 km/h (3 Bft) 100,00 %
09.05.2026 20:25 18,1 °C 21,7 °C 59 % 33 % 1016,1 hPa 0,0 l/m² 8,0 km/h (2 Bft) N 360 ° 0,000 mm 10,0 °C 18,1 °C 12,9 km/h (3 Bft) 100,00 %
09.05.2026 20:24 18,2 °C 21,7 °C 59 % 33 % 1016,1 hPa 0,0 l/m² 9,7 km/h (2 Bft) N 360 ° 0,000 mm 10,1 °C 18,2 °C 16,1 km/h (3 Bft) 100,00 %
09.05.2026 20:23 18,2 °C 21,7 °C 59 % 33 % 1016,1 hPa 0,0 l/m² 8,0 km/h (2 Bft) N 360 ° 0,000 mm 10,1 °C 18,2 °C 12,9 km/h (3 Bft) 100,00 %
09.05.2026 20:22 18,2 °C 21,7 °C 59 % 33 % 1016,1 hPa 0,0 l/m² 9,7 km/h (2 Bft) N 360 ° 0,000 mm 10,1 °C 18,2 °C 14,5 km/h (3 Bft) 95,65 %
09.05.2026 20:21 18,2 °C 21,7 °C 59 % 33 % 1016,1 hPa 0,0 l/m² 9,7 km/h (2 Bft) N 360 ° 0,000 mm 10,1 °C 18,2 °C 14,5 km/h (3 Bft) 100,00 %
09.05.2026 20:20 18,3 °C 21,7 °C 59 % 33 % 1016,1 hPa 0,0 l/m² 8,0 km/h (2 Bft) N 360 ° 0,000 mm 10,1 °C 18,3 °C 12,9 km/h (3 Bft) 95,65 %
09.05.2026 20:19 18,3 °C 21,7 °C 58 % 33 % 1016,1 hPa 0,0 l/m² 9,7 km/h (2 Bft) N 360 ° 0,000 mm 9,9 °C 18,3 °C 16,1 km/h (3 Bft) 100,00 %
09.05.2026 20:18 18,3 °C 21,7 °C 58 % 33 % 1016,0 hPa 0,0 l/m² 6,4 km/h (2 Bft) N 360 ° 0,000 mm 9,9 °C 18,3 °C 9,7 km/h (2 Bft) 95,65 %
09.05.2026 20:17 18,3 °C 21,7 °C 58 % 33 % 1016,1 hPa 0,0 l/m² 11,3 km/h (2 Bft) N 360 ° 0,000 mm 9,9 °C 18,3 °C 16,1 km/h (3 Bft) 95,65 %
09.05.2026 20:16 18,4 °C 21,7 °C 58 % 33 % 1016,1 hPa 0,0 l/m² 9,7 km/h (2 Bft) N 360 ° 0,000 mm 10,0 °C 18,4 °C 16,1 km/h (3 Bft) 100,00 %
09.05.2026 20:15 18,4 °C 21,7 °C 58 % 33 % 1016,1 hPa 0,0 l/m² 9,7 km/h (2 Bft) N 360 ° 0,000 mm 10,0 °C 18,4 °C 14,5 km/h (3 Bft) 100,00 %
09.05.2026 20:14 18,4 °C 22,2 °C 58 % 33 % 1016,1 hPa 0,0 l/m² 11,3 km/h (2 Bft) N 360 ° 0,000 mm 10,0 °C 18,4 °C 16,1 km/h (3 Bft) 100,00 %
09.05.2026 20:13 18,5 °C 22,2 °C 58 % 33 % 1016,0 hPa 0,0 l/m² 8,0 km/h (2 Bft) N 360 ° 0,000 mm 10,1 °C 18,5 °C 14,5 km/h (3 Bft) 95,65 %
09.05.2026 20:12 18,6 °C 22,2 °C 58 % 33 % 1016,1 hPa 0,0 l/m² 9,7 km/h (2 Bft) N 360 ° 0,000 mm 10,2 °C 18,6 °C 14,5 km/h (3 Bft) 100,00 %
09.05.2026 20:11 18,6 °C 22,2 °C 58 % 33 % 1015,9 hPa 0,0 l/m² 9,7 km/h (2 Bft) N 360 ° 0,000 mm 10,2 °C 18,6 °C 16,1 km/h (3 Bft) 95,65 %
09.05.2026 20:10 18,6 °C 22,2 °C 59 % 33 % 1016,1 hPa 0,0 l/m² 12,9 km/h (3 Bft) N 360 ° 0,000 mm 10,4 °C 18,6 °C 17,7 km/h (3 Bft) 100,00 %
09.05.2026 20:09 18,6 °C 22,2 °C 59 % 33 % 1016,0 hPa 0,0 l/m² 11,3 km/h (2 Bft) N 360 ° 0,000 mm 10,4 °C 18,6 °C 20,9 km/h (4 Bft) 95,65 %
09.05.2026 20:08 18,7 °C 22,2 °C 58 % 33 % 1015,9 hPa 0,0 l/m² 6,4 km/h (2 Bft) N 360 ° 0,000 mm 10,3 °C 18,7 °C 8,0 km/h (2 Bft) 100,00 %
09.05.2026 20:07 18,7 °C 22,2 °C 58 % 33 % 1015,8 hPa 0,0 l/m² 6,4 km/h (2 Bft) N 360 ° 0,000 mm 10,3 °C 18,7 °C 9,7 km/h (2 Bft) 95,65 %
09.05.2026 20:06 18,7 °C 22,2 °C 58 % 33 % 1015,9 hPa 0,0 l/m² 11,3 km/h (2 Bft) N 360 ° 0,000 mm 10,3 °C 18,7 °C 17,7 km/h (3 Bft) 95,65 %
09.05.2026 20:05 18,8 °C 22,2 °C 58 % 33 % 1015,9 hPa 0,0 l/m² 8,0 km/h (2 Bft) N 360 ° 0,000 mm 10,4 °C 18,8 °C 14,5 km/h (3 Bft) 91,30 %
09.05.2026 20:04 18,8 °C 22,2 °C 58 % 33 % 1015,9 hPa 0,0 l/m² 4,8 km/h (1 Bft) N 360 ° 0,000 mm 10,4 °C 18,8 °C 8,0 km/h (2 Bft) 100,00 %
09.05.2026 20:03 18,8 °C 22,2 °C 58 % 33 % 1015,9 hPa 0,0 l/m² 6,4 km/h (2 Bft) N 360 ° 0,000 mm 10,4 °C 18,8 °C 14,5 km/h (3 Bft) 95,65 %
09.05.2026 20:02 18,9 °C 22,2 °C 58 % 32 % 1015,9 hPa 0,0 l/m² 9,7 km/h (2 Bft) N 360 ° 0,000 mm 10,5 °C 18,9 °C 16,1 km/h (3 Bft) 100,00 %
09.05.2026 20:01 18,9 °C 22,2 °C 58 % 32 % 1015,8 hPa 0,0 l/m² 8,0 km/h (2 Bft) N 360 ° 0,000 mm 10,5 °C 18,9 °C 12,9 km/h (3 Bft) 95,65 %
09.05.2026 20:00 18,9 °C 22,2 °C 57 % 32 % 1015,8 hPa 0,0 l/m² 8,0 km/h (2 Bft) N 360 ° 0,000 mm 10,2 °C 18,9 °C 14,5 km/h (3 Bft) 95,65 %
09.05.2026 19:59 19,0 °C 22,2 °C 57 % 32 % 1015,9 hPa 0,0 l/m² 6,4 km/h (2 Bft) N 360 ° 0,000 mm 10,3 °C 19,0 °C 9,7 km/h (2 Bft) 100,00 %
09.05.2026 19:58 19,1 °C 22,2 °C 57 % 32 % 1015,9 hPa 0,0 l/m² 8,0 km/h (2 Bft) N 360 ° 0,000 mm 10,4 °C 19,1 °C 16,1 km/h (3 Bft) 91,30 %
09.05.2026 19:57 19,1 °C 22,8 °C 57 % 32 % 1015,8 hPa 0,0 l/m² 11,3 km/h (2 Bft) N 360 ° 0,000 mm 10,4 °C 19,1 °C 19,3 km/h (3 Bft) 100,00 %
09.05.2026 19:56 19,2 °C 22,8 °C 57 % 32 % 1015,9 hPa 0,0 l/m² 12,9 km/h (3 Bft) N 360 ° 0,000 mm 10,5 °C 19,2 °C 16,1 km/h (3 Bft) 91,30 %
09.05.2026 19:55 19,2 °C 22,8 °C 57 % 32 % 1015,9 hPa 0,0 l/m² 11,3 km/h (2 Bft) N 360 ° 0,000 mm 10,5 °C 19,2 °C 17,7 km/h (3 Bft) 100,00 %
09.05.2026 19:54 19,2 °C 22,8 °C 57 % 32 % 1015,8 hPa 0,0 l/m² 8,0 km/h (2 Bft) N 360 ° 0,000 mm 10,5 °C 19,2 °C 12,9 km/h (3 Bft) 86,96 %
09.05.2026 19:53 19,2 °C 22,8 °C 56 % 32 % 1015,9 hPa 0,0 l/m² 11,3 km/h (2 Bft) N 360 ° 0,000 mm 10,2 °C 19,2 °C 17,7 km/h (3 Bft) 100,00 %
09.05.2026 19:52 19,3 °C 22,8 °C 56 % 32 % 1015,9 hPa 0,0 l/m² 9,7 km/h (2 Bft) N 360 ° 0,000 mm 10,3 °C 19,3 °C 14,5 km/h (3 Bft) 86,96 %
09.05.2026 19:51 19,4 °C 22,8 °C 56 % 32 % 1015,8 hPa 0,0 l/m² 8,0 km/h (2 Bft) N 360 ° 0,000 mm 10,4 °C 19,4 °C 14,5 km/h (3 Bft) 91,30 %
09.05.2026 19:50 19,4 °C 22,8 °C 56 % 31 % 1015,8 hPa 0,0 l/m² 6,4 km/h (2 Bft) N 360 ° 0,000 mm 10,4 °C 19,4 °C 9,7 km/h (2 Bft) 100,00 %
09.05.2026 19:49 19,4 °C 22,8 °C 56 % 31 % 1015,8 hPa 0,0 l/m² 6,4 km/h (2 Bft) N 360 ° 0,000 mm 10,4 °C 19,4 °C 12,9 km/h (3 Bft) 95,65 %
09.05.2026 19:48 19,5 °C 22,8 °C 56 % 31 % 1015,7 hPa 0,0 l/m² 8,0 km/h (2 Bft) N 360 ° 0,000 mm 10,5 °C 19,5 °C 12,9 km/h (3 Bft) 100,00 %
09.05.2026 19:47 19,6 °C 22,8 °C 55 % 31 % 1015,8 hPa 0,0 l/m² 11,3 km/h (2 Bft) N 360 ° 0,000 mm 10,3 °C 19,6 °C 20,9 km/h (4 Bft) 95,65 %
09.05.2026 19:46 19,6 °C 22,8 °C 55 % 31 % 1015,9 hPa 0,0 l/m² 9,7 km/h (2 Bft) N 360 ° 0,000 mm 10,3 °C 19,6 °C 16,1 km/h (3 Bft) 100,00 %
09.05.2026 19:45 19,6 °C 22,8 °C 55 % 31 % 1015,7 hPa 0,0 l/m² 8,0 km/h (2 Bft) N 360 ° 0,000 mm 10,3 °C 19,6 °C 12,9 km/h (3 Bft) 91,30 %
09.05.2026 19:44 19,7 °C 22,8 °C 55 % 31 % 1015,9 hPa 0,0 l/m² 8,0 km/h (2 Bft) N 360 ° 0,000 mm 10,4 °C 19,7 °C 16,1 km/h (3 Bft) 95,65 %
09.05.2026 19:43 19,7 °C 22,8 °C 55 % 31 % 1015,9 hPa 0,0 l/m² 6,4 km/h (2 Bft) N 360 ° 0,000 mm 10,4 °C 19,7 °C 12,9 km/h (3 Bft) 86,96 %
09.05.2026 19:42 19,8 °C 22,8 °C 54 % 30 % 1015,8 hPa 0,0 l/m² 6,4 km/h (2 Bft) N 360 ° 0,000 mm 10,2 °C 19,8 °C 9,7 km/h (2 Bft) 95,65 %
09.05.2026 19:41 19,8 °C 22,8 °C 54 % 30 % 1015,8 hPa 0,0 l/m² 11,3 km/h (2 Bft) N 360 ° 0,000 mm 10,2 °C 19,8 °C 19,3 km/h (3 Bft) 100,00 %
09.05.2026 19:40 19,8 °C 22,8 °C 54 % 30 % 1015,9 hPa 0,0 l/m² 9,7 km/h (2 Bft) N 360 ° 0,000 mm 10,2 °C 19,8 °C 14,5 km/h (3 Bft) 95,65 %
09.05.2026 19:39 19,9 °C 23,3 °C 54 % 30 % 1015,9 hPa 0,0 l/m² 8,0 km/h (2 Bft) N 360 ° 0,000 mm 10,3 °C 19,9 °C 14,5 km/h (3 Bft) 95,65 %
09.05.2026 19:38 19,9 °C 23,3 °C 54 % 29 % 1015,9 hPa 0,0 l/m² 9,7 km/h (2 Bft) N 360 ° 0,000 mm 10,3 °C 19,9 °C 12,9 km/h (3 Bft) 95,65 %
09.05.2026 19:37 19,9 °C 23,3 °C 53 % 29 % 1015,8 hPa 0,0 l/m² 11,3 km/h (2 Bft) N 360 ° 0,000 mm 10,0 °C 19,9 °C 19,3 km/h (3 Bft) 95,65 %
09.05.2026 19:36 19,9 °C 23,3 °C 53 % 29 % 1015,9 hPa 0,0 l/m² 9,7 km/h (2 Bft) N 360 ° 0,000 mm 10,0 °C 19,9 °C 17,7 km/h (3 Bft) 95,65 %
09.05.2026 19:35 20,0 °C 23,3 °C 52 % 29 % 1015,8 hPa 0,0 l/m² 11,3 km/h (2 Bft) N 360 ° 0,000 mm 9,8 °C 20,0 °C 19,3 km/h (3 Bft) 100,00 %
09.05.2026 19:34 20,1 °C 23,3 °C 52 % 29 % 1015,8 hPa 0,0 l/m² 14,5 km/h (3 Bft) N 360 ° 0,000 mm 9,9 °C 20,1 °C 19,3 km/h (3 Bft) 100,00 %
09.05.2026 19:33 20,1 °C 23,3 °C 52 % 29 % 1015,8 hPa 0,0 l/m² 12,9 km/h (3 Bft) N 360 ° 0,000 mm 9,9 °C 20,1 °C 17,7 km/h (3 Bft) 91,30 %
09.05.2026 19:32 20,1 °C 23,3 °C 52 % 29 % 1015,9 hPa 0,0 l/m² 11,3 km/h (2 Bft) N 360 ° 0,000 mm 9,9 °C 20,1 °C 19,3 km/h (3 Bft) 100,00 %
09.05.2026 19:31 20,2 °C 23,3 °C 52 % 28 % 1015,9 hPa 0,0 l/m² 14,5 km/h (3 Bft) N 360 ° 0,000 mm 10,0 °C 20,2 °C 24,1 km/h (4 Bft) 100,00 %
09.05.2026 19:30 20,2 °C 23,3 °C 52 % 28 % 1015,9 hPa 0,0 l/m² 14,5 km/h (3 Bft) N 360 ° 0,000 mm 10,0 °C 20,2 °C 24,1 km/h (4 Bft) 91,30 %
09.05.2026 19:29 20,2 °C 23,3 °C 51 % 28 % 1015,9 hPa 0,0 l/m² 14,5 km/h (3 Bft) N 360 ° 0,000 mm 9,7 °C 20,2 °C 22,5 km/h (4 Bft) 95,65 %
09.05.2026 19:28 20,3 °C 23,3 °C 51 % 28 % 1015,8 hPa 0,0 l/m² 11,3 km/h (2 Bft) N 360 ° 0,000 mm 9,8 °C 20,3 °C 20,9 km/h (4 Bft) 95,65 %
09.05.2026 19:27 20,3 °C 23,3 °C 51 % 28 % 1015,9 hPa 0,0 l/m² 14,5 km/h (3 Bft) N 360 ° 0,000 mm 9,8 °C 20,3 °C 22,5 km/h (4 Bft) 95,65 %
09.05.2026 19:26 20,3 °C 23,3 °C 51 % 28 % 1015,8 hPa 0,0 l/m² 16,1 km/h (3 Bft) N 360 ° 0,000 mm 9,8 °C 20,3 °C 22,5 km/h (4 Bft) 95,65 %
09.05.2026 19:25 20,4 °C 23,9 °C 51 % 28 % 1015,8 hPa 0,0 l/m² 14,5 km/h (3 Bft) N 360 ° 0,000 mm 9,9 °C 20,4 °C 19,3 km/h (3 Bft) 95,65 %
09.05.2026 19:24 20,4 °C 23,9 °C 51 % 28 % 1015,9 hPa 0,0 l/m² 16,1 km/h (3 Bft) N 360 ° 0,000 mm 9,9 °C 20,4 °C 24,1 km/h (4 Bft) 95,65 %
09.05.2026 19:23 20,5 °C 23,9 °C 51 % 28 % 1015,8 hPa 0,0 l/m² 9,7 km/h (2 Bft) N 360 ° 0,000 mm 10,0 °C 20,5 °C 16,1 km/h (3 Bft) 91,30 %
09.05.2026 19:22 20,6 °C 23,9 °C 52 % 28 % 1015,8 hPa 0,0 l/m² 14,5 km/h (3 Bft) N 360 ° 0,000 mm 10,4 °C 20,6 °C 20,9 km/h (4 Bft) 95,65 %
09.05.2026 19:21 20,6 °C 23,9 °C 51 % 28 % 1015,9 hPa 0,0 l/m² 16,1 km/h (3 Bft) N 360 ° 0,000 mm 10,1 °C 20,6 °C 22,5 km/h (4 Bft) 100,00 %
09.05.2026 19:20 20,6 °C 23,9 °C 51 % 28 % 1015,8 hPa 0,0 l/m² 14,5 km/h (3 Bft) N 360 ° 0,000 mm 10,1 °C 20,6 °C 24,1 km/h (4 Bft) 95,65 %
09.05.2026 19:19 20,7 °C 23,9 °C 51 % 28 % 1015,8 hPa 0,0 l/m² 11,3 km/h (2 Bft) N 360 ° 0,000 mm 10,2 °C 20,7 °C 19,3 km/h (3 Bft) 100,00 %
09.05.2026 19:18 20,7 °C 23,9 °C 51 % 28 % 1015,8 hPa 0,0 l/m² 12,9 km/h (3 Bft) N 360 ° 0,000 mm 10,2 °C 20,7 °C 16,1 km/h (3 Bft) 91,30 %
09.05.2026 19:17 20,8 °C 23,9 °C 51 % 28 % 1015,9 hPa 0,0 l/m² 12,9 km/h (3 Bft) N 360 ° 0,000 mm 10,3 °C 20,8 °C 19,3 km/h (3 Bft) 95,65 %
09.05.2026 19:16 20,8 °C 23,9 °C 51 % 28 % 1015,8 hPa 0,0 l/m² 17,7 km/h (3 Bft) N 360 ° 0,000 mm 10,3 °C 20,8 °C 24,1 km/h (4 Bft) 91,30 %
09.05.2026 19:15 20,8 °C 23,9 °C 51 % 28 % 1015,8 hPa 0,0 l/m² 14,5 km/h (3 Bft) N 360 ° 0,000 mm 10,3 °C 20,8 °C 25,7 km/h (4 Bft) 100,00 %
09.05.2026 19:14 20,8 °C 23,9 °C 51 % 27 % 1015,8 hPa 0,0 l/m² 6,4 km/h (2 Bft) N 360 ° 0,000 mm 10,3 °C 20,8 °C 9,7 km/h (2 Bft) 95,65 %
09.05.2026 19:13 20,9 °C 24,4 °C 50 % 27 % 1015,7 hPa 0,0 l/m² 8,0 km/h (2 Bft) N 360 ° 0,000 mm 10,1 °C 20,9 °C 16,1 km/h (3 Bft) 100,00 %
09.05.2026 19:12 20,9 °C 24,4 °C 50 % 27 % 1015,7 hPa 0,0 l/m² 4,8 km/h (1 Bft) N 360 ° 0,000 mm 10,1 °C 20,9 °C 8,0 km/h (2 Bft) 95,65 %
09.05.2026 19:11 20,9 °C 24,4 °C 50 % 27 % 1015,7 hPa 0,0 l/m² 6,4 km/h (2 Bft) N 360 ° 0,000 mm 10,1 °C 20,9 °C 9,7 km/h (2 Bft) 95,65 %
09.05.2026 19:10 21,1 °C 24,4 °C 49 % 27 % 1015,7 hPa 0,0 l/m² 12,9 km/h (3 Bft) N 360 ° 0,000 mm 10,0 °C 21,1 °C 19,3 km/h (3 Bft) 100,00 %
09.05.2026 19:09 21,1 °C 24,4 °C 49 % 27 % 1015,7 hPa 0,0 l/m² 14,5 km/h (3 Bft) N 360 ° 0,000 mm 10,0 °C 21,1 °C 24,1 km/h (4 Bft) 91,30 %
09.05.2026 19:08 21,1 °C 24,4 °C 49 % 27 % 1015,7 hPa 0,0 l/m² 16,1 km/h (3 Bft) N 360 ° 0,000 mm 10,0 °C 21,1 °C 22,5 km/h (4 Bft) 100,00 %
09.05.2026 19:07 21,2 °C 24,4 °C 49 % 27 % 1015,8 hPa 0,0 l/m² 16,1 km/h (3 Bft) N 360 ° 0,000 mm 10,1 °C 21,2 °C 20,9 km/h (4 Bft) 95,65 %
09.05.2026 19:06 21,3 °C 24,4 °C 50 % 27 % 1015,8 hPa 0,0 l/m² 17,7 km/h (3 Bft) N 360 ° 0,000 mm 10,4 °C 21,3 °C 27,4 km/h (4 Bft) 100,00 %
09.05.2026 19:05 21,3 °C 24,4 °C 50 % 26 % 1015,8 hPa 0,0 l/m² 12,9 km/h (3 Bft) N 360 ° 0,000 mm 10,4 °C 21,3 °C 17,7 km/h (3 Bft) 91,30 %
09.05.2026 19:04 21,4 °C 24,4 °C 49 % 26 % 1015,7 hPa 0,0 l/m² 11,3 km/h (2 Bft) N 360 ° 0,000 mm 10,2 °C 21,4 °C 16,1 km/h (3 Bft) 95,65 %
09.05.2026 19:03 21,4 °C 24,4 °C 49 % 26 % 1015,7 hPa 0,0 l/m² 14,5 km/h (3 Bft) N 360 ° 0,000 mm 10,2 °C 21,4 °C 17,7 km/h (3 Bft) 95,65 %
09.05.2026 19:02 21,5 °C 24,4 °C 49 % 26 % 1015,7 hPa 0,0 l/m² 11,3 km/h (2 Bft) N 360 ° 0,000 mm 10,3 °C 21,5 °C 19,3 km/h (3 Bft) 95,65 %
09.05.2026 19:01 21,6 °C 25,0 °C 49 % 26 % 1015,7 hPa 0,0 l/m² 14,5 km/h (3 Bft) N 360 ° 0,000 mm 10,4 °C 21,6 °C 17,7 km/h (3 Bft) 95,65 %
09.05.2026 19:00 21,7 °C 25,0 °C 49 % 26 % 1015,6 hPa 0,0 l/m² 14,5 km/h (3 Bft) N 360 ° 0,000 mm 10,5 °C 21,7 °C 20,9 km/h (4 Bft) 100,00 %
_ Min-Zeit 05:42 05:22 15:53 14:44 18:42 - 22:16 - - - 05:32 05:49 22:46 08:24
Minimum _ 9,8 °C 11,7 °C 39 % 17 % 1006,4 hPa - 1,6 km/h (1 Bft) - - - 5,7 °C 8,4 °C 3,2 km/h (1 Bft) 82,61 %
_ Max-Zeit 16:35 15:53 00:03 05:57 23:24 19:00 13:48 - - 19:00 13:54 16:35 09:31 19:00
Maximum _ 25,9 °C 30,6 °C 77 % 53 % 1016,8 hPa 0,0 l/m² 20,9 km/h
N (4 Bft)
- - 0,000 mm 12,2 °C 25,9 °C 30,6 km/h
N (5 Bft)
100,00 %
Durchschnitt _ 17,7 °C 21,2 °C 60 % 35 % 1013,7 hPa #0,0 l/m² 9,8 km/h (2 Bft) N - #0,000 mm 9,3 °C 17,7 °C 15,4 km/h (3 Bft) 97,20 %